[[{"header":{"parameterUnit":"m.s-1","parameterCategory":1,"la1":31.0,"la2":29.5877,"lo1":-88.7671,"lo2":-86.6584,"dy":0.0162,"dx":0.0185,"nx":115,"ny":88,"refTime":"2024-06-14T00:00:00:Z","depth":0,"parameterNumber":2,"parameterNumberName":"U-component_of_WINDS"},"data":[0.0,0.0,0.0,0.0,0.0,0.0,0.0,0.0,0.0,0.0,0.0,0.0,0.0,0.0,0.0,0.0,0.0,0.0,0.0,0.0,0.0,0.0,0.0,0.0,0.0,0.0,0.0,0.0,0.0,0.0,0.0,0.0,0.0,0.0,0.0,0.0,0.0,0.0,0.0,0.0,0.0,0.0,0.0,0.0,0.0,0.0,0.0,0.0,0.0,0.0,0.0,0.0,0.0,0.0,0.0,0.0,0.0,0.0,0.0,0.0,0.0,0.0,0.0,0.0,0.0,0.0,0.0,0.0,0.0,0.0,0.0,0.0,0.0,0.0,0.0,0.0,0.0,0.0,0.0,0.0,0.0,0.0,0.0,0.0,0.0,0.0,0.0,0.0,0.0,0.0,0.0,0.0,0.0,0.0,0.0,0.0,0.0,0.0,0.0,0.0,0.0,0.0,0.0,0.0,0.0,0.0,0.0,0.0,0.0,0.0,0.0,0.0,0.0,0.0,0.0,0.0,0.0,0.0,0.0,0.0,0.0,0.0,0.0,0.0,0.0,0.0,0.0,0.0,0.0,0.0,0.0,0.0,0.0,0.0,0.0,0.0,0.0,0.0,0.0,0.0,0.0,0.0,0.0,0.0,0.0,0.0,0.0,0.0,0.0,0.0,0.0,0.0,0.0,0.0,0.0,0.0,0.0,0.0,0.0,0.0,0.0,0.0,0.0,0.0,0.0,0.0,0.0,0.0,0.0,0.0,0.0,0.0,0.0,0.0,0.0,0.0,0.0,0.0,0.0,0.0,0.0,0.0,0.0,0.0,0.0,0.0,0.0,0.0,0.0,0.0,0.0,0.0,0.0,0.0,0.0,0.0,0.0,0.0,0.0,0.0,0.0,0.0,0.0,0.0,0.0,0.0,0.0,0.0,0.0,0.0,0.0,0.0,0.0,0.0,0.0,0.0,0.0,0.0,0.0,0.0,0.0,0.0,0.0,0.0,0.0,0.0,0.0,0.0,0.0,0.0,0.0,0.0,0.0,0.0,0.0,0.0,0.0,0.0,0.0,0.0,0.0,0.0,0.0,0.0,0.0,0.0,0.0,0.0,0.0,0.0,0.0,0.0,0.0,0.0,0.0,0.0,0.0,0.0,0.0,0.0,0.0,0.0,0.0,0.0,0.0,0.0,0.0,0.0,0.0,0.0,0.0,0.0,0.0,0.0,0.0,0.0,0.0,0.0,0.0,0.0,0.0,0.0,0.0,0.0,0.0,0.0,0.0,0.0,0.0,0.0,0.0,0.0,0.0,0.0,0.0,0.0,0.0,0.0,0.0,0.0,0.0,0.0,0.0,0.0,0.0,0.0,0.0,0.0,0.0,0.0,0.0,0.0,0.0,0.0,0.0,0.0,0.0,0.0,0.0,0.0,0.0,0.0,0.0,0.0,0.0,0.0,0.0,0.0,0.0,0.0,0.0,0.0,0.0,0.0,0.0,0.0,0.0,0.0,0.0,0.0,0.0,0.0,0.0,0.0,0.0,0.0,0.0,0.0,0.0,0.0,0.0,0.0,0.0,0.0,0.0,0.0,0.0,0.0,0.0,0.0,0.0,0.0,0.0,0.0,0.0,0.0,0.0,0.0,0.0,0.0,0.0,0.0,0.0,0.0,0.0,0.0,0.0,0.0,0.0,0.0,0.0,0.0,0.0,0.0,0.0,0.0,0.0,0.0,0.0,0.0,0.0,0.0,0.0,0.0,0.0,0.0,0.0,0.0,0.0,0.0,0.0,0.0,0.0,0.0,0.0,0.0,0.0,0.0,0.0,0.0,0.0,0.0,0.0,0.0,0.0,0.0,0.0,0.0,0.0,0.0,0.0,0.0,0.0,0.0,0.0,0.0,0.0,0.0,0.0,0.0,0.0,0.0,0.0,0.0,0.0,0.0,0.0,0.0,0.0,0.0,0.0,0.0,0.0,0.0,0.0,0.0,0.0,0.0,0.0,0.0,0.0,0.0,0.0,0.0,0.0,0.0,0.0,0.0,0.0,0.0,0.0,0.0,0.0,0.0,0.0,0.0,0.0,0.0,0.0,0.0,0.0,0.0,0.0,0.0,0.0,0.0,0.0,0.0,0.0,0.0,0.0,0.0,0.0,0.0,0.0,0.0,0.0,0.0,0.0,0.0,0.0,0.0,0.0,0.0,0.0,0.0,0.0,0.0,0.0,0.0,0.0,0.0,0.0,0.0,0.0,0.0,0.0,0.0,0.0,0.0,0.0,0.0,0.0,0.0,0.0,0.0,0.0,0.0,0.0,0.0,0.0,0.0,0.0,0.0,0.0,0.0,0.0,0.0,0.0,0.0,0.0,0.0,0.0,0.0,0.0,0.0,0.0,0.0,0.0,0.0,0.0,0.0,0.0,0.0,0.0,0.0,0.0,0.0,0.0,0.0,0.0,0.0,0.0,0.0,0.0,0.0,0.0,0.0,0.0,0.0,0.0,0.0,0.0,0.0,0.0,0.0,0.0,0.0,0.0,0.0,0.0,0.0,0.0,0.0,0.0,0.0,0.0,0.0,0.0,0.0,0.0,0.0,0.0,0.0,0.0,0.0,0.0,0.0,0.0,0.0,0.0,0.0,0.0,0.0,0.0,0.0,0.0,0.0,0.0,0.0,0.0,0.0,0.0,0.0,0.0,0.0,0.0,0.0,0.0,0.0,0.0,0.0,0.0,0.0,0.0,0.0,0.0,0.0,0.0,0.0,0.0,0.0,0.0,0.0,0.0,0.0,0.0,0.0,0.0,0.0,0.0,0.0,0.0,0.0,0.0,0.0,0.0,0.0,0.0,0.0,0.0,0.0,0.0,0.0,0.0,0.0,0.0,0.0,0.0,0.0,0.0,0.0,0.0,0.0,0.0,0.0,0.0,0.0,0.0,0.0,0.0,0.0,0.0,0.0,0.0,0.0,0.0,0.0,0.0,0.0,0.0,0.0,0.0,0.0,0.0,0.0,0.0,0.0,0.0,0.0,0.0,0.0,0.0,0.0,0.0,0.0,0.0,0.0,0.0,0.0,0.0,0.0,0.0,0.0,0.0,0.0,0.0,0.0,0.0,0.0,0.0,0.0,0.0,0.0,0.0,0.0,0.0,0.0,0.0,0.0,0.0,0.0,0.0,0.0,0.0,0.0,0.0,0.0,0.0,0.0,0.0,0.0,0.0,0.0,0.0,0.0,0.0,0.0,0.0,0.0,0.0,0.0,0.0,0.0,0.0,0.0,0.0,0.0,0.0,0.0,0.0,0.0,0.0,0.0,0.0,0.0,0.0,0.0,0.0,0.0,0.0,0.0,0.0,0.0,0.0,0.0,0.0,0.0,0.0,0.0,0.0,0.0,0.0,0.0,0.0,0.0,0.0,0.0,0.0,0.0,0.0,0.0,0.0,0.0,0.0,0.0,0.0,0.0,0.0,0.0,0.0,0.0,0.0,0.0,0.0,0.0,0.0,0.0,0.0,0.0,0.0,0.0,0.0,0.0,0.0,0.0,0.0,0.0,0.0,0.0,0.0,0.0,0.0,0.0,0.0,0.0,0.0,0.0,0.0,0.0,0.0,0.0,0.0,0.0,0.0,0.0,0.0,0.0,0.0,0.0,0.0,0.0,0.0,0.0,0.0,0.0,0.0,0.0,0.0,0.0,0.0,0.0,0.0,0.0,0.0,0.0,0.0,0.0,0.0,0.0,0.0,0.0,0.0,0.0,0.0,0.0,0.0,0.0,0.0,0.0,0.0,0.0,0.0,0.0,0.0,0.0,0.0,0.0,0.0,0.0,0.0,0.0,0.0,0.0,0.0,0.0,0.0,0.0,0.0,0.0,0.0,0.0,0.0,0.0,0.0,0.0,0.0,0.0,0.0,0.0,0.0,0.0,0.0,0.0,0.0,0.0,0.0,0.0,0.0,0.0,0.0,0.0,0.0,0.0,0.0,0.0,0.0,0.0,0.0,0.0,0.0,0.0,0.0,0.0,0.0,0.0,0.0,0.0,0.0,0.0,0.0,0.0,0.0,0.0,0.0,0.0,0.0,0.0,0.0,0.0,0.0,0.0,0.0,0.0,0.0,0.0,0.0,0.0,0.0,0.0,0.0,0.0,0.0,0.0,0.0,0.0,0.0,0.0,0.0,0.0,0.0,0.0,0.0,0.0,0.0,0.0,0.0,0.0,0.0,0.0,0.0,0.0,0.0,0.0,0.0,0.0,0.0,0.0,0.0,0.0,0.0,0.0,0.0,0.0,0.0,0.0,0.862,0.0,0.0,0.0,0.0,0.0,0.0,0.0,0.0,0.0,0.0,0.0,0.0,0.0,0.0,0.0,0.0,0.0,0.0,0.0,0.0,0.0,0.0,0.0,0.0,0.0,0.0,0.0,0.0,0.0,0.0,0.0,0.0,0.0,0.0,0.0,0.0,0.0,0.0,0.0,0.0,0.0,0.0,0.0,0.0,0.0,0.0,0.0,0.0,0.0,0.0,0.0,0.0,0.0,0.0,0.0,0.0,0.0,0.0,0.0,0.0,0.0,0.0,0.0,0.0,0.0,0.0,0.0,0.0,0.0,0.0,0.0,0.0,0.0,0.0,0.0,0.0,0.0,0.0,0.0,0.0,0.0,0.0,0.0,0.0,0.0,0.0,0.0,0.0,0.0,0.0,0.0,0.0,0.0,0.0,0.0,0.0,0.0,0.0,0.0,0.0,0.0,0.0,0.0,0.0,0.0,0.0,0.0,0.0,0.0,0.0,0.906,0.9334,0.6673,0.5741,0.6759,0.0,0.0,0.0,0.0,0.0,0.0,0.0,0.0,0.0,0.0,0.0,0.0,0.0,0.0,0.0,0.0,0.0,0.0,0.0,0.0,0.0,0.0,0.0,0.0,0.0,0.0,0.0,0.0,0.0,0.0,0.0,0.0,0.0,0.0,0.0,0.0,0.0,0.0,0.0,0.0,0.0,0.0,0.0,0.0,0.0,0.0,0.0,0.0,0.0,0.0,0.0,0.0,0.0,0.0,0.0,0.0,0.0,0.0,0.0,0.0,0.0,0.0,0.0,0.0,0.0,0.0,0.0,0.0,0.0,0.0,0.0,0.0,0.0,0.0,0.0,0.0,0.0,0.0,0.0,0.0,0.0,0.0,0.0,0.0,0.0,0.0,0.0,0.0,0.0,0.0,0.0,0.0,0.0,0.0,0.0,0.0,0.0,0.0,0.0,0.0,0.0,0.0,0.0,0.0,0.0,0.0,0.0,0.0,0.0,0.0,0.0,0.0,0.537,0.3896,0.3876,0.0,0.0,0.0,0.0,0.0,0.0,0.0,0.0,0.0,0.0,0.0,0.0,0.0,0.0,0.0,0.0,0.0,0.0,0.0,0.0,0.0,0.0,0.0,0.0,0.0,0.0,0.0,0.0,0.0,0.0,0.0,0.0,0.0,0.0,0.0,0.0,0.0,0.0,0.0,0.0,0.0,0.0,0.0,0.0,0.0,0.0,0.0,0.0,0.0,0.0,0.0,0.0,0.0,0.0,0.0,0.0,0.0,0.0,0.0,0.0,0.0,0.0,0.0,0.0,0.0,0.0,0.0,0.0,0.0,0.0,0.0,0.0,0.0,0.0,0.0,0.0,0.0,0.0,0.0,0.0,0.0,0.0,0.0,0.0,0.0,0.0,0.0,0.0,0.0,0.0,0.0,0.0,0.0,0.0,0.0,0.0,0.0,0.0,0.0,0.0,0.0,0.0,0.0,0.0,0.0,0.0,0.0,0.0,0.0,0.0,0.7932,0.7558,0.5362,0.0,0.0655,0.0,0.0,0.0,0.0,0.0,0.0,0.0,0.0,0.0,0.0,0.0,0.0,0.0,0.0,0.0,0.0,0.0,0.0,0.0,0.0,0.0,0.0,0.0,0.0,0.0,0.0,0.0,0.0,0.0,0.0,0.0,0.0,0.0,0.0,0.0,0.0,0.0,0.0,0.0,0.0,0.0,0.0,0.0,0.0,0.0,0.0,0.0,0.0,0.0,0.0,0.0,0.0,0.0,0.0,0.0,0.0,0.0,0.0,0.0,0.0,0.0,0.0,0.0,0.0,0.0,0.0,0.0,0.0,0.0,0.0,0.0,0.0,0.0,0.0,0.0,0.0,0.0,0.0,0.0,0.0,0.0,0.0,0.0,0.0,0.0,0.0,0.0,0.0,0.0,0.0,0.0,0.0,0.0,0.0,0.0,0.0,0.0,0.0,0.0,0.0,0.0,0.0,0.0,0.0,0.0,0.0,0.0,0.0,0.0,0.0,0.0,0.6569,0.5298,0.4064,0.0,0.0,0.0,0.0,0.0,0.0,0.0,0.0,0.0,0.0,0.0,0.0,0.0,0.0,0.0,0.0,0.0,0.0,0.0,0.0,0.0,0.0,0.0,0.0,0.0,0.0,0.0,0.0,0.0,0.0,0.0,0.0,0.0,0.0,0.0,0.0,0.0,0.0,0.0,0.0,0.0,0.0,0.0,0.0,0.0,0.0,0.0,0.0,0.0,0.0,0.0,0.0,0.0,0.0,0.0,0.0,0.0,0.0,0.0,0.0,0.0,0.0,0.0,0.0,0.0,0.0,0.0,0.0,0.0,0.0,0.0,0.0,0.0,0.0,0.0,0.0,0.0,0.0,0.0,0.0,0.0,0.0,0.0,0.0,0.0,0.0,0.0,0.0,0.0,0.0,0.0,0.0,0.0,0.0,0.0,0.0,0.0,0.0,0.0,0.0,0.0,0.0,0.0,0.0,0.0,0.0,0.0,0.0,0.0,0.0,0.7606,0.0,0.5679,0.5176,0.4909,0.4881,0.0,0.0,0.0,0.0,0.0,0.0,0.0,0.0,0.0,0.0,0.0,0.0,0.0,0.0,0.0,0.0,0.0,0.0,0.0,0.0,0.0,0.0,0.0,0.0,0.0,0.0,0.0,0.0,0.0,0.0,0.0,0.0,0.0,0.0,0.0,0.0,0.0,0.0,0.0,0.0,0.0,0.0,0.0,0.0,0.0,0.0,0.0,0.0,0.0,0.0,0.0,0.0,0.0,0.0,0.0,0.0,0.0,0.0,0.0,0.0,0.0,0.0,0.0,0.0,0.0,0.0,0.0,0.0,0.0,0.0,0.0,0.0,0.0,0.0,0.0,0.0,0.0,0.0,0.0,0.0,0.0,0.0,0.0,0.0,0.0,0.0,0.0,0.0,0.0,0.0,0.0,0.0,0.0,0.0,0.0,0.0,0.0,0.0,0.0,0.0,0.0,0.0,0.0,0.0,0.0,0.0,0.0,0.0,0.0,0.6878,0.6227,0.5028,0.4966,0.4962,0.0,0.0,0.0,0.0,0.0,0.0,0.0,0.0,0.0,0.0,0.0,0.0,0.0,0.0,0.0,0.0,0.0,0.0,0.0,0.0,0.0,0.0,0.0,0.0,0.0,0.0,0.0,0.0,0.0,0.0,0.0,0.0,0.0,0.0,0.0,0.0,0.0,0.0,0.0,0.0,0.0,0.0,0.0,0.0,0.0,0.0,0.0,0.0,0.0,0.0,0.0,0.0,0.0,0.0,0.0,0.0,0.0,0.0,0.0,0.0,0.0,0.0,0.0,0.0,0.0,0.0,0.0,0.0,0.0,0.0,0.0,0.0,0.0,0.0,0.0,0.0,0.0,0.0,0.0,0.0,0.0,0.0,0.0,0.0,0.0,0.0,0.0,0.0,0.0,0.0,0.0,0.0,0.0,0.0,0.0,0.0,0.0,0.0,0.0,0.0,0.0,0.0,0.0,0.0,0.0,0.0,0.0,0.0,0.0,0.7793,0.7242,0.6527,0.5679,0.4827,0.4428,0.0,0.0,0.0,0.0,0.0,0.0,0.0,0.0,0.0,0.0,0.0,0.0,0.0,0.0,0.0,0.0,0.0,0.0,0.0,0.0,0.0,0.0,0.0,0.0,0.0,0.0,0.0,0.0,0.0,0.0,0.0,0.0,0.0,0.0,0.0,0.0,0.0,0.0,0.0,0.0,0.0,0.0,0.0,0.0,0.0,0.0,0.0,0.0,0.0,0.0,0.0,0.0,0.0,0.0,0.0,0.0,0.0,0.0,0.0,0.0,0.0,0.0,0.0,0.0,0.0,0.0,0.0,0.0,0.0,0.0,0.0,0.0,0.0,0.0,0.0,0.0,0.0,0.0,0.0,0.0,0.0,0.0,0.0,0.0,0.0,0.0,0.0,0.0,0.0,0.0,0.0,0.0,0.0,0.0,0.0,0.0,0.0,0.0,0.0,0.0,0.0,0.0,0.0,0.0,0.0,0.0,0.0,0.0,0.0,0.7518,0.0,0.6249,0.0,0.4421,0.4037,0.0,0.0,0.0,0.0,0.0,0.0,0.0,0.0,0.0,0.0,0.0,0.0,0.0,0.0,0.0,0.0,0.0,0.0,0.0,0.0,0.0,0.0,0.0,0.0,0.0,0.0,0.0,0.0,0.0,0.0,0.0,0.0,0.0,0.0,0.0,0.0,0.0,0.0,0.0,0.0,0.0,0.0,0.0,0.0,0.0,0.0,0.0,0.0,0.0,0.0,0.0,0.0,0.0,0.0,0.0,0.0,0.0,0.0,0.0,0.0,0.0,0.0,0.0,0.0,0.0,0.0,0.0,0.0,0.0,0.0,0.0,0.0,0.0,0.0,0.0,0.0,0.0,0.0,0.0,0.0,0.0,0.0,0.0,0.0,0.0,0.0,0.0,0.0,0.0,0.0,0.0,0.0,0.0,0.0,0.0,0.0,0.0,0.0,0.0,0.0,0.0,0.0,0.0,0.0,0.0,0.0,0.0,0.0,0.6124,0.5859,0.6244,0.5376,0.3001,0.3761,0.381,0.0,0.0,0.0,0.0,0.0,0.0,0.0,0.0,0.0,0.0,0.0,0.0,0.0,0.0,0.0,0.0,0.0,0.0,0.0,0.0,0.0,0.0,0.0,0.0,0.0,0.0,0.0,0.0,0.0,0.0,0.0,0.0,0.0,0.0,0.0,0.0,0.0,0.0,0.0,0.0,0.0,0.0,0.0,0.0,0.0,0.0,0.0,0.0,0.0,0.0,0.0,0.0,0.0,0.0,0.0,0.0,0.0,0.0,0.0,0.0,0.0,0.0,0.0,0.0,0.0,0.0,0.0,0.0,0.0,0.0,0.0,0.0,0.0,0.0,0.0,0.0,0.0,0.0,0.0,0.0,0.0,0.0,0.0,0.0,0.0,0.0,0.0,0.0,0.0,0.0,0.0,0.0,0.0,0.0,0.0,0.0,0.0,0.0,0.0,0.0,0.0,0.0,0.0,0.0,0.0,0.0,0.0,0.0,0.0,0.6322,0.6546,0.6271,0.5342,0.4101,0.3428,0.0,0.0,0.0,0.0,0.0,0.0,0.0,0.0,0.0,0.0,0.0,0.0,0.0,0.0,0.0,0.0,0.0,0.0,0.0,0.0,0.0,0.0,0.0,0.0,0.0,0.0,0.0,0.0,0.0,0.0,0.0,0.0,0.0,0.0,0.0,0.0,0.0,0.0,0.0,0.0,0.0,0.0,0.0,0.0,0.0,0.0,0.0,0.0,0.0,0.0,0.0,0.0,0.0,0.0,0.0,0.0,0.0,0.0,0.0,0.0,0.0,0.0,0.0,0.0,0.0,0.0,0.0,0.0,0.0,0.0,0.0,0.0,0.0,0.0,0.0,0.0,0.0,0.0,0.0,0.0,0.0,0.0,0.0,0.0,0.0,0.0,0.0,0.0,0.0,0.0,0.0,0.0,0.0,0.0,0.0,0.0,0.0,0.0,0.0,0.0,0.0,0.0,0.0,0.0,0.0,0.0,0.0,0.0,0.0,0.5227,0.5569,0.5494,0.503,0.3622,0.3041,0.3402,0.0,0.0,0.0,0.0,0.0,0.0,0.0,0.0,0.0,0.0,0.0,0.0,0.0,0.0,0.0,0.0,0.0,0.0,0.0,0.0,0.0,0.0,0.0,0.0,0.0,0.0,0.0,0.0,0.0,0.0,0.0,0.0,0.0,0.0,0.0,0.0,0.0,0.0,0.0,0.0,0.0,0.0,0.0,0.0,0.0,0.0,0.0,0.0,0.0,0.0,0.0,0.0,0.0,0.0,0.0,0.0,0.0,0.0,0.0,0.0,0.0,0.0,0.0,0.0,0.0,0.0,0.0,0.0,0.0,0.0,0.0,0.0,0.0,0.0,0.0,0.0,0.0,0.0,0.0,0.0,0.0,0.0,0.0,0.0,0.0,0.0,0.0,0.0,0.0,0.0,0.0,0.0,0.0,0.0,0.0,0.0,0.0,0.0,0.0,0.0,0.0,0.0,0.0,0.0,0.0,0.0,0.0,0.0,0.296,0.3505,0.3407,0.2588,0.2422,0.2543,0.0,0.0,0.0,0.0,0.0,0.0,0.0,0.0,0.0,0.0,0.0,0.0,0.0,0.0,0.0,0.0,0.0,0.0,0.0,0.0,0.0,0.0,0.0,0.0,0.0,0.0,0.0,0.0,0.0,0.0,0.0,0.0,0.0,0.0,0.0,0.0,0.0,0.0,0.0,0.0,0.0,0.0,0.0,0.0,0.0,0.0,0.0,0.0,0.0,0.0,0.0,0.0,0.0,0.0,0.0,0.0,0.0,0.0,0.0,0.0,0.0,0.0,0.0,0.0,0.0,0.0,0.0,0.0,0.0,0.0,0.0,0.0,0.0,0.0,0.0,0.0,0.0,0.0,0.0,0.0,0.0,0.0,0.0,0.0,0.0,0.0,0.0,0.0,0.0,0.0,0.0,0.0,0.0,0.0,0.0,0.0,0.0,0.0,0.0,0.0,0.0,0.0,0.0,0.0,0.0,0.0,0.0,0.0,0.0,0.1291,0.1964,0.2401,0.2457,0.1297,0.0705,0.0,0.0,0.0,0.0,0.0,0.0,0.0,0.0,0.0,0.0,0.0,0.0,0.0,0.0,0.0,0.0,0.0,0.0,0.0,0.0,0.0,0.0,0.0,0.0,0.0,0.0,0.0,0.0,0.0,0.0,0.0,0.0,0.0,0.0,0.0,0.0,0.0,0.0,0.0,0.0,0.0,0.0,0.0,0.0,0.0,0.0,0.0,0.0,0.0,0.0,0.0,0.0,0.0,0.0,0.0,0.0,0.0,0.0,0.0,0.0,0.0,0.0,0.0,0.0,0.0,0.0,0.0,0.0,0.0,0.0,0.0,0.0,0.0,0.0,0.0,0.0,0.0,0.0,0.0,0.0,0.0,0.0,0.0,0.0,0.0,0.0,0.0,0.0,0.0,0.0,0.0,0.0,0.0,0.0,0.0,0.0,0.0,0.0,0.0,0.0,0.0,0.0,0.0,0.0,0.0,0.0,0.0,0.0,0.1252,0.1178,0.0763,0.0938,0.1815,0.1084,0.0456,0.0,0.0,0.0,0.0,0.0,0.0,0.0,0.0,0.0,0.0,0.0,0.0,0.0,0.0,0.0,0.0,0.0,0.0,0.0,0.0,0.0,0.0,0.0,0.0,0.0,0.0,0.0,0.0,0.0,0.0,0.0,0.0,0.0,0.0,0.0,0.0,0.0,0.0,0.0,0.0,0.0,0.0,0.0,0.0,0.0,0.0,0.0,0.0,0.0,0.0,0.0,0.0,0.0,0.0,0.0,0.0,0.0,0.0,0.0,0.0,0.0,0.0,0.0,0.0,0.0,0.0,0.0,0.0,0.0,0.0,0.0,0.0,0.0,0.0,0.0,0.0,0.0,0.0,0.0,0.0,0.0,0.0,0.0,0.0,0.0,0.0,0.0,0.0,0.0,0.0,0.0,0.0,0.0,0.0,0.0,0.0,0.0,0.0,0.0,0.0,0.0,0.0,0.0,0.0,0.0,0.0,0.0,0.0,0.1525,0.1959,0.0047,-0.0434,0.0691,0.1208,0.1045,0.0,0.0,0.0,0.0,0.0,0.0,0.0,0.0,0.0,0.0,0.0,0.0,0.0,0.0,0.0,0.0,0.0,0.0,0.0,0.0,0.0,0.0,0.0,0.0,0.0,0.0,0.0,0.0,0.0,0.0,0.0,0.0,0.0,0.0,0.0,0.0,0.0,0.0,0.0,0.0,0.0,0.0,0.0,0.0,0.0,0.0,0.0,0.0,0.0,0.0,0.0,0.0,0.0,0.0,0.0,0.0,0.0,0.0,0.0,0.0,0.0,0.0,0.0,0.0,0.0,0.0,0.0,0.0,0.0,0.0,0.0,0.0,0.0,0.0,0.0,0.0,0.0,0.0,0.0,0.0,0.0,0.0,0.0,0.0,0.0,0.0,0.0,0.0,0.0,0.0,0.0,0.0,0.0,0.0,0.0,0.0,0.0,0.0,0.0,0.0,0.0,0.0,0.0,0.0,0.0,0.0,0.0,0.0,0.2478,0.1994,0.0984,0.0195,-0.0333,0.0097,0.0628,0.0,0.0,0.0,0.0,0.0,0.0,0.0,0.0,0.0,0.0,0.0,0.0,0.0,0.0,0.0,0.0,0.0,0.0,0.0,0.0,0.0,0.0,0.0,0.0,0.0,0.0,0.0,0.0,0.0,0.0,0.0,0.0,0.0,0.0,0.0,0.0,0.0,0.0,0.0,0.0,0.0,0.0,0.0,0.0,0.0,0.0,0.0,0.0,2.0078,0.0,0.0,0.0,0.0,0.0,0.0,0.0,0.0,0.0,0.0,0.0,0.0,0.0,0.0,0.0,0.0,0.0,0.0,0.0,0.0,0.0,0.0,0.0,0.0,0.0,0.0,0.0,0.0,0.0,0.0,0.0,0.0,0.0,0.0,0.0,0.0,0.0,0.0,0.0,0.0,0.0,0.0,0.0,0.0,0.0,0.0,0.0,0.0,0.0,0.0,0.0,0.0,0.0,0.0,0.0,0.0,0.0,0.0,0.0,0.366,0.3172,0.2244,0.1381,0.0596,0.033,0.0396,0.0,0.0,0.0,0.0,0.0,0.0,0.0,0.0,0.0,0.0,0.0,0.0,0.0,0.0,0.0,0.0,0.0,0.0,0.0,0.0,0.0,0.0,0.0,0.0,0.0,0.0,0.0,0.0,0.0,0.0,0.0,0.0,0.0,0.0,0.0,0.0,0.0,0.0,0.0,0.0,0.0,0.0,0.0,0.0,0.0,0.0,0.0,0.0,0.0,0.0,0.0,0.0,0.0,0.0,0.0,0.0,0.0,0.0,0.0,0.0,0.0,0.0,0.0,0.0,0.0,0.0,0.0,0.0,0.0,0.0,0.0,0.0,0.0,0.0,0.0,0.0,0.0,0.0,0.0,0.0,0.0,0.0,0.0,0.0,0.0,0.0,0.0,0.0,0.0,0.0,0.0,0.0,0.0,0.0,0.0,0.0,0.0,0.0,0.0,0.0,0.0,0.0,0.0,0.0,0.0,0.0,0.0,0.5599,0.4934,0.4867,0.3676,0.2799,0.2306,0.1179,0.0459,0.0284,0.0,0.0,0.0,0.0,0.0,0.0,0.0,0.0,0.0,0.0,0.0,0.0,0.0,0.0,0.0,0.0,0.0,0.0,0.0,0.0,0.0,0.0,0.0,0.0,0.0,0.0,0.0,0.0,0.0,0.0,0.0,0.0,0.0,0.0,0.0,0.0,0.0,0.0,1.5159,1.9474,0.0,0.0,0.0,0.0,0.0,0.0,0.0,0.0,2.0643,0.0,0.0,0.0,0.0,0.0,0.0,0.0,0.0,0.0,0.0,0.0,0.0,0.0,0.0,0.0,0.0,0.0,0.0,0.0,0.0,0.0,0.0,0.0,0.0,0.0,0.0,0.0,0.0,0.0,0.0,0.0,0.0,0.0,0.0,0.0,0.0,0.0,0.0,0.0,0.0,0.0,0.0,0.0,0.0,0.0,0.0,0.0,0.0,0.0,0.0,0.0,0.0,0.0,0.0,0.0,0.0,0.8508,0.6659,0.5977,0.6617,0.5216,0.4228,0.3644,0.2092,0.1287,0.137,0.0,0.0,0.0,0.0,0.0,0.0,0.0,0.0,0.0,0.0,0.0,0.0,0.0,0.0,0.0,0.0,0.0,0.0,0.0,0.0,0.0,0.0,0.0,0.0,0.0,0.0,0.0,0.0,0.0,0.0,0.0,0.0,0.0,0.0,0.0,0.0,0.0,0.0,0.0,2.0993,2.4146,0.0,0.0,0.0,0.0,0.0,0.0,0.0,0.0,2.0601,0.0,0.0,0.0,0.0,0.0,0.0,0.0,0.0,0.0,0.0,0.0,0.0,0.0,0.0,0.0,0.0,0.0,0.0,0.0,0.0,0.0,0.0,0.0,0.0,0.0,0.0,0.0,0.0,0.0,0.0,0.0,0.0,0.0,0.0,0.0,0.0,0.0,0.0,0.0,0.0,0.0,0.0,0.0,0.0,0.0,0.0,0.0,0.0,0.0,0.0,0.0,0.0,0.0,0.0,0.0,0.8358,0.7302,0.7082,0.7965,0.6842,0.5686,0.4642,0.3593,0.2928,0.0,0.0,0.0,0.0,0.0,0.0,0.0,0.0,0.0,0.0,0.0,0.0,0.0,0.0,0.0,0.0,0.0,0.0,0.0,0.0,0.0,0.0,0.0,0.0,0.0,0.0,0.0,0.0,0.0,0.0,0.0,0.0,0.0,0.0,0.0,0.0,0.0,0.0,0.0,0.0,2.2611,2.3694,2.5053,0.0,0.0,0.0,0.0,0.0,0.0,2.3127,2.0736,0.0,0.0,0.0,0.0,0.0,0.0,0.0,0.0,0.0,0.0,0.0,0.0,0.0,0.0,0.0,0.0,0.0,0.0,0.0,0.0,0.0,0.0,0.0,0.0,0.0,0.0,0.0,0.0,0.0,0.0,0.0,0.0,0.0,0.0,0.0,0.0,0.0,0.0,0.0,0.0,0.0,0.0,0.0,0.0,0.0,0.0,0.0,0.0,0.0,0.0,0.0,0.0,0.0,0.0,0.0,0.8104,0.7831,0.8234,0.9329,0.8368,0.7188,0.589,0.5189,0.4426,0.0,0.0,0.0,0.0,0.0,0.0,0.0,0.0,0.0,0.0,0.0,0.0,0.0,0.0,0.0,0.0,0.0,0.0,0.0,0.0,0.0,0.0,0.0,0.0,0.0,0.0,0.0,0.0,0.0,0.0,0.0,0.0,0.0,0.0,0.0,0.0,0.0,0.0,0.0,0.0,0.0,2.4167,2.5522,2.5476,0.0,0.0,0.0,0.0,2.5695,2.4505,0.0,0.0,0.0,0.0,0.0,0.0,0.0,0.0,0.0,0.0,0.0,0.0,0.0,0.0,0.0,0.0,0.0,0.0,0.0,0.0,0.0,0.0,0.0,0.0,0.0,0.0,0.0,0.0,0.0,0.0,0.0,0.0,0.0,0.0,0.0,0.0,0.0,0.0,0.0,0.0,0.0,0.0,0.0,0.0,0.0,0.0,0.0,0.0,0.0,0.0,0.0,0.0,0.0,0.0,0.0,0.0,0.8114,0.8377,0.9341,1.1025,0.9639,0.8575,0.8039,0.6432,0.508,0.0,0.0,0.0,0.0,0.0,0.0,0.0,0.0,0.0,0.0,0.0,0.0,0.0,0.0,0.0,0.0,0.0,0.0,0.0,0.0,0.0,0.0,0.0,0.0,0.0,0.0,0.0,0.0,0.0,0.0,0.0,0.0,0.0,0.0,0.0,0.0,0.0,0.0,0.0,0.0,0.0,2.7119,2.692,2.6078,2.5488,0.0,0.0,2.5615,2.5695,2.5429,0.0,0.0,0.0,0.0,0.0,0.0,0.0,0.0,0.0,0.0,0.0,0.0,0.0,0.0,0.0,0.0,0.0,0.0,0.0,0.0,0.0,0.0,0.0,0.0,0.0,0.0,0.0,0.0,0.0,0.0,0.0,0.0,0.0,0.0,0.0,0.0,0.0,0.0,0.0,0.0,0.0,0.0,0.0,0.0,0.0,0.0,0.0,0.0,0.0,0.0,0.0,0.0,0.0,0.0,0.0,0.6619,0.9436,0.9318,1.0201,1.2062,1.0964,1.0085,0.9614,0.7835,0.6447,0.0,0.0,0.0,0.0,0.0,0.0,0.0,0.0,0.0,0.0,0.0,0.0,0.0,0.0,0.0,0.0,0.0,0.0,0.0,0.0,0.0,0.0,0.0,0.0,0.0,0.0,0.0,0.0,0.0,0.0,0.0,0.0,0.0,0.0,0.0,0.0,0.0,0.0,0.0,0.0,0.0,0.0,2.8318,2.7507,0.0,0.0,0.0,2.676,2.5839,0.0,0.0,0.0,0.0,0.0,0.0,0.0,0.0,0.0,0.0,0.0,0.0,0.0,0.0,0.0,0.0,0.0,0.0,0.0,0.0,0.0,0.0,0.0,0.0,0.0,0.0,0.0,0.0,0.0,0.0,0.0,0.0,0.0,0.0,0.0,0.0,0.0,0.0,0.0,0.0,0.0,0.0,0.0,0.0,0.0,0.0,0.0,0.0,0.0,0.0,0.0,0.0,0.0,0.0,0.0,0.0,0.0,1.0751,1.044,1.1133,1.2942,1.235,1.1681,1.1048,0.9347,0.0,0.0,0.0,0.0,0.0,0.0,0.0,0.0,0.0,0.0,0.0,0.0,0.0,0.0,0.0,0.0,0.0,0.0,0.0,0.0,0.0,0.0,0.0,0.0,0.0,0.0,0.0,0.8708,0.0,0.0,0.0,0.0,0.0,0.0,0.0,0.0,0.0,0.0,0.0,0.0,0.0,0.0,2.9788,3.0006,2.9196,2.8635,0.0,0.0,2.842,2.7168,2.6487,2.3965,0.0,0.0,0.0,0.0,0.0,0.0,0.0,0.0,0.0,0.0,0.0,0.0,0.0,0.0,0.0,0.0,0.0,0.0,0.0,0.0,0.0,0.0,0.0,0.0,0.0,0.0,0.0,0.0,0.0,0.0,0.0,0.0,0.0,0.0,0.0,0.0,0.0,0.0,0.0,0.0,0.0,0.0,0.0,0.0,0.0,0.0,0.0,0.0,0.0,0.0,0.0,0.0,0.0,0.0,0.0,1.1402,1.1616,1.2412,1.3935,1.3879,1.342,1.2537,1.0983,0.9301,0.0,0.0,0.0,0.0,0.0,0.0,0.0,0.0,0.0,0.0,0.0,0.0,0.0,0.0,0.0,0.0,0.0,0.0,0.0,0.0,0.0,0.0,0.0,0.0,0.0,0.0,0.0,0.0,0.0,0.0,0.0,0.0,0.0,0.0,0.0,0.0,0.0,0.0,0.0,0.0,0.0,3.1841,3.2221,3.1122,3.0282,0.0,0.0,3.0576,3.0457,2.8968,2.4855,1.612,0.0,0.0,0.0,0.0,0.0,0.0,0.0,0.0,0.0,0.0,0.0,0.0,0.0,0.0,0.0,0.0,0.0,0.0,0.0,0.0,0.0,0.0,0.0,0.0,0.0,0.0,0.0,0.0,0.0,0.0,0.0,0.0,0.0,0.0,0.0,0.0,0.0,0.0,0.0,0.0,0.0,0.0,0.0,0.0,0.0,0.0,0.0,0.0,0.0,0.0,0.0,0.0,0.0,0.8678,1.2278,1.2224,1.3159,1.5099,1.4676,1.4345,1.4328,1.2528,1.0898,0.0,0.0,0.0,0.0,0.0,0.0,0.0,0.0,0.0,0.0,0.0,0.0,0.0,0.0,0.0,0.0,0.0,0.0,0.0,0.0,0.0,0.0,0.0,0.0,0.0,0.0,0.0,0.0,0.856,0.7471,0.5742,0.0,0.0,0.0,0.0,0.0,0.0,0.0,0.0,0.0,0.0,3.1582,3.2536,3.2546,0.0,0.0,2.9959,2.9855,3.0677,3.0179,2.6797,1.8329,1.1319,0.0,0.0,0.0,0.0,0.0,0.0,0.0,0.0,0.0,0.0,0.0,0.0,0.0,0.0,0.0,0.0,0.0,0.0,0.0,0.0,0.0,0.0,0.0,0.0,0.0,0.0,0.0,0.0,0.0,0.0,0.0,0.0,0.0,0.0,0.0,0.0,0.0,0.0,0.0,0.0,0.0,0.0,0.0,0.0,0.0,0.0,0.0,0.0,0.0,0.0,0.0,0.0,0.9248,1.2818,1.3124,1.4241,1.6307,1.6008,1.5869,1.584,1.4211,1.268,0.0,0.0,0.0,0.0,0.0,0.0,0.0,0.0,0.0,0.0,0.0,0.0,0.0,0.0,0.0,0.0,0.0,0.0,0.0,0.0,0.0,0.0,0.0,0.0,0.0,0.0,0.0,0.0,0.9937,0.8606,0.6173,0.0,0.0,0.0,0.0,0.0,0.0,0.0,0.0,0.0,0.0,3.1288,3.29,3.3397,3.2856,3.0706,2.8926,2.8121,2.9026,3.003,2.7557,1.8294,0.0,0.0,0.0,0.0,0.0,0.0,0.0,0.0,0.0,0.0,0.0,0.0,0.0,0.0,0.0,0.0,0.0,0.0,0.0,0.0,0.0,0.0,0.0,0.0,0.0,0.0,0.0,0.0,0.0,0.0,0.9466,0.0,0.0,0.0,0.0,0.0,0.0,0.0,0.0,0.0,0.0,0.0,0.0,0.0,0.0,0.0,0.0,0.0,0.0,0.0,0.0,0.0,0.0,0.9883,1.2925,1.4437,1.5906,1.7312,1.8239,1.8163,1.7199,1.6242,1.4646,1.2413,0.0,0.0,0.0,0.0,0.0,0.0,0.0,0.0,0.0,0.0,0.0,0.0,0.0,0.0,0.0,0.0,0.0,0.0,0.0,0.0,0.0,0.0,0.0,0.0,0.0,0.0,1.249,1.069,0.8751,0.0,0.0,0.0,0.0,0.0,0.0,0.0,0.0,0.0,0.0,2.8681,3.1292,3.3455,3.355,3.2546,3.0681,2.766,2.551,2.5309,2.832,2.6717,0.0,0.0,0.0,0.0,0.0,0.0,0.0,0.0,0.0,0.0,0.0,0.0,0.0,0.0,0.0,0.0,0.0,0.0,0.0,0.0,0.0,0.0,0.0,0.0,0.0,0.0,0.0,0.9172,0.9043,0.0,0.0,0.0,0.0,0.0,0.0,0.0,0.0,0.0,0.0,0.0,1.1823,1.2775,0.0,0.0,0.0,0.0,0.0,0.0,0.0,0.0,0.0,0.0,0.0,0.0,1.0029,1.2862,1.4753,1.6544,1.8269,1.8946,1.8976,1.848,1.7968,1.6227,1.301,0.0,0.0,0.0,0.0,0.0,0.0,0.0,0.0,0.0,0.0,0.0,0.0,0.0,0.0,0.0,0.0,0.0,0.0,0.0,0.0,0.0,0.0,0.0,0.0,0.0,1.555,0.0,0.0,0.0,0.0,0.0,0.0,0.0,0.0,0.0,0.0,0.0,1.8901,2.2347,2.5406,2.8082,3.0147,2.9847,2.9547,0.0,0.0,0.0,0.0,0.0,0.0,0.0,0.0,0.0,0.0,0.0,0.0,0.0,0.0,-2.2296,-2.2061,-1.7171,-1.3801,-1.6052,0.0,0.0,0.0,0.0,0.0,0.0,0.0,0.0,0.0,0.0,0.0,0.0,0.0,0.0,1.0406,0.0,1.0318,0.0,0.0,0.0,0.0,0.0,0.0,0.0,0.0,1.1829,1.2938,1.3807,1.4999,1.5424,0.0,1.4853,1.3396,0.0,0.0,0.0,0.0,0.0,0.0,0.0,0.0,1.0951,1.3548,1.55,1.745,1.9309,1.9886,2.022,2.0301,1.9065,1.6865,1.3763,1.1676,0.9329,0.0,0.0,0.0,0.0,0.0,0.0,0.0,0.0,0.0,0.0,0.0,0.0,0.0,0.0,0.0,0.0,0.0,0.0,0.0,0.0,0.0,0.0,0.0,1.5645,0.0,0.0,0.0,0.0,0.0,0.0,0.0,0.0,0.0,1.8548,1.9418,2.0578,2.287,2.4707,2.6313,2.7657,0.0,0.0,0.0,0.0,0.0,0.0,0.0,1.8894,1.2882,1.0712,0.8401,0.4374,-0.1906,-0.863,-1.5301,0.0,0.0,-2.3642,-2.0577,-1.8439,-1.9574,-1.8064,-1.6283,-1.5261,-1.5059,-1.4945,0.0,0.0,0.0,0.0,0.0,0.0,0.0,0.0,1.1659,1.1929,0.0,1.206,0.0,0.0,0.0,0.0,0.0,1.142,0.0,0.0,1.4342,1.5429,1.5414,1.6411,1.6978,1.7027,1.7528,1.703,1.5591,1.2183,0.0,0.0,0.0,0.0,0.0,0.0,1.2592,1.4871,1.6722,1.8586,2.0433,2.1084,2.1813,2.2534,1.9509,1.6848,1.4757,1.3665,1.2069,0.9838,0.9553,0.0,0.0,0.0,0.0,0.0,0.0,0.0,0.0,0.0,0.0,0.0,0.0,0.0,0.0,0.0,0.0,0.0,0.0,0.0,0.0,1.4209,0.0,0.0,0.0,0.0,0.0,0.0,0.0,0.0,0.0,0.0,2.4252,2.3619,2.3624,2.6688,0.0,0.0,0.0,0.0,2.3978,2.4073,2.0528,1.5775,1.0,1.3621,1.5663,1.1365,0.0,0.0,0.208,-0.5427,-1.0837,-1.1654,-1.7531,-2.2779,-2.4115,-2.3573,-2.2901,-2.2746,-2.0799,-1.888,-1.7369,-1.6963,-1.6992,0.3343,0.0,0.0,0.0,0.0,0.936,1.0318,1.1549,1.2013,1.2187,1.2246,1.2768,0.0,0.0,0.0,0.0,0.0,0.0,1.3962,1.4649,1.5831,1.6754,1.7517,1.8111,1.8621,1.9108,1.8722,1.8182,1.7586,1.6177,1.3906,1.0866,0.0,0.0,0.0,0.0,1.3626,1.5403,1.7452,1.9249,2.0712,2.1532,2.2189,2.261,2.0542,1.8906,1.7866,1.5478,1.3576,1.2214,1.1011,0.0,0.0,0.0,0.0,0.0,0.0,0.0,0.0,0.0,0.0,0.0,0.0,0.0,0.0,0.0,0.0,0.0,0.0,0.0,1.3179,1.3955,1.5046,0.0,0.0,0.0,0.0,0.0,0.0,0.0,0.0,0.0,2.5791,2.5388,2.4946,0.0,0.0,2.5158,2.525,2.3603,2.2088,2.1315,0.0,0.0,0.0,1.1764,1.3055,1.142,0.8836,0.5487,0.081,-0.2834,-0.7026,-1.2806,-1.5447,-1.7969,-2.2241,-2.3638,-2.3119,-2.1509,-2.0526,-1.9839,-1.9053,-1.8424,-1.8103,0.2004,0.398,0.5682,0.711,0.8311,0.9032,1.009,1.1289,1.1809,1.2159,1.2384,1.3035,1.3166,1.2961,1.3771,0.0,0.0,0.0,1.6114,1.6892,1.7722,1.8371,1.8935,1.9389,1.9774,2.0067,1.9434,1.8946,1.8721,1.8051,1.6417,1.3848,0.0,0.0,1.2291,1.3883,1.5393,1.6766,1.8317,1.9781,2.1139,2.2161,2.2643,2.2581,2.1258,2.0104,1.9157,1.7176,1.523,1.3467,1.2783,1.1368,0.0,0.0,0.0,0.0,0.0,0.0,0.0,0.0,0.0,0.0,0.0,0.6812,0.6048,0.0,0.0,0.0,1.196,1.4417,1.7694,1.7012,0.0,0.0,0.0,0.0,0.0,0.0,0.0,2.1817,2.2021,2.3363,2.6552,2.68,2.6617,2.6392,2.5705,2.5072,2.4653,0.0,2.0822,1.9602,1.6673,1.351,1.0515,1.0596,1.0793,0.9818,0.7485,0.4224,0.0223,-0.1779,-0.5205,-1.1311,-1.3945,-1.5647,-1.8708,-2.0646,-2.1413,-1.9576,-1.941,-1.9749,-1.983,-1.9318,-1.8903,0.0921,0.2604,0.4721,0.6448,0.7785,0.8587,0.9679,1.0982,1.1093,1.1734,1.272,1.2871,1.3622,1.4851,1.6088,0.0,1.7426,1.7988,1.8385,1.8811,1.9852,2.0139,1.9852,2.0361,2.0523,2.0233,1.9823,1.9448,1.915,1.8366,1.7699,1.7239,1.698,1.6518,1.5901,1.6563,1.7504,1.8564,1.9225,2.027,2.1718,2.2859,2.3169,2.2673,2.1751,2.062,1.9345,1.8695,1.7098,1.4344,1.4725,1.3187,0.9244,0.0,0.0,0.0,0.0,0.0,0.0,0.0,0.0,0.0,0.0,0.0,0.0,0.0,0.0,0.0,1.4782,0.0,2.4253,2.1983,0.0,0.0,0.0,2.3336,2.147,2.3803,2.5222,2.4422,0.0,0.0,2.6846,0.0,2.8389,2.7053,2.6442,2.571,2.454,2.24,2.0282,1.9007,1.623,1.3565,1.1341,1.0263,0.9081,0.7419,0.5801,0.3603,0.008,-0.1894,-0.4756,-0.9623,-1.282,-1.4682,-1.4298,-1.6468,-1.7797,-1.7341,-1.7887,-1.8866,-1.9723,-1.9551,-1.9125,0.0488,0.196,0.2971,0.4508,0.6448,0.7455,0.8364,0.9177,0.9683,1.0336,1.1044,1.2061,1.392,1.6384,1.7236,1.8479,2.0004,2.0138,2.0492,2.1005,2.1293,2.124,2.1014,2.0939,2.0746,2.0472,2.0016,1.95,1.9028,1.8643,1.8412,1.8279,1.8044,1.7282,1.6114,1.7107,1.8113,1.9035,1.9739,2.0817,2.2203,2.3127,2.3463,2.3271,2.233,2.1431,2.07,1.9819,1.8891,1.7875,1.6398,1.5217,1.4322,1.0959,0.0,0.0,0.0,0.0,0.0,0.0,0.0,0.0,0.0,0.7241,0.9421,0.0,1.0108,0.0,1.5811,2.0923,2.4272,2.285,0.0,0.0,2.5594,2.6372,2.6299,2.7133,2.824,2.9518,2.8434,2.7595,2.7529,2.8902,2.9299,2.7724,2.7338,2.7046,2.6515,2.4143,2.1745,1.9993,1.7291,1.4739,1.2929,1.0667,0.8321,0.6263,0.5069,0.3314,-0.0084,-0.1895,-0.431,-0.8436,-1.0788,-1.2287,-1.3044,-1.4019,-1.5011,-1.594,-1.6591,-1.7247,-1.8337,-1.8332,-1.8307,0.0646,0.1965,0.2283,0.3361,0.4973,0.6123,0.6975,0.7522,0.811,0.8756,0.9502,1.1672,1.4091,1.6529,1.8183,1.9561,2.0762,2.1518,2.1906,2.1945,2.2183,2.2123,2.1759,2.1348,2.1068,2.0772,2.0169,1.9617,1.8987,1.8548,1.8398,1.8433,1.8278,1.8064,1.7804,1.8583,1.9342,1.9987,2.1097,2.2005,2.2767,2.3462,2.357,2.3005,2.1999,2.1046,2.0236,1.9151,1.8728,1.9008,1.6861,1.6013,1.697,1.2993,1.0645,0.0,0.0,0.0,0.0,0.0,0.0,0.0,0.0,0.0,0.0,0.0,1.2069,1.1356,1.792,2.3428,2.641,2.5513,2.5422,2.7179,2.8475,2.9177,2.8968,2.9353,2.9992,3.0967,2.9832,2.8557,2.758,2.8629,2.9301,2.8455,2.8247,2.8096,2.7643,2.5207,2.2603,2.0903,1.8393,1.5784,1.3658,1.0254,0.727,0.5301,0.3766,0.1923,-0.0758,-0.2398,-0.4441,-0.772,-0.9328,-1.0495,-1.1788,-1.2662,-1.363,-1.4848,-1.5774,-1.6446,-1.6878,-1.7176,-1.765,0.1005,0.2209,0.2209,0.2802,0.3693,0.4829,0.5579,0.6,0.6595,0.73,0.8253,1.1424,1.385,1.5693,1.8314,1.9859,2.05,2.2004,2.244,2.2002,2.2527,2.2563,2.2118,2.167,2.1277,2.0934,2.0347,1.9631,1.8838,1.8405,1.819,1.8112,1.8178,1.8827,2.0053,2.036,2.0825,2.1453,2.27,2.3387,2.3387,2.3717,2.3333,2.2253,2.1141,2.002,1.8852,1.7563,1.7424,1.8504,1.6574,1.6201,1.7988,1.5177,1.316,0.0,1.098,0.0,0.0,0.0,0.0,0.0,0.0,0.0,0.0,1.249,1.4512,1.285,1.9909,2.586,2.9035,2.8558,2.8704,3.032,3.1477,3.1658,3.0716,3.1067,3.1254,3.0896,3.0687,2.961,2.7283,2.7952,2.8861,2.8981,2.895,2.8732,2.8213,2.5682,2.3185,2.1737,1.9379,1.6448,1.3484,0.9637,0.6312,0.4192,0.2481,0.0414,-0.1733,-0.2982,-0.4713,-0.726,-0.8193,-0.9075,-1.0765,-1.1905,-1.2995,-1.4127,-1.5247,-1.5955,-1.5668,-1.6085,-1.6931,0.1218,0.2483,0.2427,0.2939,0.3868,0.4071,0.4358,0.4629,0.5636,0.6771,0.8011,1.0415,1.2235,1.3631,1.5935,1.7879,1.936,2.0251,2.0841,2.1247,2.1859,2.2033,2.1751,2.1806,2.1444,2.0673,2.0334,1.9495,1.8231,1.8507,1.8466,1.8147,1.8548,1.9654,2.1419,0.0,0.0,0.0,2.3751,2.3753,2.3912,2.3084,2.226,2.1424,2.0012,0.0,1.7867,1.6431,1.5894,1.6426,1.5924,0.0,0.0,0.0,0.0,0.0,0.0,0.0,0.0,0.0,0.0,0.0,1.1558,1.1493,1.1685,1.3894,1.4568,1.3061,1.9066,2.4898,2.9026,2.9063,2.9554,3.1384,3.2789,3.3365,3.2855,3.302,3.294,3.2114,3.119,2.9682,2.7594,2.81,2.8987,2.8937,2.9054,2.8816,2.786,2.5928,2.436,2.3455,1.9715,1.6317,1.4233,1.0185,0.6093,0.2928,0.1662,0.0316,-0.2056,-0.3249,-0.4668,-0.7224,-0.758,-0.8197,-1.0447,-1.1252,-1.2183,-1.3806,-1.4828,-1.5119,-1.4588,-1.4898,-1.5249,0.1725,0.0,0.2803,0.3261,0.0,0.3909,0.3985,0.4103,0.4931,0.6019,0.7359,0.9144,1.0606,1.1884,1.384,1.5603,1.7097,1.8558,1.9478,1.9852,2.0854,2.1083,2.0675,2.1061,2.0779,1.9812,1.9951,1.9433,1.8343,1.8366,1.851,1.8754,1.8694,1.9608,2.1416,2.213,2.3093,2.4374,2.4256,2.4187,2.4189,2.326,2.2247,2.1344,0.0,0.0,0.0,0.0,0.0,0.0,0.0,0.0,0.0,0.0,0.0,1.7006,1.4346,1.249,1.2022,1.0869,1.0399,1.0887,1.1613,1.2371,1.3223,1.4368,1.5119,1.541,2.0688,2.5683,2.938,3.0129,3.1297,3.3578,3.4531,3.4913,3.4717,3.4638,3.448,3.3969,3.2756,3.1564,3.0935,3.0124,2.9958,2.9868,2.9565,2.898,2.7868,2.6168,2.4212,2.1816,1.8982,1.6028,1.383,1.0231,0.5922,0.1953,0.054,-0.0384,-0.2101,-0.3902,-0.5433,-0.6802,-0.7429,-0.8416,-0.9935,-1.1201,-1.2344,-1.3683,-1.4339,-1.4033,-1.3011,-1.3243,-1.3886,0.234,0.288,0.3273,0.3682,0.4124,0.4069,0.3998,0.3996,0.0,0.0,0.0,0.7782,0.8896,1.0031,1.1736,1.3146,1.4318,1.6443,1.7645,1.7988,1.9488,1.9905,1.9516,2.0097,1.9927,1.9055,1.9485,1.9216,1.8319,1.8148,1.8418,1.8922,1.8655,1.9257,2.0842,2.2524,2.3472,2.3712,2.4357,2.4567,2.4298,2.3422,2.2405,2.1193,1.9388,1.7817,1.6521,1.6338,1.5441,1.374,1.5238,1.6829,1.8116,1.6673,1.593,1.6266,1.4553,1.2547,1.0531,1.0508,1.0297,0.9579,1.0523,1.1851,1.352,1.4302,1.5457,1.723,2.2042,2.6313,2.9455,3.0696,3.245,3.5235,3.5711,3.5902,3.613,3.5861,3.556,3.5379,3.4366,3.4034,3.4591,3.2406,3.0852,3.0896,2.9882,2.8706,2.7426,2.5334,2.2592,1.903,1.6806,1.5182,1.3052,0.9467,0.5314,0.0929,-0.0528,-0.1274,-0.2372,-0.4392,-0.6033,-0.6349,-0.751,-0.8658,-0.9742,-1.1322,-1.2869,-1.3652,-1.334,-1.251,-1.1096,-1.1135,-1.1903,0.2701,0.368,0.3677,0.4027,0.4514,0.4517,0.4375,0.4232,0.4528,0.504,0.5786,0.6366,0.6922,0.7517,0.9106,1.0339,1.125,1.2987,1.4312,0.0,1.7175,1.8267,1.8787,1.9661,1.9703,1.9059,1.9218,1.8529,1.7386,1.806,1.8118,1.7585,1.8388,1.9371,2.0261,2.1568,2.2161,2.2091,2.3971,2.4582,2.3904,2.2921,2.164,2.0004,1.8748,1.7653,1.6779,1.7101,1.6708,1.5543,1.7665,1.9304,2.0004,1.8433,1.7594,1.7696,1.5014,1.2961,1.2086,0.9947,0.8818,0.9255,0.9094,0.9916,1.2193,1.3591,1.4655,1.5543,2.0188,2.4549,2.77,2.9183,3.1051,3.3753,3.4884,3.5703,3.67,3.632,3.565,3.5008,3.5195,3.5224,3.5081,3.2741,3.0702,3.065,2.8878,2.7297,2.511,2.2734,2.0062,1.7016,1.4636,1.314,1.1713,0.7865,0.3841,0.0599,-0.1246,-0.2334,-0.2876,-0.4486,-0.5889,-0.636,-0.7152,-0.8138,-0.9312,-1.124,-1.2336,-1.2632,-1.1306,-0.9564,-0.8713,-0.8504,-0.8819,0.3365,0.4004,0.4262,0.4505,0.4766,0.4707,0.4628,0.4486,0.457,0.4868,0.5377,0.5834,0.6113,0.6301,0.736,0.83,0.9234,1.0859,1.2346,1.3776,1.5472,1.663,1.7272,1.8497,1.8646,1.7879,1.8372,1.8054,1.7164,1.7482,1.7821,1.8112,1.8871,1.9368,1.9687,2.0341,2.0649,2.0656,2.2408,2.3161,2.2889,2.2173,2.1463,2.0727,1.9553,1.8724,1.8355,1.9185,1.8921,1.727,2.003,2.1816,2.2139,2.0367,1.8949,1.8113,1.3905,0.9972,0.6876,0.5898,0.5935,0.7206,0.6886,0.7026,0.8048,1.1001,1.3272,1.4596,1.9181,2.3474,2.6693,2.8428,3.0594,3.3709,3.5439,3.6684,3.7241,3.6713,3.5599,3.4301,3.469,3.5211,3.5211,3.179,2.8758,2.7645,2.5855,2.4248,2.3098,1.8244,1.475,1.4248,1.1799,1.0091,0.9716,0.5943,0.2541,0.0822,-0.0711,-0.2054,-0.2875,-0.4065,-0.5126,-0.6146,-0.6942,-0.7643,-0.8365,-0.9492,-1.0638,-1.1303,-0.9653,-0.7744,-0.6511,-0.6137,-0.6625,0.4013,0.4471,0.4791,0.4938,0.4942,0.4916,0.4761,0.4625,0.4625,0.4824,0.509,0.5425,0.5487,0.5375,0.6077,0.6796,0.7709,0.937,1.093,1.2336,1.3831,1.5012,1.6101,1.7311,1.7522,1.7014,1.7577,1.7519,1.6991,1.6946,1.7497,1.8565,1.8771,1.8763,1.8512,1.9073,1.9615,2.0088,2.0917,2.1583,2.1896,2.1362,2.1225,2.1492,2.0543,2.0062,2.0381,2.1522,2.133,1.9815,2.2273,2.3795,2.3689,2.1635,1.9871,1.8339,1.2867,0.7416,0.3068,0.264,0.3388,0.4726,0.4726,0.4657,0.5015,0.7907,1.103,1.3565,1.7488,2.153,2.4885,2.6954,2.9351,3.2549,3.4921,3.6415,3.7323,3.6719,3.5121,3.3107,3.3291,3.4,3.3524,3.0014,2.6174,2.4009,2.2109,2.1194,2.049,1.4752,1.1346,1.0412,0.8606,0.706,0.7224,0.4295,0.1699,0.1197,0.007,-0.1174,-0.2244,-0.3096,-0.4077,-0.5344,-0.6246,-0.7015,-0.7411,-0.8043,-0.8946,-0.9696,-0.8096,-0.5935,-0.4303,-0.458,-0.5236,0.4505,0.5053,0.5115,0.5087,0.5124,0.5147,0.5024,0.4827,0.4761,0.4761,0.4894,0.4567,0.4492,0.4532,0.5453,0.5931,0.6241,0.8345,1.0038,1.1091,1.1977,1.3771,1.6105,1.6456,1.6746,1.7114,1.7168,1.692,1.6528,1.6824,1.718,1.7531,1.7388,1.6932,1.6463,1.8042,1.9692,2.1167,2.0283,2.0319,2.1326,2.0464,2.0464,2.157,2.1031,2.1305,2.2501,2.358,2.3785,2.3127,2.4256,2.4702,2.3785,2.1479,2.0101,1.9918,1.2886,0.7383,0.4796,0.3053,0.2221,0.2431,0.3103,0.369,0.4375,0.5093,0.7215,1.0935,1.416,1.7938,2.2375,2.3961,2.5893,2.8574,3.0838,3.3595,3.5862,3.6011,3.4182,3.0686,3.0392,3.1471,3.1776,2.724,2.2961,2.1248,1.9406,1.8095,1.7545,1.4412,1.0008,0.7387,0.5413,0.5096,0.4836,0.3018,0.1786,0.128,0.0488,-0.0409,-0.1359,-0.2578,-0.3862,-0.3983,-0.4699,-0.5844,-0.6984,-0.7629,-0.7681,-0.8012,-0.6523,-0.3992,-0.2904,-0.3215,-0.4329,0.5193,0.6197,0.6393,0.6561,0.658,0.6531,0.6334,0.6203,0.6075,0.6005,0.5873,0.5679,0.5153,0.4558,0.5094,0.5542,0.5955,0.7889,0.9486,1.0691,1.1822,1.3622,1.5833,1.6645,1.7016,1.7088,1.6964,1.6722,1.6433,1.6717,1.695,1.7047,1.7214,1.682,1.6041,1.7551,1.9836,2.2542,2.0896,2.0601,2.1724,2.1397,2.1399,2.2023,2.2463,2.3059,2.4003,2.5452,2.594,2.5316,2.6194,2.5493,2.2702,2.0898,1.9714,1.8724,1.0277,0.4687,0.3773,0.2371,0.1684,0.189,0.1694,0.1873,0.262,0.3764,0.5451,0.7461,1.0865,1.4281,1.6991,2.0895,2.3826,2.4565,2.5012,2.7253,3.2688,3.2962,3.0585,2.5068,2.5629,2.7458,2.763,2.2765,1.8731,1.7934,1.6527,1.4993,1.4089,1.1826,0.9094,0.6117,0.4828,0.4628,0.4448,0.3916,0.298,0.2197,0.0975,-0.0135,-0.0605,-0.1747,-0.2891,-0.3165,-0.4242,-0.55,-0.695,-0.6292,-0.5854,-0.6037,-0.381,-0.0924,-0.0635,-0.1244,-0.162,0.5789,0.6992,0.7466,0.7703,0.7767,0.7577,0.7447,0.7312,0.712,0.7051,0.7107,0.6911,0.6453,0.5796,0.5675,0.5944,0.6476,0.8033,0.9522,1.088,1.2118,1.3802,1.5752,1.6964,1.7426,1.7255,1.7019,1.6798,1.6678,1.689,1.7034,1.71,1.7258,1.7178,1.6859,1.8009,2.0007,2.2415,2.1578,2.166,2.2606,2.2822,2.2767,2.2703,2.3457,2.4318,2.517,2.6822,2.7625,2.7282,2.7688,2.5744,2.1224,2.0515,1.879,1.4848,0.7189,0.2439,0.2524,0.1778,0.1293,0.1251,0.0708,0.053,0.1114,0.2501,0.3754,0.4743,0.73,0.9604,1.2041,1.6927,2.0029,2.0014,1.8965,2.0967,2.6977,2.8353,2.5938,1.9729,2.058,2.2261,2.1929,1.7931,1.4612,1.5213,1.376,1.212,1.1283,0.9846,0.785,0.5605,0.4886,0.4652,0.4764,0.429,0.3804,0.2699,0.1095,-0.047,-0.0403,-0.1479,-0.3055,-0.4133,-0.4762,-0.5315,-0.6237,-0.5517,-0.382,-0.4008,-0.1617,0.1592,0.0964,0.095,0.1831,0.6248,0.7447,0.7978,0.8195,0.8027,0.7832,0.7772,0.7897,0.7577,0.7702,0.814,0.8001,0.8115,0.8361,0.7627,0.7321,0.7752,0.9087,1.0412,1.1697,1.2639,1.4073,1.6113,1.7331,1.7865,1.7644,1.7352,1.7262,1.7417,1.7515,1.7739,1.7797,1.7255,1.7566,1.857,1.9397,2.0231,2.1372,2.2501,2.3468,2.3852,2.4488,2.4257,2.3288,2.3616,2.4733,2.6206,2.7472,2.8417,2.9266,2.8409,2.524,1.9899,2.04,1.6923,0.8306,0.3758,0.1658,0.1629,0.1416,0.097,0.0302,0.0184,0.0188,-0.0195,0.0835,0.2035,0.3406,0.3614,0.4956,0.7537,1.1059,1.4069,1.5241,1.382,1.5514,2.0253,2.2211,2.044,1.6402,1.6066,1.6483,1.5255,1.3116,1.2413,1.2567,1.1502,1.0413,1.0292,0.9127,0.7459,0.6063,0.539,0.5272,0.4686,0.4251,0.3608,0.2192,0.034,-0.1342,-0.1411,-0.1902,-0.3568,-0.4963,-0.5329,-0.556,-0.5761,-0.4635,-0.2586,-0.1026,0.1644,0.3579,0.2801,0.4106,0.448,0.8489,0.958,0.9554,0.9703,0.9888,0.9767,0.9824,1.0116,0.9799,0.9806,0.9933,0.9673,0.9857,1.0355,0.999,0.936,0.872,1.0066,1.1192,1.2063,1.343,1.4953,1.6529,1.7733,1.8275,1.8183,1.8035,1.773,1.7399,1.7291,1.7465,1.7744,1.7778,1.823,1.8955,1.9541,2.0865,2.2932,2.2945,2.3094,2.4015,2.4714,2.4731,2.4123,2.5333,2.6413,2.7204,2.8249,2.8973,2.9355,2.8409,2.4502,1.7684,1.601,1.2805,0.653,0.3088,0.1319,0.0957,0.0914,0.0626,-0.0068,-0.083,-0.139,-0.1701,-0.101,0.0137,0.1214,0.2325,0.3191,0.3422,0.49,0.6954,0.9575,0.9995,1.1035,1.4231,1.5944,1.5288,1.2799,1.3052,1.3572,1.2243,1.1131,1.0355,0.9904,0.9684,0.9471,0.8927,0.8269,0.7445,0.6293,0.6064,0.5866,0.4803,0.4289,0.334,0.1216,-0.0604,-0.1274,-0.161,-0.2083,-0.3489,-0.5047,-0.5695,-0.5209,-0.5046,-0.442,-0.2214,0.0469,0.3351,0.5011,0.4766,0.514,0.4977,1.0086,1.1164,1.0933,1.1059,1.1365,1.1296,1.1344,1.1586,1.1267,1.138,1.1648,1.1536,1.1848,1.2491,1.2414,1.1966,1.1106,1.1825,1.2348,1.2936,1.4272,1.5714,1.7273,1.8883,1.951,1.9332,1.9401,1.9078,1.8507,1.8357,1.834,1.8435,1.855,1.8726,1.9144,2.0261,2.201,2.3224,2.3312,2.3687,2.4337,2.5119,2.56,2.5711,2.6512,2.7222,2.7684,2.8479,2.9031,2.9148,2.8315,2.3609,1.5244,1.2531,0.9533,0.5242,0.2682,0.1183,0.0738,0.0685,0.0378,-0.0446,-0.1455,-0.2347,-0.278,-0.2555,-0.1862,-0.0716,0.0113,0.0576,0.0804,0.1137,0.2838,0.5965,0.6814,0.7865,1.0143,1.1056,1.0719,0.9796,1.0733,1.1069,1.03,0.9471,0.8816,0.8042,0.8481,0.8251,0.7871,0.7677,0.7354,0.637,0.6409,0.6213,0.5429,0.4801,0.2456,0.0139,-0.2204,-0.2471,-0.2342,-0.275,-0.3489,-0.5017,-0.5219,-0.4613,-0.4082,-0.3625,-0.1809,0.0804,0.3473,0.5675,0.5599,0.5547,0.5353,1.0916,1.2058,1.1887,1.205,1.229,1.2205,1.2027,1.1973,1.1826,1.2422,1.3249,1.3314,1.3907,1.4895,1.4567,1.4691,1.4757,1.4268,1.4145,1.4698,1.5235,1.6446,1.8212,2.0471,2.1272,2.0625,2.124,2.1115,2.0343,2.0404,2.0214,1.9761,1.9329,1.9197,1.904,2.1575,2.269,2.2689,2.4249,2.5112,2.4849,2.5698,2.6609,2.7262,2.6778,2.6812,2.7633,2.7988,2.8481,2.9003,2.801,2.2324,1.3196,1.0542,0.8026,0.4167,0.2154,0.1336,0.0921,0.0695,0.0052,-0.0861,-0.1734,-0.237,-0.2855,-0.3542,-0.3596,-0.2698,-0.2438,-0.2253,-0.0535,0.0633,0.224,0.432,0.478,0.5413,0.6815,0.7428,0.7448,0.7495,0.8426,0.891,0.8709,0.8266,0.7823,0.7823,0.7692,0.7532,0.7542,0.7374,0.7022,0.6681,0.6551,0.6469,0.5978,0.5113,0.1921,-0.1081,-0.3409,-0.4728,-0.4002,-0.401,-0.4284,-0.5425,-0.4165,-0.3415,-0.1227,-0.0888,-0.0878,0.1348,0.402,0.6195,0.6074,0.5971,0.5758,1.2371,1.272,1.2757,1.3053,1.3494,1.358,1.3708,1.3803,1.3897,1.4239,1.4498,1.4488,1.5088,1.5897,1.5977,1.6275,1.6905,1.7091,1.679,1.6149,1.6694,1.7819,1.9254,2.046,2.1011,2.0981,2.1095,2.098,2.0694,2.0427,2.0045,1.9952,1.9952,1.977,1.9683,2.1565,2.3075,2.4691,2.4679,2.4669,2.4842,2.5567,2.593,2.5828,2.6301,2.6814,2.7075,2.7173,2.7457,2.7958,2.7375,2.1555,1.1528,0.8806,0.7005,0.3724,0.2389,0.1556,0.0909,0.0199,-0.0439,-0.1153,-0.2055,-0.2838,-0.3268,-0.3584,-0.3865,-0.366,-0.3187,-0.2138,-0.0779,0.055,0.1916,0.323,0.3083,0.3617,0.5119,0.5748,0.5889,0.6069,0.7043,0.7265,0.7046,0.7046,0.802,0.7569,0.7627,0.7651,0.7405,0.7147,0.702,0.6939,0.689,0.6627,0.6057,0.4443,0.117,-0.2058,-0.4677,-0.5782,-0.5262,-0.5266,-0.554,-0.4384,-0.3166,-0.1258,0.091,0.1599,0.1513,0.2576,0.5336,0.6318,0.6297,0.6174,0.6006,1.3126,1.3425,1.3657,1.4127,1.4669,1.4836,1.4953,1.5148,1.5284,1.5407,1.5538,1.5707,1.6224,1.7002,1.7359,1.7802,1.8414,1.934,1.9222,1.842,1.866,1.9578,2.0593,2.1431,2.1878,2.2035,2.2185,2.204,2.1644,2.1519,2.1344,2.1247,2.1262,2.0951,2.051,2.1951,2.4076,2.6133,2.5473,2.491,2.5129,2.5354,2.5474,2.5539,2.5856,2.6056,2.609,2.5828,2.6127,2.6053,2.3378,1.6355,0.8651,0.7681,0.6266,0.3715,0.2508,0.1839,0.1028,0.0244,-0.0659,-0.132,-0.2299,-0.302,-0.3282,-0.3154,-0.3239,-0.3866,-0.2528,-0.1208,-0.0233,0.0707,0.1526,0.2094,0.2101,0.2581,0.3709,0.4483,0.4686,0.507,0.5822,0.5935,0.6047,0.7276,0.8451,0.7877,0.7711,0.7636,0.7301,0.7046,0.7064,0.6909,0.6642,0.6446,0.6146,0.3736,0.0465,-0.2801,-0.601,-0.6185,-0.5932,-0.6457,-0.6863,-0.3313,-0.1312,0.2022,0.4237,0.3781,0.365,0.5408,0.6459,0.6472,0.6498,0.6353,0.6095,1.3529,1.4145,1.4638,1.5225,1.5786,1.5901,1.5995,1.5938,1.6087,1.6323,1.6618,1.7076,1.7654,1.8297,1.8903,1.9351,1.9835,2.0658,2.1156,2.1241,2.1341,2.1627,2.2012,2.3255,2.3723,2.3735,2.4071,2.3966,2.3321,2.3451,2.3791,2.3096,2.3031,2.2512,2.1718,2.3025,2.5003,2.667,2.6127,2.5588,2.5595,2.5231,2.534,2.6059,2.5279,2.4799,2.4633,2.4187,2.4572,2.4837,1.6536,1.0495,0.8328,0.7258,0.565,0.3095,0.2541,0.1937,0.1219,0.0475,-0.0339,-0.1485,-0.2287,-0.29,-0.2891,-0.2016,-0.186,-0.2969,-0.1413,0.0071,0.0537,0.1022,0.1449,0.1599,0.1939,0.2416,0.3064,0.3714,0.4186,0.4296,0.4819,0.5802,0.6303,0.8046,0.8587,0.8758,0.8532,0.8166,0.7859,0.7696,0.6995,0.6805,0.6845,0.4613,0.3895,0.3495,0.0258,-0.2904,-0.5611,-0.568,-0.5879,-0.6555,-0.5778,-0.2299,0.119,0.4638,0.6343,0.5752,0.561,0.6429,0.6897,0.6798,0.6578,0.6335,0.5927,1.4945,1.5459,1.5989,1.6343,1.6627,1.7112,1.7313,1.7435,1.7857,1.8157,1.8463,1.8637,1.9171,2.0123,2.0092,2.0562,2.1365,2.1999,2.2523,2.2983,2.36,2.3512,2.3477,2.4271,2.4683,2.4541,2.4489,2.4443,2.4313,2.3935,2.3787,2.4014,2.4,2.3421,2.2651,2.4086,2.5673,2.6732,2.5912,2.5597,2.5886,2.5093,2.4498,2.4179,2.4109,2.3695,2.322,2.2993,2.2243,2.0837,1.3257,0.8154,0.7499,0.7053,0.5657,0.3368,0.2373,0.1849,0.1171,0.0404,-0.0489,-0.1332,-0.1997,-0.2663,-0.2773,-0.0352,-0.0127,-0.1032,-0.0601,0.0352,0.092,0.1256,0.2114,0.3649,0.3492,0.3025,0.3089,0.3326,0.4045,0.5841,0.6571,0.7825,0.9879,1.0423,1.0618,1.0703,1.038,0.9887,0.9485,0.9107,0.8633,0.7711,0.6776,0.3452,0.1538,0.1672,0.0187,-0.2932,-0.4546,-0.4531,-0.483,-0.5363,-0.3368,-0.0404,0.3111,0.664,0.7397,0.7388,0.7582,0.7338,0.7223,0.6998,0.6517,0.6139,0.5558,1.5642,1.6218,1.674,1.7145,1.7468,1.8127,1.8375,1.8548,1.9102,1.9412,1.9609,1.9767,2.0236,2.1001,2.1158,2.1667,2.2445,2.3236,2.3869,2.4354,2.4973,2.4969,2.4742,2.5192,2.5371,2.4995,2.4916,2.4999,2.499,2.4443,2.4489,2.4872,2.4831,2.4468,2.4159,2.4859,2.6008,2.6649,2.59,2.5633,2.6231,2.4872,2.4035,2.3426,2.3106,2.222,2.1103,2.0601,1.976,1.732,1.1954,0.768,0.7077,0.6983,0.58,0.3452,0.2498,0.1723,0.1093,0.0302,-0.052,-0.1157,-0.1554,-0.1823,-0.1905,0.0058,0.0945,0.0599,0.0739,0.1182,0.1751,0.2213,0.3632,0.5464,0.5571,0.4837,0.3671,0.3799,0.5227,0.7249,0.8411,0.9638,1.3327,1.2972,1.2478,1.2096,1.1615,1.1449,1.131,1.089,1.0502,0.9787,0.7425,0.4054,0.1699,0.1359,0.1502,-0.1526,-0.2127,-0.2369,-0.2763,-0.3149,-0.1381,0.1488,0.5074,0.7707,0.8393,0.8538,0.778,0.7539,0.7358,0.6919,0.6308,0.5981,0.5417,1.5979,1.6662,1.7123,1.7733,1.8387,1.8881,1.9133,1.946,2.0039,2.0313,2.0422,2.0748,2.1331,2.1572,2.2188,2.271,2.3212,2.4248,2.5003,2.5578,2.5977,2.5983,2.5763,2.5951,2.5909,2.5465,2.5499,2.5621,2.5553,2.5363,2.555,2.5805,2.5712,2.5676,2.5545,2.5736,2.6166,2.6614,2.596,2.5931,2.6153,2.4791,2.3526,2.295,2.1555,2.0107,1.8768,1.7984,1.7369,1.6623,1.1305,0.8349,0.7261,0.7026,0.5893,0.4088,0.27,0.1715,0.1086,0.0545,-0.0199,-0.0914,-0.0479,-0.0554,-0.1144,0.0163,0.1368,0.1478,0.2066,0.2593,0.3738,0.418,0.5538,0.7413,0.8006,0.7004,0.5714,0.5279,0.6634,0.9453,1.013,1.1906,1.3964,1.4888,1.4115,1.3636,1.3268,1.3234,1.3041,1.2559,1.2483,1.2457,0.914,0.4944,0.2911,0.1354,0.1476,0.0677,0.0856,0.0761,0.0368,0.0379,0.1175,0.3332,0.6635,0.8846,0.9958,0.9504,0.8449,0.7737,0.7645,0.6728,0.5826,0.5785,0.541,1.6955,1.7479,1.8061,1.8548,1.9016,1.9344,1.9798,2.036,2.1363,2.1734,2.1902,2.2337,2.3056,2.3892,2.324,2.3679,2.5061,2.5383,2.5755,2.6835,2.7098,2.7229,2.7027,2.6701,2.6194,2.6008,2.6059,2.6096,2.612,2.605,2.6125,2.651,2.6651,2.6564,2.6029,2.6386,2.6675,2.6619,2.5869,2.6129,2.6552,2.4694,2.2821,2.1745,1.992,1.8025,1.6712,1.6859,1.6395,1.4316,1.1621,0.8961,0.7665,0.7043,0.5847,0.4076,0.277,0.1945,0.1522,0.0963,0.0521,-0.0,-0.0219,-0.0362,-0.0231,0.0996,0.1631,0.155,0.1847,0.3687,0.6848,0.7134,0.8073,0.9521,1.0187,1.0068,0.9856,0.991,1.0949,1.2538,1.3301,1.4108,1.6286,1.6703,1.602,1.5313,1.5035,1.5083,1.466,1.4156,1.4,1.3928,0.9422,0.5203,0.3214,0.2051,0.2514,0.2868,0.3297,0.3738,0.3368,0.3224,0.3773,0.5564,0.8084,0.9767,1.1075,1.0323,0.9205,0.8584,0.7795,0.6972,0.624,0.596,0.5505,1.7567,1.8193,1.8762,1.9186,1.954,1.9952,2.0602,2.1395,2.2251,2.2992,2.3514,2.3787,2.4403,2.5144,2.4235,2.4648,2.5936,2.6375,2.666,2.7378,2.7643,2.7829,2.7709,2.7364,2.7022,2.6974,2.6654,2.6699,2.6858,2.6537,2.6433,2.6989,2.7218,2.6728,2.6106,2.6539,2.6647,2.6337,2.5646,2.5872,2.6606,2.4191,2.1302,1.9578,1.796,1.6566,1.5067,1.5267,1.494,1.3619,1.1661,0.9515,0.7917,0.7309,0.6027,0.3897,0.3054,0.2262,0.1731,0.1328,0.109,0.1029,0.0486,0.0869,0.1578,0.2799,0.2934,0.2435,0.2883,0.4699,1.0423,0.9601,1.0261,1.193,1.2798,1.3026,1.2993,1.3219,1.3891,1.5278,1.5609,1.6621,1.7648,1.8123,1.7691,1.6792,1.6419,1.6353,1.5694,1.5233,1.4936,1.3579,0.9125,0.5538,0.3401,0.2838,0.3869,0.4478,0.5295,0.591,0.6184,0.6082,0.608,0.7954,0.9702,1.0785,1.1656,1.0858,0.9752,0.8764,0.7901,0.7273,0.6704,0.6186,0.5749,1.805,1.8774,1.9279,1.9643,2.0016,2.0714,2.1482,2.2278,2.3109,2.4058,2.4843,2.4901,2.5297,2.5615,2.4962,2.5248,2.6218,2.7053,2.7459,2.7934,2.8177,2.8251,2.8187,2.816,2.8102,2.8062,2.7414,2.7357,2.723,2.6966,2.6765,2.7152,2.7172,2.6722,2.6198,2.6308,2.6375,2.5828,2.5169,2.4987,2.5434,2.2942,2.0101,1.765,1.6822,1.5931,1.466,1.4217,1.3821,1.3474,1.1722,0.9765,0.8371,0.7433,0.6605,0.375,0.3313,0.273,0.211,0.1729,0.1663,0.1979,0.1604,0.1953,0.3345,0.4306,0.4529,0.4591,0.5024,0.7549,1.3299,1.234,1.2257,1.3925,1.5331,1.5709,1.5606,1.5866,1.7134,1.796,1.7889,1.8049,1.9057,1.9629,1.9033,1.8368,1.7978,1.752,1.6838,1.5992,1.5472,1.303,0.8511,0.5236,0.305,0.4419,0.531,0.6335,0.7261,0.78,0.8545,0.865,0.8692,0.9556,1.0907,1.1939,1.1747,1.0352,0.935,0.8584,0.8005,0.7419,0.688,0.641,0.6018,1.8827,1.9316,1.972,2.0118,2.0588,2.1526,2.226,2.2984,2.4497,2.5185,2.5127,2.5731,2.6064,2.6018,2.5333,2.5558,2.6569,2.73,2.7998,2.8548,2.872,2.8641,2.8872,2.8933,2.8921,2.8598,2.7997,2.7414,2.7227,2.698,2.7108,2.7202,2.7051,2.6605,2.6138,2.6065,2.5799,2.5165,2.4526,2.423,2.3458,2.1843,1.9664,1.7136,1.6664,1.59,1.4919,1.4023,1.3412,1.2911,1.1105,0.9915,0.8888,0.7804,0.6278,0.4797,0.3643,0.3082,0.276,0.2515,0.2473,0.2652,0.2713,0.319,0.4186,0.5226,0.5801,0.669,0.886,1.2123,1.3475,1.3551,1.4135,1.5479,1.6781,1.7483,1.796,1.9095,2.0582,2.1441,2.0383,1.9441,2.0641,2.1174,2.0468,1.9646,1.8823,1.8463,1.8049,1.666,1.5328,1.1995,0.7831,0.5014,0.259,0.524,0.7125,0.8285,0.9131,0.946,1.0114,1.076,1.1277,1.1409,1.186,1.2677,1.1855,1.0107,0.9206,0.8598,0.8088,0.7589,0.7045,0.6527,0.6382,1.9344,1.9862,2.0334,2.0686,2.1076,2.2111,2.2926,2.3666,2.5085,2.5857,2.6093,2.6491,2.6723,2.654,2.6272,2.6555,2.7236,2.7426,2.8255,2.8997,2.9031,2.8947,2.9304,2.9435,2.9126,2.8697,2.8196,2.7988,2.7862,2.7775,2.7525,2.7282,2.7126,2.6642,2.592,2.5715,2.533,2.4616,2.3898,2.3258,2.2551,2.0971,1.9009,1.7885,1.6977,1.6338,1.5476,1.4811,1.3782,1.2648,1.1308,1.0195,0.9155,0.8038,0.6611,0.5248,0.4237,0.3588,0.3457,0.3304,0.3488,0.3697,0.3562,0.4062,0.5304,0.6556,0.7182,0.774,1.1267,1.4786,1.5891,1.5618,1.6189,1.7491,1.8684,1.9103,1.9491,2.109,2.2677,2.3973,2.231,2.1706,2.284,2.2879,2.1981,2.0998,1.9861,1.9263,1.8893,1.7228,1.5338,1.1315,0.7539,0.5545,0.3854,0.5986,0.8469,0.9821,1.0598,1.0973,1.1304,1.1748,1.2073,1.2277,1.2889,1.2711,1.1836,1.0144,0.9369,0.8652,0.8243,0.7795,0.7158,0.6747,0.6566,1.9798,2.0446,2.0822,2.1082,2.1448,2.272,2.3603,2.434,2.5633,2.6462,2.6878,2.7093,2.7117,2.6971,2.7074,2.7379,2.7977,2.7659,2.8393,2.9163,2.8805,2.877,2.9348,2.9373,2.9108,2.8472,2.8252,2.8474,2.8384,2.8217,2.7819,2.7377,2.7226,2.67,2.5866,2.543,2.4926,2.4173,2.3238,2.2604,2.1528,2.0067,1.8745,1.8095,1.748,1.6777,1.6187,1.5571,1.4703,1.335,1.1857,1.0358,0.914,0.8174,0.71,0.5844,0.5042,0.4507,0.444,0.4311,0.464,0.4904,0.4018,0.4748,0.6171,0.7752,0.9064,0.9013,1.2032,1.6379,1.7794,1.7794,1.8221,1.9432,2.0463,2.1096,2.1073,2.2026,2.3742,2.4145,2.3356,2.3329,2.3887,2.3883,2.2907,2.1549,2.0388,1.9119,1.8567,1.7105,1.48,1.0804,0.7631,0.5993,0.5476,0.6842,0.9171,1.1023,1.1532,1.1809,1.2151,1.249,1.2597,1.2462,1.1478,1.112,1.0557,0.998,0.8721,0.8004,0.8151,0.7994,0.7371,0.6884,0.6592,2.056,2.1068,2.1046,2.1144,2.1662,2.3336,2.417,2.4547,2.6423,2.7268,2.7056,2.7372,2.7159,2.6874,2.7201,2.7312,2.7383,2.7664,2.8347,2.9246,2.8468,2.8542,2.9411,2.8988,2.8733,2.8271,2.7965,2.7948,2.8018,2.8015,2.7743,2.7257,2.6836,2.6302,2.5483,2.5025,2.4508,2.3685,2.2716,2.1357,1.9767,1.869,1.8234,1.8007,1.7469,1.7065,1.6856,1.6253,1.5442,1.5113,1.2346,1.0249,0.885,0.8135,0.7618,0.6871,0.6269,0.5816,0.6193,0.5976,0.5807,0.5972,0.5564,0.5694,0.7462,0.9477,1.1484,1.3682,1.539,1.7158,1.9184,1.9423,1.9899,2.0711,2.1637,2.2507,2.2888,2.2751,2.4456,2.5031,2.4393,2.399,2.4058,2.3959,2.3653,2.2273,2.0862,1.9544,1.7747,1.597,1.4007,1.001,0.8173,0.6613,0.6877,0.8268,0.9994,1.2067,1.2337,1.2519,1.2636,1.2708,1.2396,1.2009,1.0891,1.0245,1.0204,0.9414,0.7843,0.7543,0.7982,0.7899,0.7587,0.7118,0.6565,2.1415,2.1827,2.1779,2.2048,2.2672,2.3985,2.454,2.4947,2.6742,2.7315,2.687,2.7324,2.7395,2.7209,2.7371,2.7542,2.774,2.7627,2.8238,2.898,2.8378,2.8287,2.9064,2.9046,2.8671,2.8011,2.7767,2.7548,2.7581,2.7532,2.7431,2.6901,2.6428,2.5587,2.4873,2.4467,2.3745,2.2848,2.182,2.0753,1.973,1.8989,1.8673,1.8816,1.7855,1.753,1.7304,1.6381,1.577,1.5256,1.2862,1.0493,0.8967,0.8287,0.8163,0.8013,0.753,0.7384,0.7594,0.7263,0.7129,0.7093,0.7211,0.8041,1.0098,1.1536,1.3162,1.5311,1.6743,1.8385,1.99,2.0393,2.1067,2.1789,2.2452,2.3502,2.4189,2.4335,2.4786,2.5157,2.5366,2.4598,2.3694,2.2962,2.2919,2.2527,2.0826,1.9145,1.6548,1.3608,1.1549,0.9114,0.8088,0.749,0.8326,0.9521,1.1093,1.2684,1.2874,1.2997,1.2912,1.2823,1.2531,1.1668,1.0471,1.0029,1.0043,0.9367,0.8244,0.7983,0.7921,0.7821,0.7643,0.6835,0.6206,2.2498,2.268,2.2406,2.2672,2.3388,2.4149,2.4442,2.4733,2.6332,2.6837,2.6674,2.711,2.755,2.7594,2.7389,2.7508,2.8086,2.7633,2.8013,2.8345,2.8179,2.8089,2.8554,2.8743,2.8351,2.7565,2.7486,2.7324,2.7044,2.6836,2.6618,2.6443,2.6162,2.5152,2.4138,2.3856,2.3544,2.2299,2.1356,2.0592,1.9987,1.9357,1.9221,1.8941,1.8352,1.7667,1.7616,1.6292,1.5463,1.5037,1.3154,1.08,0.9057,0.8634,0.8717,0.87,0.8646,0.8835,0.8797,0.859,0.8337,0.8349,0.874,0.9934,1.3053,1.3672,1.3931,1.5959,1.802,1.9193,2.0166,2.1079,2.17,2.2311,2.3011,2.4218,2.5061,2.4832,2.4531,2.4518,2.4586,2.4372,2.334,2.1967,2.1764,2.2258,2.0963,1.877,1.5676,1.2174,1.051,0.8798,0.949,0.9033,0.9032,1.0371,1.2068,1.3078,1.3233,1.3214,1.2988,1.2861,1.2626,1.1528,1.0246,0.9879,0.986,0.9334,0.8736,0.8128,0.7727,0.7965,0.7675,0.6811,0.5987,2.3822,2.3595,2.2694,2.2661,2.3228,2.358,2.3869,2.4141,2.5165,2.6042,2.646,2.698,2.7321,2.738,2.7273,2.7238,2.7365,2.7422,2.7719,2.7627,2.7239,2.7504,2.7899,2.7961,2.7765,2.7634,2.7178,2.6823,2.6592,2.586,2.5837,2.5898,2.5519,2.4829,2.402,2.3402,2.3113,2.2049,2.1257,2.0498,1.9846,1.9247,1.8921,1.8782,1.801,1.7353,1.751,1.597,1.515,1.5197,1.3122,1.1235,0.9662,0.9081,0.9097,0.9437,0.9942,1.022,1.0404,0.9798,0.9411,0.9655,1.0343,1.1576,1.4638,1.4556,1.4963,1.6322,1.8844,2.0518,2.1179,2.1643,2.2153,2.2494,2.2981,2.3546,2.431,2.4832,2.4501,2.4087,2.4044,2.4304,2.2668,2.1201,2.205,2.2667,1.8683,1.6413,1.4427,1.1507,1.038,0.9625,1.1018,1.0833,0.9658,1.0702,1.2161,1.2845,1.3088,1.2963,1.2769,1.2659,1.25,1.1822,1.0697,1.0177,0.9619,0.9076,0.8506,0.779,0.7526,0.768,0.7467,0.6682,0.5941,2.381,2.4177,2.3623,2.3615,2.3879,2.4022,2.4092,2.4303,2.5129,2.5625,2.5905,2.6692,2.6916,2.6755,2.6884,2.6944,2.7085,2.7141,2.734,2.7401,2.7225,2.7056,2.7259,2.7111,2.6947,2.6731,2.6209,2.5948,2.592,2.5149,2.4864,2.4828,2.4632,2.3465,2.2705,2.2496,2.2152,2.1859,2.1126,2.0369,1.9498,1.8984,1.8574,1.8135,1.7611,1.7082,1.6853,1.5624,1.5172,1.4578,1.3109,1.1569,1.021,0.9603,0.9619,1.0161,1.0828,1.1547,1.1879,1.1171,1.0669,1.1052,1.1704,1.3236,1.6111,1.6188,1.6195,1.7686,1.9964,2.1778,2.2058,2.2244,2.244,2.2569,2.2833,2.3206,2.3459,2.3991,2.4119,2.3575,2.4382,2.5088,2.2795,2.0357,2.1784,2.2824,1.8187,1.4232,1.2686,1.1452,1.0457,0.9967,1.1173,1.1331,1.0156,1.101,1.221,1.2519,1.2857,1.2713,1.2505,1.2272,1.2029,1.1508,1.1145,1.0574,0.9905,0.9019,0.8299,0.763,0.7368,0.7373,0.6989,0.6524,0.5996,2.3739,2.4284,2.4292,2.4338,2.4327,2.4194,2.4104,2.4193,2.4671,2.5193,2.5471,2.6376,2.6652,2.6353,2.622,2.6663,2.6805,2.6791,2.6975,2.7034,2.7049,2.6718,2.6347,2.6001,2.5675,2.5544,2.5303,2.5144,2.5333,2.4583,2.4269,2.3967,2.3448,2.2515,2.1886,2.1208,2.1284,2.1355,2.0896,2.0296,1.9468,1.9009,1.8512,1.792,1.7325,1.6828,1.6396,1.5506,1.4899,1.4356,1.331,1.1939,1.0911,1.0236,1.0135,1.0703,1.1601,1.2559,1.2768,1.2444,1.1733,1.1712,1.3299,1.5453,1.7587,1.8196,1.8448,1.8037,2.0761,2.2599,2.244,2.2454,2.209,2.2076,2.2918,2.33,2.2863,2.305,2.3159,2.3067,2.3862,2.4019,2.1174,1.8508,1.8433,1.9285,1.662,1.3621,1.2814,1.1734,1.1045,1.0755,1.1048,1.0813,1.0382,1.1478,1.2351,1.1893,1.2189,1.2341,1.2194,1.2035,1.1766,1.1416,1.1086,1.083,1.0211,0.9355,0.8422,0.7474,0.7339,0.7267,0.6936,0.6521,0.6148,2.3863,2.3896,2.4508,2.4589,2.4311,2.3955,2.3814,2.3716,2.3864,2.4417,2.5275,2.5884,2.6308,2.6345,2.571,2.5862,2.63,2.6025,2.609,2.6505,2.6541,2.6191,2.551,2.4858,2.4699,2.4824,2.4576,2.4462,2.4806,2.4033,2.3706,2.3398,2.2847,2.2248,2.1886,2.1113,2.103,2.1364,2.0728,2.0219,1.9609,1.9051,1.8475,1.7683,1.711,1.6579,1.6101,1.5344,1.4825,1.4463,1.3539,1.2454,1.176,1.0614,1.0261,1.0339,1.1912,1.2864,1.323,1.2963,1.2853,1.2611,1.4218,1.6731,1.9287,2.0384,2.0502,1.9873,2.0642,2.1734,2.2046,2.2261,2.1754,2.1924,2.2765,2.2955,2.2501,2.2125,2.2291,2.2565,2.2408,2.1788,1.892,1.6519,1.5496,1.4917,1.3737,1.2918,1.2609,1.2076,1.1411,1.119,1.1212,1.1114,1.1068,1.1936,1.2412,1.1867,1.1659,1.1962,1.2101,1.2024,1.1757,1.1341,1.0559,0.9853,0.9777,0.9669,0.8701,0.778,0.737,0.7174,0.6851,0.6575,0.6238,2.3961,2.3948,2.4805,2.5029,2.4726,2.44,2.4024,2.3713,2.4059,2.4387,2.4663,2.525,2.536,2.5178,2.4991,2.4875,2.5026,2.507,2.5135,2.5329,2.5581,2.5006,2.4431,2.4032,2.388,2.3865,2.3739,2.3805,2.4476,2.3405,2.314,2.2921,2.2144,2.1606,2.1342,2.0889,2.0615,2.0709,2.0142,1.9495,1.8688,1.8352,1.7827,1.6978,1.6589,1.6282,1.5979,1.5221,1.4935,1.4777,1.3898,1.34,1.2775,1.1767,1.0969,1.1432,1.2933,1.4877,1.5435,1.5628,1.5497,1.499,1.5196,1.7398,1.9624,2.1843,2.2002,2.1485,2.0953,2.153,2.1692,2.145,2.1225,2.1884,2.242,2.2274,2.1956,2.1665,2.1619,2.2031,2.2078,2.0511,1.8112,1.6228,1.4987,1.4386,1.3698,1.3295,1.2964,1.2407,1.1826,1.1541,1.1437,1.1479,1.1691,1.1957,1.2249,1.1929,1.1765,1.1905,1.1965,1.1838,1.1341,1.072,0.9717,0.8842,0.9343,0.9608,0.8905,0.8191,0.764,0.7202,0.694,0.6716,0.651,2.3745,2.3787,2.4719,2.4986,2.475,2.4641,2.4343,2.3943,2.4146,2.4253,2.4384,2.4737,2.479,2.4474,2.4127,2.4191,2.4134,2.3971,2.4155,2.4341,2.4776,2.4326,2.3778,2.3254,2.3084,2.2965,2.2672,2.2682,2.3184,2.2279,2.1974,2.1873,2.1354,2.1124,2.0893,2.048,2.0097,2.0068,1.9639,1.8919,1.826,1.7747,1.7179,1.6539,1.6198,1.606,1.5743,1.5433,1.515,1.5023,1.4655,1.4285,1.3718,1.3235,1.2341,1.3,1.5222,1.6759,1.683,1.8057,1.7568,1.6319,1.6542,1.7839,1.9617,2.0937,2.194,2.1862,2.1437,2.0828,2.0511,2.0254,2.0985,2.1653,2.1167,2.0979,2.1433,2.1139,2.137,2.1742,2.1024,1.9337,1.757,1.6295,1.4813,1.4392,1.4009,1.3608,1.3152,1.24,1.1855,1.1606,1.1439,1.1435,1.136,1.136,1.1625,1.1826,1.1808,1.171,1.1382,1.1146,1.0631,1.0229,0.9689,0.9359,0.9586,0.9526,0.9071,0.842,0.7662,0.7296,0.7056,0.6899,0.6749,2.3256,2.3317,2.4262,2.4499,2.4271,2.4523,2.4521,2.423,2.3839,2.3955,2.4492,2.4205,2.4104,2.4298,2.3621,2.3433,2.3737,2.3334,2.3449,2.3645,2.3915,2.3463,2.3033,2.2502,2.2353,2.2016,2.177,2.1725,2.1642,2.1383,2.1095,2.0782,2.0598,2.057,2.0382,2.003,1.9782,1.97,1.9349,1.8711,1.8155,1.7588,1.6928,1.6364,1.6074,1.5948,1.5787,1.5652,1.5609,1.5309,1.4769,1.4572,1.4515,1.464,1.4303,1.5278,1.8177,1.8393,1.8023,1.9451,1.9493,1.8443,1.8713,1.9555,2.0095,2.0521,2.106,2.1372,2.0969,1.9799,1.894,1.9713,2.0517,2.0187,1.9534,1.9859,2.0645,2.0928,2.1251,2.1041,2.008,1.8504,1.6445,1.5045,1.4882,1.4556,1.411,1.3453,1.2875,1.1849,1.1401,1.1315,1.1213,1.129,1.1242,1.1268,1.1135,1.1389,1.1416,1.1308,1.0931,1.0676,1.0403,1.0156,0.9983,0.9912,0.9967,0.983,0.9542,0.8808,0.8027,0.7861,0.7766,0.7273,0.7107,2.2733,2.2545,2.3912,2.4088,2.3531,2.3476,2.3588,2.3745,2.364,2.3881,2.422,2.3275,2.2904,2.2715,2.2118,2.2048,2.1959,2.1927,2.2133,2.2379,2.2491,2.2284,2.2158,2.1955,2.1797,2.158,2.1346,2.1095,2.1126,2.0849,2.0341,1.9892,1.9892,2.0034,1.9918,1.9609,1.9575,1.948,1.9166,1.8676,1.8078,1.7512,1.6757,1.6185,1.592,1.5875,1.5972,1.6034,1.605,1.5866,1.6067,1.6,1.5092,1.5353,1.5567,1.7613,1.9853,2.1059,1.9954,2.0629,2.0924,2.0194,2.038,2.0926,2.1135,2.0941,2.078,2.0774,2.0358,1.9199,1.8819,1.9384,2.0142,2.0105,1.952,1.9529,2.0263,2.0598,2.0874,2.0565,1.9573,1.7813,1.5703,1.5171,1.5022,1.4704,1.4217,1.3483,1.2766,1.1819,1.1521,1.1499,1.1614,1.1839,1.1512,1.1447,1.111,1.0895,1.1017,1.1156,1.1114,1.0832,1.0394,1.0232,1.0282,1.0251,1.0212,0.9996,0.9621,0.926,0.8608,0.8543,0.8404,0.8048,0.7645,2.2409,2.2274,2.3176,2.3159,2.2442,2.2254,2.2432,2.2678,2.2942,2.3215,2.3319,2.2205,2.1643,2.1565,2.1133,2.0918,2.0918,2.0915,2.0993,2.0955,2.1015,2.1144,2.125,2.1332,2.1201,2.1022,2.0741,2.0429,2.0438,2.02,1.9752,1.915,1.9207,1.9362,1.9288,1.8984,1.8847,1.8882,1.8792,1.8497,1.7984,1.7334,1.6607,1.6068,1.5827,1.6065,1.634,1.647,1.6565,1.6454,1.6807,1.6677,1.595,1.6153,1.6617,1.8501,2.0787,2.1178,2.0475,2.1123,2.1201,2.1052,2.1271,2.1552,2.1793,2.1732,2.1177,2.0761,1.9693,1.8843,1.8895,1.9074,1.983,2.0512,2.0011,1.9523,1.9831,2.019,2.0185,2.006,1.8869,1.7176,1.6036,1.5554,1.5175,1.4896,1.4297,1.3439,1.2852,1.218,1.2181,1.2383,1.2489,1.2607,1.2195,1.1736,1.1402,1.1115,1.0958,1.1065,1.1183,1.0929,1.0395,1.048,1.0759,1.0889,1.1176,1.013,0.9591,0.939,0.9452,0.948,0.9427,0.9225,0.882,2.2099,2.1965,2.2198,2.1875,2.1165,2.1248,2.1326,2.1335,2.1868,2.2157,2.2083,2.1122,2.0696,2.0585,2.0274,2.0174,2.0188,2.0145,2.0154,1.9809,2.0234,2.0407,2.0459,2.0443,2.0585,2.033,2.0046,1.9833,1.9539,1.9371,1.9105,1.8517,1.8815,1.8915,1.8607,1.8344,1.8062,1.7779,1.8155,1.823,1.7706,1.7105,1.6562,1.6176,1.6285,1.6591,1.6825,1.7027,1.7175,1.6928,1.6862,1.6963,1.7025,1.6897,1.7405,1.8943,2.1385,2.163,2.1387,2.1735,2.1585,2.1437,2.1365,2.1727,2.2028,2.1454,2.0719,2.0654,1.9831,1.9342,1.9305,1.932,1.9787,2.0152,1.9942,1.9536,1.95,1.968,1.9585,1.9412,1.8833,1.7163,1.5845,1.5336,1.5326,1.5071,1.4434,1.3511,1.3009,1.2511,1.2328,1.2616,1.1986,1.1975,1.2776,1.2305,1.1827,1.1495,1.1147,1.1047,1.1212,1.088,1.039,1.0763,1.1273,1.1984,1.2144,1.1203,1.0525,1.0399,1.0462,1.0478,1.0381,1.0157,1.0319,2.1215,2.1098,2.118,2.1036,2.0905,2.112,2.1167,2.1176,2.0884,2.1028,2.1114,2.0419,1.9833,1.9558,1.9447,1.9405,1.9517,1.9545,1.9697,1.9544,1.9653,1.9775,1.992,1.9978,1.9989,1.9874,1.9632,1.9251,1.8903,1.8722,1.8444,1.7946,1.8106,1.8044,1.8187,1.7906,1.7313,1.6864,1.7471,1.7683,1.7228,1.7106,1.6783,1.6612,1.6722,1.7002,1.7264,1.7606,1.7542,1.7339,1.7507,1.7778,1.8065,1.7731,1.8586,2.032,2.2046,2.2339,2.24,2.2468,2.2495,2.2436,2.2408,2.2288,2.1844,2.0752,2.0228,2.0388,2.0333,1.9936,1.9774,1.9774,1.9793,1.9925,1.9901,1.9573,1.924,1.9025,1.8956,1.8631,1.8345,1.7359,1.5956,1.5406,1.538,1.5018,1.4435,1.3794,1.3459,1.296,1.1888,1.1728,1.0493,1.0612,1.1805,1.245,1.1769,1.1514,1.1222,1.1212,1.1254,1.0893,1.0597,1.1256,1.1854,1.2471,1.2792,1.2505,1.1955,1.1557,1.1613,1.1696,1.114,1.0801,1.1417,2.0926,2.0747,2.0382,2.0191,2.017,2.0292,2.0273,2.0178,2.0109,1.9973,1.9769,1.938,1.9009,1.8645,1.8577,1.8644,1.8767,1.8767,1.8892,1.8932,1.9051,1.9067,1.9246,1.9523,1.9458,1.9352,1.8969,1.8603,1.83,1.7916,1.759,1.7363,1.7291,1.7404,1.7723,1.7179,1.672,1.6317,1.7058,1.7104,1.6923,1.707,1.7157,1.7075,1.7117,1.741,1.7896,1.8229,1.8219,1.843,1.8843,2.0055,2.0312,1.9963,2.0482,2.1807,2.2975,2.3427,2.33,2.3351,2.357,2.3526,2.2679,2.224,2.2092,2.1067,2.0131,2.0214,2.0313,2.0009,2.0745,2.0956,2.1018,2.1122,2.0435,1.9824,1.8856,1.8018,1.7573,1.6963,1.7004,1.7222,1.6015,1.5332,1.5343,1.5371,1.4726,1.4571,1.4179,1.3787,1.2599,1.1655,1.0949,0.9912,1.0399,1.1158,1.1384,1.1216,1.1303,1.1206,1.115,1.0939,1.091,1.1637,1.2246,1.2735,1.2938,1.2946,1.2781,1.2298,1.2573,1.2941,1.2255,1.1655,1.2092,2.067,2.0366,1.964,1.9246,1.9163,1.9146,1.903,1.8921,1.9231,1.896,1.8323,1.835,1.8093,1.7875,1.7892,1.7918,1.7997,1.8182,1.8263,1.852,1.8525,1.8792,1.8951,1.9013,1.9031,1.8705,1.8251,1.7927,1.7632,1.7313,1.7057,1.6835,1.6784,1.6804,1.6708,1.6718,1.6498,1.6507,1.6786,1.6733,1.6971,1.7391,1.7462,1.7477,1.7574,1.7924,1.8537,1.8959,1.9084,1.9785,2.0532,2.1726,2.2249,2.1893,2.2342,2.3253,2.3692,2.3728,2.3581,2.3777,2.4174,2.4134,2.285,2.2293,2.2267,2.1471,2.0537,2.024,2.0356,2.0512,2.1236,2.223,2.2303,2.1479,2.0578,1.9753,1.8459,1.7147,1.6329,1.5644,1.6012,1.6494,1.6107,1.5414,1.5297,1.5353,1.5382,1.539,1.5235,1.4851,1.4101,1.3497,1.2967,1.1834,1.0711,1.0749,1.1668,1.1368,1.1446,1.1248,1.1165,1.1302,1.1563,1.2071,1.2659,1.3249,1.3388,1.34,1.3184,1.2919,1.3126,1.3421,1.3552,1.3039,1.2873,1.9483,1.8858,1.861,1.8423,1.8265,1.8249,1.8218,1.8182,1.8142,1.7895,1.7587,1.7412,1.7242,1.6884,1.7399,1.7646,1.7796,1.7881,1.8418,1.8864,1.859,1.8722,1.884,1.8804,1.887,1.8324,1.7611,1.719,1.6992,1.6829,1.6545,1.6217,1.6434,1.6279,1.5797,1.6021,1.6624,1.6799,1.6926,1.6968,1.7208,1.7544,1.7782,1.7957,1.8244,1.8836,1.9442,1.9956,2.0426,2.1221,2.2197,2.3159,2.3353,2.3256,2.3526,2.3783,2.4229,2.3897,2.3805,2.395,2.4304,2.4482,2.3583,2.3511,2.3004,2.1868,2.1176,2.0894,2.0837,2.0462,2.1229,2.3139,2.3593,2.1211,1.9713,1.8964,1.7967,1.6689,1.5599,1.5412,1.5546,1.5718,1.5594,1.5202,1.5171,1.5225,1.5265,1.5274,1.5352,1.5362,1.5375,1.4915,1.4437,1.4354,1.3495,1.2249,1.2466,1.2032,1.167,1.163,1.1728,1.2002,1.2345,1.2711,1.3295,1.3954,1.3988,1.4173,1.3616,1.3396,1.3508,1.3724,1.4083,1.4192,1.3775]},{"header":{"parameterUnit":"m.s-1","parameterCategory":1,"la1":31.0,"la2":29.5877,"lo1":-88.7671,"lo2":-86.6584,"dy":0.0162,"dx":0.0185,"nx":115,"ny":88,"refTime":"2024-06-14T00:00:00:Z","depth":0,"parameterNumber":3,"parameterNumberName":"V-component_of_WINDS"},"data":[0.0,0.0,0.0,0.0,0.0,0.0,0.0,0.0,0.0,0.0,0.0,0.0,0.0,0.0,0.0,0.0,0.0,0.0,0.0,0.0,0.0,0.0,0.0,0.0,0.0,0.0,0.0,0.0,0.0,0.0,0.0,0.0,0.0,0.0,0.0,0.0,0.0,0.0,0.0,0.0,0.0,0.0,0.0,0.0,0.0,0.0,0.0,0.0,0.0,0.0,0.0,0.0,0.0,0.0,0.0,0.0,0.0,0.0,0.0,0.0,0.0,0.0,0.0,0.0,0.0,0.0,0.0,0.0,0.0,0.0,0.0,0.0,0.0,0.0,0.0,0.0,0.0,0.0,0.0,0.0,0.0,0.0,0.0,0.0,0.0,0.0,0.0,0.0,0.0,0.0,0.0,0.0,0.0,0.0,0.0,0.0,0.0,0.0,0.0,0.0,0.0,0.0,0.0,0.0,0.0,0.0,0.0,0.0,0.0,0.0,0.0,0.0,0.0,0.0,0.0,0.0,0.0,0.0,0.0,0.0,0.0,0.0,0.0,0.0,0.0,0.0,0.0,0.0,0.0,0.0,0.0,0.0,0.0,0.0,0.0,0.0,0.0,0.0,0.0,0.0,0.0,0.0,0.0,0.0,0.0,0.0,0.0,0.0,0.0,0.0,0.0,0.0,0.0,0.0,0.0,0.0,0.0,0.0,0.0,0.0,0.0,0.0,0.0,0.0,0.0,0.0,0.0,0.0,0.0,0.0,0.0,0.0,0.0,0.0,0.0,0.0,0.0,0.0,0.0,0.0,0.0,0.0,0.0,0.0,0.0,0.0,0.0,0.0,0.0,0.0,0.0,0.0,0.0,0.0,0.0,0.0,0.0,0.0,0.0,0.0,0.0,0.0,0.0,0.0,0.0,0.0,0.0,0.0,0.0,0.0,0.0,0.0,0.0,0.0,0.0,0.0,0.0,0.0,0.0,0.0,0.0,0.0,0.0,0.0,0.0,0.0,0.0,0.0,0.0,0.0,0.0,0.0,0.0,0.0,0.0,0.0,0.0,0.0,0.0,0.0,0.0,0.0,0.0,0.0,0.0,0.0,0.0,0.0,0.0,0.0,0.0,0.0,0.0,0.0,0.0,0.0,0.0,0.0,0.0,0.0,0.0,0.0,0.0,0.0,0.0,0.0,0.0,0.0,0.0,0.0,0.0,0.0,0.0,0.0,0.0,0.0,0.0,0.0,0.0,0.0,0.0,0.0,0.0,0.0,0.0,0.0,0.0,0.0,0.0,0.0,0.0,0.0,0.0,0.0,0.0,0.0,0.0,0.0,0.0,0.0,0.0,0.0,0.0,0.0,0.0,0.0,0.0,0.0,0.0,0.0,0.0,0.0,0.0,0.0,0.0,0.0,0.0,0.0,0.0,0.0,0.0,0.0,0.0,0.0,0.0,0.0,0.0,0.0,0.0,0.0,0.0,0.0,0.0,0.0,0.0,0.0,0.0,0.0,0.0,0.0,0.0,0.0,0.0,0.0,0.0,0.0,0.0,0.0,0.0,0.0,0.0,0.0,0.0,0.0,0.0,0.0,0.0,0.0,0.0,0.0,0.0,0.0,0.0,0.0,0.0,0.0,0.0,0.0,0.0,0.0,0.0,0.0,0.0,0.0,0.0,0.0,0.0,0.0,0.0,0.0,0.0,0.0,0.0,0.0,0.0,0.0,0.0,0.0,0.0,0.0,0.0,0.0,0.0,0.0,0.0,0.0,0.0,0.0,0.0,0.0,0.0,0.0,0.0,0.0,0.0,0.0,0.0,0.0,0.0,0.0,0.0,0.0,0.0,0.0,0.0,0.0,0.0,0.0,0.0,0.0,0.0,0.0,0.0,0.0,0.0,0.0,0.0,0.0,0.0,0.0,0.0,0.0,0.0,0.0,0.0,0.0,0.0,0.0,0.0,0.0,0.0,0.0,0.0,0.0,0.0,0.0,0.0,0.0,0.0,0.0,0.0,0.0,0.0,0.0,0.0,0.0,0.0,0.0,0.0,0.0,0.0,0.0,0.0,0.0,0.0,0.0,0.0,0.0,0.0,0.0,0.0,0.0,0.0,0.0,0.0,0.0,0.0,0.0,0.0,0.0,0.0,0.0,0.0,0.0,0.0,0.0,0.0,0.0,0.0,0.0,0.0,0.0,0.0,0.0,0.0,0.0,0.0,0.0,0.0,0.0,0.0,0.0,0.0,0.0,0.0,0.0,0.0,0.0,0.0,0.0,0.0,0.0,0.0,0.0,0.0,0.0,0.0,0.0,0.0,0.0,0.0,0.0,0.0,0.0,0.0,0.0,0.0,0.0,0.0,0.0,0.0,0.0,0.0,0.0,0.0,0.0,0.0,0.0,0.0,0.0,0.0,0.0,0.0,0.0,0.0,0.0,0.0,0.0,0.0,0.0,0.0,0.0,0.0,0.0,0.0,0.0,0.0,0.0,0.0,0.0,0.0,0.0,0.0,0.0,0.0,0.0,0.0,0.0,0.0,0.0,0.0,0.0,0.0,0.0,0.0,0.0,0.0,0.0,0.0,0.0,0.0,0.0,0.0,0.0,0.0,0.0,0.0,0.0,0.0,0.0,0.0,0.0,0.0,0.0,0.0,0.0,0.0,0.0,0.0,0.0,0.0,0.0,0.0,0.0,0.0,0.0,0.0,0.0,0.0,0.0,0.0,0.0,0.0,0.0,0.0,0.0,0.0,0.0,0.0,0.0,0.0,0.0,0.0,0.0,0.0,0.0,0.0,0.0,0.0,0.0,0.0,0.0,0.0,0.0,0.0,0.0,0.0,0.0,0.0,0.0,0.0,0.0,0.0,0.0,0.0,0.0,0.0,0.0,0.0,0.0,0.0,0.0,0.0,0.0,0.0,0.0,0.0,0.0,0.0,0.0,0.0,0.0,0.0,0.0,0.0,0.0,0.0,0.0,0.0,0.0,0.0,0.0,0.0,0.0,0.0,0.0,0.0,0.0,0.0,0.0,0.0,0.0,0.0,0.0,0.0,0.0,0.0,0.0,0.0,0.0,0.0,0.0,0.0,0.0,0.0,0.0,0.0,0.0,0.0,0.0,0.0,0.0,0.0,0.0,0.0,0.0,0.0,0.0,0.0,0.0,0.0,0.0,0.0,0.0,0.0,0.0,0.0,0.0,0.0,0.0,0.0,0.0,0.0,0.0,0.0,0.0,0.0,0.0,0.0,0.0,0.0,0.0,0.0,0.0,0.0,0.0,0.0,0.0,0.0,0.0,0.0,0.0,0.0,0.0,0.0,0.0,0.0,0.0,0.0,0.0,0.0,0.0,0.0,0.0,0.0,0.0,0.0,0.0,0.0,0.0,0.0,0.0,0.0,0.0,0.0,0.0,0.0,0.0,0.0,0.0,0.0,0.0,0.0,0.0,0.0,0.0,0.0,0.0,0.0,0.0,0.0,0.0,0.0,0.0,0.0,0.0,0.0,0.0,0.0,0.0,0.0,0.0,0.0,0.0,0.0,0.0,0.0,0.0,0.0,0.0,0.0,0.0,0.0,0.0,0.0,0.0,0.0,0.0,0.0,0.0,0.0,0.0,0.0,0.0,0.0,0.0,0.0,0.0,0.0,0.0,0.0,0.0,0.0,0.0,0.0,0.0,0.0,0.0,0.0,0.0,0.0,0.0,0.0,0.0,0.0,0.0,0.0,0.0,0.0,0.0,0.0,0.0,0.0,0.0,0.0,0.0,0.0,0.0,0.0,0.0,0.0,0.0,0.0,0.0,0.0,0.0,0.0,0.0,0.0,0.0,0.0,0.0,0.0,0.0,0.0,0.0,0.0,0.0,0.0,0.0,0.0,0.0,0.0,0.0,0.0,0.0,0.0,0.0,0.0,0.0,0.0,0.0,0.0,0.0,0.0,0.0,0.0,0.0,0.0,0.0,0.0,0.0,0.0,0.0,0.0,0.0,0.0,0.0,0.0,0.0,0.0,0.0,0.0,0.0,0.0,0.0,0.0,0.0,0.0,0.0,0.0,0.0,0.0,0.0,0.0,0.0,0.0,0.0,0.0,0.0,0.0,0.0,0.0,0.0,0.0,0.0,0.0,0.0,0.0,0.0,0.0,0.0,0.0,0.0,0.0,0.0,0.0,0.0,0.0,0.0,0.0,0.0,0.0,0.0,0.0,0.0,0.0,0.0,0.0,0.0,0.0,0.0,0.0,0.0,0.0,0.0,0.0,0.0,0.0,0.0,0.0,0.0,0.0,0.0,0.0,0.0,-0.4158,0.0,0.0,0.0,0.0,0.0,0.0,0.0,0.0,0.0,0.0,0.0,0.0,0.0,0.0,0.0,0.0,0.0,0.0,0.0,0.0,0.0,0.0,0.0,0.0,0.0,0.0,0.0,0.0,0.0,0.0,0.0,0.0,0.0,0.0,0.0,0.0,0.0,0.0,0.0,0.0,0.0,0.0,0.0,0.0,0.0,0.0,0.0,0.0,0.0,0.0,0.0,0.0,0.0,0.0,0.0,0.0,0.0,0.0,0.0,0.0,0.0,0.0,0.0,0.0,0.0,0.0,0.0,0.0,0.0,0.0,0.0,0.0,0.0,0.0,0.0,0.0,0.0,0.0,0.0,0.0,0.0,0.0,0.0,0.0,0.0,0.0,0.0,0.0,0.0,0.0,0.0,0.0,0.0,0.0,0.0,0.0,0.0,0.0,0.0,0.0,0.0,0.0,0.0,0.0,0.0,0.0,0.0,0.0,0.0,0.0,-0.8122,-0.8078,-0.4937,-0.2973,-0.2444,0.0,0.0,0.0,0.0,0.0,0.0,0.0,0.0,0.0,0.0,0.0,0.0,0.0,0.0,0.0,0.0,0.0,0.0,0.0,0.0,0.0,0.0,0.0,0.0,0.0,0.0,0.0,0.0,0.0,0.0,0.0,0.0,0.0,0.0,0.0,0.0,0.0,0.0,0.0,0.0,0.0,0.0,0.0,0.0,0.0,0.0,0.0,0.0,0.0,0.0,0.0,0.0,0.0,0.0,0.0,0.0,0.0,0.0,0.0,0.0,0.0,0.0,0.0,0.0,0.0,0.0,0.0,0.0,0.0,0.0,0.0,0.0,0.0,0.0,0.0,0.0,0.0,0.0,0.0,0.0,0.0,0.0,0.0,0.0,0.0,0.0,0.0,0.0,0.0,0.0,0.0,0.0,0.0,0.0,0.0,0.0,0.0,0.0,0.0,0.0,0.0,0.0,0.0,0.0,0.0,0.0,0.0,0.0,0.0,0.0,0.0,0.0,-0.4836,-0.2352,-0.0485,0.0,0.0,0.0,0.0,0.0,0.0,0.0,0.0,0.0,0.0,0.0,0.0,0.0,0.0,0.0,0.0,0.0,0.0,0.0,0.0,0.0,0.0,0.0,0.0,0.0,0.0,0.0,0.0,0.0,0.0,0.0,0.0,0.0,0.0,0.0,0.0,0.0,0.0,0.0,0.0,0.0,0.0,0.0,0.0,0.0,0.0,0.0,0.0,0.0,0.0,0.0,0.0,0.0,0.0,0.0,0.0,0.0,0.0,0.0,0.0,0.0,0.0,0.0,0.0,0.0,0.0,0.0,0.0,0.0,0.0,0.0,0.0,0.0,0.0,0.0,0.0,0.0,0.0,0.0,0.0,0.0,0.0,0.0,0.0,0.0,0.0,0.0,0.0,0.0,0.0,0.0,0.0,0.0,0.0,0.0,0.0,0.0,0.0,0.0,0.0,0.0,0.0,0.0,0.0,0.0,0.0,0.0,0.0,0.0,0.0,-0.7727,-0.6987,-0.4303,0.0,-0.0197,0.0,0.0,0.0,0.0,0.0,0.0,0.0,0.0,0.0,0.0,0.0,0.0,0.0,0.0,0.0,0.0,0.0,0.0,0.0,0.0,0.0,0.0,0.0,0.0,0.0,0.0,0.0,0.0,0.0,0.0,0.0,0.0,0.0,0.0,0.0,0.0,0.0,0.0,0.0,0.0,0.0,0.0,0.0,0.0,0.0,0.0,0.0,0.0,0.0,0.0,0.0,0.0,0.0,0.0,0.0,0.0,0.0,0.0,0.0,0.0,0.0,0.0,0.0,0.0,0.0,0.0,0.0,0.0,0.0,0.0,0.0,0.0,0.0,0.0,0.0,0.0,0.0,0.0,0.0,0.0,0.0,0.0,0.0,0.0,0.0,0.0,0.0,0.0,0.0,0.0,0.0,0.0,0.0,0.0,0.0,0.0,0.0,0.0,0.0,0.0,0.0,0.0,0.0,0.0,0.0,0.0,0.0,0.0,0.0,0.0,0.0,-0.6072,-0.3424,-0.1621,0.0,0.0,0.0,0.0,0.0,0.0,0.0,0.0,0.0,0.0,0.0,0.0,0.0,0.0,0.0,0.0,0.0,0.0,0.0,0.0,0.0,0.0,0.0,0.0,0.0,0.0,0.0,0.0,0.0,0.0,0.0,0.0,0.0,0.0,0.0,0.0,0.0,0.0,0.0,0.0,0.0,0.0,0.0,0.0,0.0,0.0,0.0,0.0,0.0,0.0,0.0,0.0,0.0,0.0,0.0,0.0,0.0,0.0,0.0,0.0,0.0,0.0,0.0,0.0,0.0,0.0,0.0,0.0,0.0,0.0,0.0,0.0,0.0,0.0,0.0,0.0,0.0,0.0,0.0,0.0,0.0,0.0,0.0,0.0,0.0,0.0,0.0,0.0,0.0,0.0,0.0,0.0,0.0,0.0,0.0,0.0,0.0,0.0,0.0,0.0,0.0,0.0,0.0,0.0,0.0,0.0,0.0,0.0,0.0,0.0,-0.7475,0.0,-0.4437,-0.2441,-0.1373,-0.14,0.0,0.0,0.0,0.0,0.0,0.0,0.0,0.0,0.0,0.0,0.0,0.0,0.0,0.0,0.0,0.0,0.0,0.0,0.0,0.0,0.0,0.0,0.0,0.0,0.0,0.0,0.0,0.0,0.0,0.0,0.0,0.0,0.0,0.0,0.0,0.0,0.0,0.0,0.0,0.0,0.0,0.0,0.0,0.0,0.0,0.0,0.0,0.0,0.0,0.0,0.0,0.0,0.0,0.0,0.0,0.0,0.0,0.0,0.0,0.0,0.0,0.0,0.0,0.0,0.0,0.0,0.0,0.0,0.0,0.0,0.0,0.0,0.0,0.0,0.0,0.0,0.0,0.0,0.0,0.0,0.0,0.0,0.0,0.0,0.0,0.0,0.0,0.0,0.0,0.0,0.0,0.0,0.0,0.0,0.0,0.0,0.0,0.0,0.0,0.0,0.0,0.0,0.0,0.0,0.0,0.0,0.0,0.0,0.0,-0.572,-0.4421,-0.1943,-0.1459,-0.1329,0.0,0.0,0.0,0.0,0.0,0.0,0.0,0.0,0.0,0.0,0.0,0.0,0.0,0.0,0.0,0.0,0.0,0.0,0.0,0.0,0.0,0.0,0.0,0.0,0.0,0.0,0.0,0.0,0.0,0.0,0.0,0.0,0.0,0.0,0.0,0.0,0.0,0.0,0.0,0.0,0.0,0.0,0.0,0.0,0.0,0.0,0.0,0.0,0.0,0.0,0.0,0.0,0.0,0.0,0.0,0.0,0.0,0.0,0.0,0.0,0.0,0.0,0.0,0.0,0.0,0.0,0.0,0.0,0.0,0.0,0.0,0.0,0.0,0.0,0.0,0.0,0.0,0.0,0.0,0.0,0.0,0.0,0.0,0.0,0.0,0.0,0.0,0.0,0.0,0.0,0.0,0.0,0.0,0.0,0.0,0.0,0.0,0.0,0.0,0.0,0.0,0.0,0.0,0.0,0.0,0.0,0.0,0.0,0.0,-0.7048,-0.5735,-0.4039,-0.1983,-0.0401,0.0222,0.0,0.0,0.0,0.0,0.0,0.0,0.0,0.0,0.0,0.0,0.0,0.0,0.0,0.0,0.0,0.0,0.0,0.0,0.0,0.0,0.0,0.0,0.0,0.0,0.0,0.0,0.0,0.0,0.0,0.0,0.0,0.0,0.0,0.0,0.0,0.0,0.0,0.0,0.0,0.0,0.0,0.0,0.0,0.0,0.0,0.0,0.0,0.0,0.0,0.0,0.0,0.0,0.0,0.0,0.0,0.0,0.0,0.0,0.0,0.0,0.0,0.0,0.0,0.0,0.0,0.0,0.0,0.0,0.0,0.0,0.0,0.0,0.0,0.0,0.0,0.0,0.0,0.0,0.0,0.0,0.0,0.0,0.0,0.0,0.0,0.0,0.0,0.0,0.0,0.0,0.0,0.0,0.0,0.0,0.0,0.0,0.0,0.0,0.0,0.0,0.0,0.0,0.0,0.0,0.0,0.0,0.0,0.0,0.0,-0.6799,0.0,-0.3048,0.0,0.0329,0.1292,0.0,0.0,0.0,0.0,0.0,0.0,0.0,0.0,0.0,0.0,0.0,0.0,0.0,0.0,0.0,0.0,0.0,0.0,0.0,0.0,0.0,0.0,0.0,0.0,0.0,0.0,0.0,0.0,0.0,0.0,0.0,0.0,0.0,0.0,0.0,0.0,0.0,0.0,0.0,0.0,0.0,0.0,0.0,0.0,0.0,0.0,0.0,0.0,0.0,0.0,0.0,0.0,0.0,0.0,0.0,0.0,0.0,0.0,0.0,0.0,0.0,0.0,0.0,0.0,0.0,0.0,0.0,0.0,0.0,0.0,0.0,0.0,0.0,0.0,0.0,0.0,0.0,0.0,0.0,0.0,0.0,0.0,0.0,0.0,0.0,0.0,0.0,0.0,0.0,0.0,0.0,0.0,0.0,0.0,0.0,0.0,0.0,0.0,0.0,0.0,0.0,0.0,0.0,0.0,0.0,0.0,0.0,0.0,-0.6891,-0.4619,-0.3147,-0.1516,0.0631,0.0714,0.1766,0.0,0.0,0.0,0.0,0.0,0.0,0.0,0.0,0.0,0.0,0.0,0.0,0.0,0.0,0.0,0.0,0.0,0.0,0.0,0.0,0.0,0.0,0.0,0.0,0.0,0.0,0.0,0.0,0.0,0.0,0.0,0.0,0.0,0.0,0.0,0.0,0.0,0.0,0.0,0.0,0.0,0.0,0.0,0.0,0.0,0.0,0.0,0.0,0.0,0.0,0.0,0.0,0.0,0.0,0.0,0.0,0.0,0.0,0.0,0.0,0.0,0.0,0.0,0.0,0.0,0.0,0.0,0.0,0.0,0.0,0.0,0.0,0.0,0.0,0.0,0.0,0.0,0.0,0.0,0.0,0.0,0.0,0.0,0.0,0.0,0.0,0.0,0.0,0.0,0.0,0.0,0.0,0.0,0.0,0.0,0.0,0.0,0.0,0.0,0.0,0.0,0.0,0.0,0.0,0.0,0.0,0.0,0.0,0.0,-0.5165,-0.3818,-0.2518,-0.1258,0.1523,0.2993,0.0,0.0,0.0,0.0,0.0,0.0,0.0,0.0,0.0,0.0,0.0,0.0,0.0,0.0,0.0,0.0,0.0,0.0,0.0,0.0,0.0,0.0,0.0,0.0,0.0,0.0,0.0,0.0,0.0,0.0,0.0,0.0,0.0,0.0,0.0,0.0,0.0,0.0,0.0,0.0,0.0,0.0,0.0,0.0,0.0,0.0,0.0,0.0,0.0,0.0,0.0,0.0,0.0,0.0,0.0,0.0,0.0,0.0,0.0,0.0,0.0,0.0,0.0,0.0,0.0,0.0,0.0,0.0,0.0,0.0,0.0,0.0,0.0,0.0,0.0,0.0,0.0,0.0,0.0,0.0,0.0,0.0,0.0,0.0,0.0,0.0,0.0,0.0,0.0,0.0,0.0,0.0,0.0,0.0,0.0,0.0,0.0,0.0,0.0,0.0,0.0,0.0,0.0,0.0,0.0,0.0,0.0,0.0,0.0,-0.578,-0.445,-0.3061,-0.1647,0.0971,0.2574,0.3023,0.0,0.0,0.0,0.0,0.0,0.0,0.0,0.0,0.0,0.0,0.0,0.0,0.0,0.0,0.0,0.0,0.0,0.0,0.0,0.0,0.0,0.0,0.0,0.0,0.0,0.0,0.0,0.0,0.0,0.0,0.0,0.0,0.0,0.0,0.0,0.0,0.0,0.0,0.0,0.0,0.0,0.0,0.0,0.0,0.0,0.0,0.0,0.0,0.0,0.0,0.0,0.0,0.0,0.0,0.0,0.0,0.0,0.0,0.0,0.0,0.0,0.0,0.0,0.0,0.0,0.0,0.0,0.0,0.0,0.0,0.0,0.0,0.0,0.0,0.0,0.0,0.0,0.0,0.0,0.0,0.0,0.0,0.0,0.0,0.0,0.0,0.0,0.0,0.0,0.0,0.0,0.0,0.0,0.0,0.0,0.0,0.0,0.0,0.0,0.0,0.0,0.0,0.0,0.0,0.0,0.0,0.0,0.0,-0.6571,-0.5222,-0.3304,-0.0681,-0.0537,0.0832,0.0,0.0,0.0,0.0,0.0,0.0,0.0,0.0,0.0,0.0,0.0,0.0,0.0,0.0,0.0,0.0,0.0,0.0,0.0,0.0,0.0,0.0,0.0,0.0,0.0,0.0,0.0,0.0,0.0,0.0,0.0,0.0,0.0,0.0,0.0,0.0,0.0,0.0,0.0,0.0,0.0,0.0,0.0,0.0,0.0,0.0,0.0,0.0,0.0,0.0,0.0,0.0,0.0,0.0,0.0,0.0,0.0,0.0,0.0,0.0,0.0,0.0,0.0,0.0,0.0,0.0,0.0,0.0,0.0,0.0,0.0,0.0,0.0,0.0,0.0,0.0,0.0,0.0,0.0,0.0,0.0,0.0,0.0,0.0,0.0,0.0,0.0,0.0,0.0,0.0,0.0,0.0,0.0,0.0,0.0,0.0,0.0,0.0,0.0,0.0,0.0,0.0,0.0,0.0,0.0,0.0,0.0,0.0,0.0,-0.9187,-0.8767,-0.5981,-0.0781,-0.0287,0.0232,0.0,0.0,0.0,0.0,0.0,0.0,0.0,0.0,0.0,0.0,0.0,0.0,0.0,0.0,0.0,0.0,0.0,0.0,0.0,0.0,0.0,0.0,0.0,0.0,0.0,0.0,0.0,0.0,0.0,0.0,0.0,0.0,0.0,0.0,0.0,0.0,0.0,0.0,0.0,0.0,0.0,0.0,0.0,0.0,0.0,0.0,0.0,0.0,0.0,0.0,0.0,0.0,0.0,0.0,0.0,0.0,0.0,0.0,0.0,0.0,0.0,0.0,0.0,0.0,0.0,0.0,0.0,0.0,0.0,0.0,0.0,0.0,0.0,0.0,0.0,0.0,0.0,0.0,0.0,0.0,0.0,0.0,0.0,0.0,0.0,0.0,0.0,0.0,0.0,0.0,0.0,0.0,0.0,0.0,0.0,0.0,0.0,0.0,0.0,0.0,0.0,0.0,0.0,0.0,0.0,0.0,0.0,0.0,-1.0197,-1.0147,-0.8717,-0.5922,-0.1776,-0.1945,-0.1413,0.0,0.0,0.0,0.0,0.0,0.0,0.0,0.0,0.0,0.0,0.0,0.0,0.0,0.0,0.0,0.0,0.0,0.0,0.0,0.0,0.0,0.0,0.0,0.0,0.0,0.0,0.0,0.0,0.0,0.0,0.0,0.0,0.0,0.0,0.0,0.0,0.0,0.0,0.0,0.0,0.0,0.0,0.0,0.0,0.0,0.0,0.0,0.0,0.0,0.0,0.0,0.0,0.0,0.0,0.0,0.0,0.0,0.0,0.0,0.0,0.0,0.0,0.0,0.0,0.0,0.0,0.0,0.0,0.0,0.0,0.0,0.0,0.0,0.0,0.0,0.0,0.0,0.0,0.0,0.0,0.0,0.0,0.0,0.0,0.0,0.0,0.0,0.0,0.0,0.0,0.0,0.0,0.0,0.0,0.0,0.0,0.0,0.0,0.0,0.0,0.0,0.0,0.0,0.0,0.0,0.0,0.0,0.0,-1.0515,-1.0443,-0.7246,-0.4962,-0.3726,-0.4144,-0.3193,0.0,0.0,0.0,0.0,0.0,0.0,0.0,0.0,0.0,0.0,0.0,0.0,0.0,0.0,0.0,0.0,0.0,0.0,0.0,0.0,0.0,0.0,0.0,0.0,0.0,0.0,0.0,0.0,0.0,0.0,0.0,0.0,0.0,0.0,0.0,0.0,0.0,0.0,0.0,0.0,0.0,0.0,0.0,0.0,0.0,0.0,0.0,0.0,0.0,0.0,0.0,0.0,0.0,0.0,0.0,0.0,0.0,0.0,0.0,0.0,0.0,0.0,0.0,0.0,0.0,0.0,0.0,0.0,0.0,0.0,0.0,0.0,0.0,0.0,0.0,0.0,0.0,0.0,0.0,0.0,0.0,0.0,0.0,0.0,0.0,0.0,0.0,0.0,0.0,0.0,0.0,0.0,0.0,0.0,0.0,0.0,0.0,0.0,0.0,0.0,0.0,0.0,0.0,0.0,0.0,0.0,0.0,0.0,-1.275,-1.2953,-1.0462,-0.8123,-0.6104,-0.2791,-0.1932,0.0,0.0,0.0,0.0,0.0,0.0,0.0,0.0,0.0,0.0,0.0,0.0,0.0,0.0,0.0,0.0,0.0,0.0,0.0,0.0,0.0,0.0,0.0,0.0,0.0,0.0,0.0,0.0,0.0,0.0,0.0,0.0,0.0,0.0,0.0,0.0,0.0,0.0,0.0,0.0,0.0,0.0,0.0,0.0,0.0,0.0,0.0,0.0,-0.0131,0.0,0.0,0.0,0.0,0.0,0.0,0.0,0.0,0.0,0.0,0.0,0.0,0.0,0.0,0.0,0.0,0.0,0.0,0.0,0.0,0.0,0.0,0.0,0.0,0.0,0.0,0.0,0.0,0.0,0.0,0.0,0.0,0.0,0.0,0.0,0.0,0.0,0.0,0.0,0.0,0.0,0.0,0.0,0.0,0.0,0.0,0.0,0.0,0.0,0.0,0.0,0.0,0.0,0.0,0.0,0.0,0.0,0.0,0.0,-1.3901,-1.4161,-1.1959,-0.9983,-0.826,-0.4441,-0.2429,0.0,0.0,0.0,0.0,0.0,0.0,0.0,0.0,0.0,0.0,0.0,0.0,0.0,0.0,0.0,0.0,0.0,0.0,0.0,0.0,0.0,0.0,0.0,0.0,0.0,0.0,0.0,0.0,0.0,0.0,0.0,0.0,0.0,0.0,0.0,0.0,0.0,0.0,0.0,0.0,0.0,0.0,0.0,0.0,0.0,0.0,0.0,0.0,0.0,0.0,0.0,0.0,0.0,0.0,0.0,0.0,0.0,0.0,0.0,0.0,0.0,0.0,0.0,0.0,0.0,0.0,0.0,0.0,0.0,0.0,0.0,0.0,0.0,0.0,0.0,0.0,0.0,0.0,0.0,0.0,0.0,0.0,0.0,0.0,0.0,0.0,0.0,0.0,0.0,0.0,0.0,0.0,0.0,0.0,0.0,0.0,0.0,0.0,0.0,0.0,0.0,0.0,0.0,0.0,0.0,0.0,0.0,-1.4399,-1.464,-1.4868,-1.2925,-1.144,-1.0512,-0.7446,-0.4194,-0.0914,0.0,0.0,0.0,0.0,0.0,0.0,0.0,0.0,0.0,0.0,0.0,0.0,0.0,0.0,0.0,0.0,0.0,0.0,0.0,0.0,0.0,0.0,0.0,0.0,0.0,0.0,0.0,0.0,0.0,0.0,0.0,0.0,0.0,0.0,0.0,0.0,0.0,0.0,-0.3361,0.149,0.0,0.0,0.0,0.0,0.0,0.0,0.0,0.0,-0.027,0.0,0.0,0.0,0.0,0.0,0.0,0.0,0.0,0.0,0.0,0.0,0.0,0.0,0.0,0.0,0.0,0.0,0.0,0.0,0.0,0.0,0.0,0.0,0.0,0.0,0.0,0.0,0.0,0.0,0.0,0.0,0.0,0.0,0.0,0.0,0.0,0.0,0.0,0.0,0.0,0.0,0.0,0.0,0.0,0.0,0.0,0.0,0.0,0.0,0.0,0.0,0.0,0.0,0.0,0.0,0.0,-1.527,-1.5314,-1.5572,-1.6074,-1.4729,-1.3616,-1.2812,-1.0517,-0.7587,-0.4093,0.0,0.0,0.0,0.0,0.0,0.0,0.0,0.0,0.0,0.0,0.0,0.0,0.0,0.0,0.0,0.0,0.0,0.0,0.0,0.0,0.0,0.0,0.0,0.0,0.0,0.0,0.0,0.0,0.0,0.0,0.0,0.0,0.0,0.0,0.0,0.0,0.0,0.0,0.0,0.133,0.3609,0.0,0.0,0.0,0.0,0.0,0.0,0.0,0.0,0.0405,0.0,0.0,0.0,0.0,0.0,0.0,0.0,0.0,0.0,0.0,0.0,0.0,0.0,0.0,0.0,0.0,0.0,0.0,0.0,0.0,0.0,0.0,0.0,0.0,0.0,0.0,0.0,0.0,0.0,0.0,0.0,0.0,0.0,0.0,0.0,0.0,0.0,0.0,0.0,0.0,0.0,0.0,0.0,0.0,0.0,0.0,0.0,0.0,0.0,0.0,0.0,0.0,0.0,0.0,0.0,-1.4049,-1.4408,-1.5188,-1.6606,-1.5831,-1.491,-1.3873,-1.2034,-0.9807,0.0,0.0,0.0,0.0,0.0,0.0,0.0,0.0,0.0,0.0,0.0,0.0,0.0,0.0,0.0,0.0,0.0,0.0,0.0,0.0,0.0,0.0,0.0,0.0,0.0,0.0,0.0,0.0,0.0,0.0,0.0,0.0,0.0,0.0,0.0,0.0,0.0,0.0,0.0,0.0,0.3027,0.3965,0.4474,0.0,0.0,0.0,0.0,0.0,0.0,0.1617,0.1041,0.0,0.0,0.0,0.0,0.0,0.0,0.0,0.0,0.0,0.0,0.0,0.0,0.0,0.0,0.0,0.0,0.0,0.0,0.0,0.0,0.0,0.0,0.0,0.0,0.0,0.0,0.0,0.0,0.0,0.0,0.0,0.0,0.0,0.0,0.0,0.0,0.0,0.0,0.0,0.0,0.0,0.0,0.0,0.0,0.0,0.0,0.0,0.0,0.0,0.0,0.0,0.0,0.0,0.0,0.0,-1.2969,-1.3701,-1.5087,-1.7182,-1.6692,-1.5956,-1.5145,-1.3343,-1.1606,0.0,0.0,0.0,0.0,0.0,0.0,0.0,0.0,0.0,0.0,0.0,0.0,0.0,0.0,0.0,0.0,0.0,0.0,0.0,0.0,0.0,0.0,0.0,0.0,0.0,0.0,0.0,0.0,0.0,0.0,0.0,0.0,0.0,0.0,0.0,0.0,0.0,0.0,0.0,0.0,0.0,0.4643,0.4042,0.432,0.0,0.0,0.0,0.0,0.1853,0.2036,0.0,0.0,0.0,0.0,0.0,0.0,0.0,0.0,0.0,0.0,0.0,0.0,0.0,0.0,0.0,0.0,0.0,0.0,0.0,0.0,0.0,0.0,0.0,0.0,0.0,0.0,0.0,0.0,0.0,0.0,0.0,0.0,0.0,0.0,0.0,0.0,0.0,0.0,0.0,0.0,0.0,0.0,0.0,0.0,0.0,0.0,0.0,0.0,0.0,0.0,0.0,0.0,0.0,0.0,0.0,0.0,-1.2986,-1.4806,-1.6595,-1.8258,-1.739,-1.7199,-1.795,-1.5432,-1.3322,0.0,0.0,0.0,0.0,0.0,0.0,0.0,0.0,0.0,0.0,0.0,0.0,0.0,0.0,0.0,0.0,0.0,0.0,0.0,0.0,0.0,0.0,0.0,0.0,0.0,0.0,0.0,0.0,0.0,0.0,0.0,0.0,0.0,0.0,0.0,0.0,0.0,0.0,0.0,0.0,0.0,0.4904,0.4203,0.3897,0.3469,0.0,0.0,0.2128,0.1853,0.2449,0.0,0.0,0.0,0.0,0.0,0.0,0.0,0.0,0.0,0.0,0.0,0.0,0.0,0.0,0.0,0.0,0.0,0.0,0.0,0.0,0.0,0.0,0.0,0.0,0.0,0.0,0.0,0.0,0.0,0.0,0.0,0.0,0.0,0.0,0.0,0.0,0.0,0.0,0.0,0.0,0.0,0.0,0.0,0.0,0.0,0.0,0.0,0.0,0.0,0.0,0.0,0.0,0.0,0.0,0.0,-0.9409,-1.373,-1.4349,-1.5709,-1.7967,-1.7377,-1.7294,-1.7893,-1.5714,-1.3825,0.0,0.0,0.0,0.0,0.0,0.0,0.0,0.0,0.0,0.0,0.0,0.0,0.0,0.0,0.0,0.0,0.0,0.0,0.0,0.0,0.0,0.0,0.0,0.0,0.0,0.0,0.0,0.0,0.0,0.0,0.0,0.0,0.0,0.0,0.0,0.0,0.0,0.0,0.0,0.0,0.0,0.0,0.4612,0.4111,0.0,0.0,0.0,0.1402,0.175,0.0,0.0,0.0,0.0,0.0,0.0,0.0,0.0,0.0,0.0,0.0,0.0,0.0,0.0,0.0,0.0,0.0,0.0,0.0,0.0,0.0,0.0,0.0,0.0,0.0,0.0,0.0,0.0,0.0,0.0,0.0,0.0,0.0,0.0,0.0,0.0,0.0,0.0,0.0,0.0,0.0,0.0,0.0,0.0,0.0,0.0,0.0,0.0,0.0,0.0,0.0,0.0,0.0,0.0,0.0,0.0,0.0,-1.4202,-1.4045,-1.5184,-1.7732,-1.7556,-1.7564,-1.7854,-1.6028,0.0,0.0,0.0,0.0,0.0,0.0,0.0,0.0,0.0,0.0,0.0,0.0,0.0,0.0,0.0,0.0,0.0,0.0,0.0,0.0,0.0,0.0,0.0,0.0,0.0,0.0,0.0,-1.889,0.0,0.0,0.0,0.0,0.0,0.0,0.0,0.0,0.0,0.0,0.0,0.0,0.0,0.0,0.3723,0.4017,0.4168,0.4088,0.0,0.0,0.0992,0.1781,0.2667,0.1676,0.0,0.0,0.0,0.0,0.0,0.0,0.0,0.0,0.0,0.0,0.0,0.0,0.0,0.0,0.0,0.0,0.0,0.0,0.0,0.0,0.0,0.0,0.0,0.0,0.0,0.0,0.0,0.0,0.0,0.0,0.0,0.0,0.0,0.0,0.0,0.0,0.0,0.0,0.0,0.0,0.0,0.0,0.0,0.0,0.0,0.0,0.0,0.0,0.0,0.0,0.0,0.0,0.0,0.0,0.0,-1.371,-1.4669,-1.6103,-1.816,-1.8252,-1.8471,-1.8942,-1.6994,-1.5031,0.0,0.0,0.0,0.0,0.0,0.0,0.0,0.0,0.0,0.0,0.0,0.0,0.0,0.0,0.0,0.0,0.0,0.0,0.0,0.0,0.0,0.0,0.0,0.0,0.0,0.0,0.0,0.0,0.0,0.0,0.0,0.0,0.0,0.0,0.0,0.0,0.0,0.0,0.0,0.0,0.0,0.146,0.1689,0.3752,0.5067,0.0,0.0,0.1335,0.2063,0.2981,0.2503,-0.0633,0.0,0.0,0.0,0.0,0.0,0.0,0.0,0.0,0.0,0.0,0.0,0.0,0.0,0.0,0.0,0.0,0.0,0.0,0.0,0.0,0.0,0.0,0.0,0.0,0.0,0.0,0.0,0.0,0.0,0.0,0.0,0.0,0.0,0.0,0.0,0.0,0.0,0.0,0.0,0.0,0.0,0.0,0.0,0.0,0.0,0.0,0.0,0.0,0.0,0.0,0.0,0.0,0.0,-0.9105,-1.2278,-1.4062,-1.6034,-1.8155,-1.8123,-1.8361,-1.9014,-1.7164,-1.5138,0.0,0.0,0.0,0.0,0.0,0.0,0.0,0.0,0.0,0.0,0.0,0.0,0.0,0.0,0.0,0.0,0.0,0.0,0.0,0.0,0.0,0.0,0.0,0.0,0.0,0.0,0.0,0.0,-2.23,-2.4246,-2.4151,0.0,0.0,0.0,0.0,0.0,0.0,0.0,0.0,0.0,0.0,0.1103,0.342,0.5009,0.0,0.0,0.3612,0.2743,0.228,0.2839,0.205,-0.1805,-0.7492,0.0,0.0,0.0,0.0,0.0,0.0,0.0,0.0,0.0,0.0,0.0,0.0,0.0,0.0,0.0,0.0,0.0,0.0,0.0,0.0,0.0,0.0,0.0,0.0,0.0,0.0,0.0,0.0,0.0,0.0,0.0,0.0,0.0,0.0,0.0,0.0,0.0,0.0,0.0,0.0,0.0,0.0,0.0,0.0,0.0,0.0,0.0,0.0,0.0,0.0,0.0,0.0,-0.9009,-1.2058,-1.4385,-1.6527,-1.8431,-1.8743,-1.8912,-1.8961,-1.7394,-1.5314,0.0,0.0,0.0,0.0,0.0,0.0,0.0,0.0,0.0,0.0,0.0,0.0,0.0,0.0,0.0,0.0,0.0,0.0,0.0,0.0,0.0,0.0,0.0,0.0,0.0,0.0,0.0,0.0,-2.1679,-2.4136,-2.4991,0.0,0.0,0.0,0.0,0.0,0.0,0.0,0.0,0.0,0.0,0.0273,0.4331,0.5964,0.6312,0.5138,0.4259,0.3515,0.2987,0.2759,0.1083,-0.3639,0.0,0.0,0.0,0.0,0.0,0.0,0.0,0.0,0.0,0.0,0.0,0.0,0.0,0.0,0.0,0.0,0.0,0.0,0.0,0.0,0.0,0.0,0.0,0.0,0.0,0.0,0.0,0.0,0.0,0.0,-0.8193,0.0,0.0,0.0,0.0,0.0,0.0,0.0,0.0,0.0,0.0,0.0,0.0,0.0,0.0,0.0,0.0,0.0,0.0,0.0,0.0,0.0,0.0,-0.9755,-1.3502,-1.5964,-1.7821,-1.8893,-2.0346,-2.044,-1.9101,-1.7648,-1.5638,-1.2911,0.0,0.0,0.0,0.0,0.0,0.0,0.0,0.0,0.0,0.0,0.0,0.0,0.0,0.0,0.0,0.0,0.0,0.0,0.0,0.0,0.0,0.0,0.0,0.0,0.0,0.0,-1.7192,-2.1208,-2.4043,0.0,0.0,0.0,0.0,0.0,0.0,0.0,0.0,0.0,0.0,-0.4928,-0.1503,0.3812,0.6218,0.6769,0.5617,0.401,0.3302,0.4009,0.2789,-0.0291,0.0,0.0,0.0,0.0,0.0,0.0,0.0,0.0,0.0,0.0,0.0,0.0,0.0,0.0,0.0,0.0,0.0,0.0,0.0,0.0,0.0,0.0,0.0,0.0,0.0,0.0,0.0,-0.8974,-0.9323,0.0,0.0,0.0,0.0,0.0,0.0,0.0,0.0,0.0,0.0,0.0,-1.5201,-1.5918,0.0,0.0,0.0,0.0,0.0,0.0,0.0,0.0,0.0,0.0,0.0,0.0,-0.9435,-1.3319,-1.5752,-1.7741,-1.9336,-2.0228,-2.0172,-1.9053,-1.7968,-1.5332,-1.1112,0.0,0.0,0.0,0.0,0.0,0.0,0.0,0.0,0.0,0.0,0.0,0.0,0.0,0.0,0.0,0.0,0.0,0.0,0.0,0.0,0.0,0.0,0.0,0.0,0.0,-1.334,0.0,0.0,0.0,0.0,0.0,0.0,0.0,0.0,0.0,0.0,0.0,-1.3051,-0.9486,-0.5865,-0.2395,0.0724,0.1825,0.3432,0.0,0.0,0.0,0.0,0.0,0.0,0.0,0.0,0.0,0.0,0.0,0.0,0.0,0.0,-3.4333,-3.381,-3.2986,-3.2122,-3.1168,0.0,0.0,0.0,0.0,0.0,0.0,0.0,0.0,0.0,0.0,0.0,0.0,0.0,0.0,-1.0966,0.0,-0.9089,0.0,0.0,0.0,0.0,0.0,0.0,0.0,0.0,-1.5073,-1.6486,-1.7592,-1.844,-1.8545,0.0,-1.7238,-1.4877,0.0,0.0,0.0,0.0,0.0,0.0,0.0,0.0,-1.0079,-1.3548,-1.6121,-1.8228,-1.9908,-2.0682,-2.0576,-1.969,-1.7701,-1.4596,-1.023,-0.7225,-0.4575,0.0,0.0,0.0,0.0,0.0,0.0,0.0,0.0,0.0,0.0,0.0,0.0,0.0,0.0,0.0,0.0,0.0,0.0,0.0,0.0,0.0,0.0,0.0,-1.2333,0.0,0.0,0.0,0.0,0.0,0.0,0.0,0.0,0.0,-1.4296,-1.1211,-0.9432,-0.9298,-0.6103,-0.3173,-0.1449,0.0,0.0,0.0,0.0,0.0,0.0,0.0,-0.2529,-1.2386,-1.7143,-2.0282,-2.1991,-2.4908,-2.7793,-3.0192,0.0,0.0,-3.658,-3.7899,-3.8876,-3.662,-3.3973,-3.1114,-2.7962,-2.6082,-2.4629,0.0,0.0,0.0,0.0,0.0,0.0,0.0,0.0,-1.2893,-1.3307,0.0,-1.2708,0.0,0.0,0.0,0.0,0.0,-1.367,0.0,0.0,-1.779,-1.9572,-2.0642,-2.0911,-2.1059,-2.112,-2.1645,-2.0206,-1.6866,-1.2344,0.0,0.0,0.0,0.0,0.0,0.0,-1.164,-1.4235,-1.7166,-1.9331,-2.0612,-2.1643,-2.1718,-2.0739,-1.7033,-1.3582,-1.0624,-0.9044,-0.6829,-0.3801,-0.3884,0.0,0.0,0.0,0.0,0.0,0.0,0.0,0.0,0.0,0.0,0.0,0.0,0.0,0.0,0.0,0.0,0.0,0.0,0.0,0.0,-1.0182,0.0,0.0,0.0,0.0,0.0,0.0,0.0,0.0,0.0,0.0,-1.1894,-0.7447,-0.5508,-0.7401,0.0,0.0,0.0,0.0,-0.3263,-0.2053,-0.441,-0.92,-1.732,-0.9627,-0.6488,-1.7584,0.0,0.0,-2.7186,-2.8929,-3.0184,-3.0965,-3.9144,-4.4707,-4.0333,-4.0019,-4.0272,-4.0,-3.7911,-3.4954,-3.1014,-2.9087,-2.7864,-1.4061,0.0,0.0,0.0,0.0,-1.4345,-1.5515,-1.7041,-1.6234,-1.5883,-1.5887,-1.4883,0.0,0.0,0.0,0.0,0.0,0.0,-1.6713,-1.7691,-1.8867,-2.0055,-2.125,-2.1873,-2.2389,-2.2772,-2.2611,-2.1764,-2.0141,-1.8285,-1.459,-0.9321,0.0,0.0,0.0,0.0,-1.2651,-1.5005,-1.7682,-1.9503,-2.0443,-2.1252,-2.0965,-1.9568,-1.7085,-1.5106,-1.3709,-1.1194,-0.8859,-0.677,-0.6357,0.0,0.0,0.0,0.0,0.0,0.0,0.0,0.0,0.0,0.0,0.0,0.0,0.0,0.0,0.0,0.0,0.0,0.0,0.0,-0.7081,-0.8848,-1.0486,0.0,0.0,0.0,0.0,0.0,0.0,0.0,0.0,0.0,-1.3354,-0.7944,-0.5132,0.0,0.0,-0.5982,-0.6884,-0.8358,-0.9093,-0.8504,0.0,0.0,0.0,-1.4399,-1.115,-1.9681,-2.478,-2.856,-3.0946,-3.0847,-3.1051,-3.293,-3.9467,-4.4476,-4.4366,-4.3993,-4.3252,-4.1539,-3.943,-3.6922,-3.3675,-3.0969,-2.8692,-1.7935,-1.6901,-1.6159,-1.6353,-1.7134,-1.7822,-1.868,-1.9553,-1.8991,-1.8723,-1.8621,-1.7299,-1.5901,-1.4585,-1.426,0.0,0.0,0.0,-1.7896,-1.9009,-1.9943,-2.0856,-2.1686,-2.2404,-2.2949,-2.3392,-2.3263,-2.2983,-2.251,-2.1898,-1.9138,-1.4403,0.0,0.0,-1.1562,-1.329,-1.5127,-1.6987,-1.8803,-2.013,-2.0955,-2.0938,-2.0299,-1.9032,-1.7291,-1.592,-1.5102,-1.3419,-1.1529,-0.9473,-0.8951,-0.7489,0.0,0.0,0.0,0.0,0.0,0.0,0.0,0.0,0.0,0.0,0.0,-0.0238,0.029,0.0,0.0,0.0,-0.131,-0.3998,-0.6881,-0.8069,0.0,0.0,0.0,0.0,0.0,0.0,0.0,-2.2592,-2.2118,-2.0131,-1.5954,-1.1932,-0.8841,-0.7443,-0.7432,-0.7905,-0.8549,0.0,-1.2822,-1.0643,-1.4816,-2.003,-2.4923,-2.0246,-1.8599,-2.6793,-3.03,-3.2638,-3.4081,-3.3938,-3.4314,-3.6429,-4.0498,-4.4186,-4.5165,-4.5302,-4.4642,-4.2463,-3.9796,-3.6948,-3.4175,-3.1524,-2.9247,-2.1093,-2.1601,-1.9294,-1.8994,-2.015,-2.086,-2.1238,-2.1322,-2.1309,-2.1499,-2.1703,-1.982,-1.9097,-1.918,-1.7177,0.0,-1.6108,-1.7754,-1.8955,-1.9737,-2.1011,-2.1786,-2.2048,-2.2614,-2.2994,-2.3275,-2.3625,-2.3909,-2.4074,-2.3721,-2.2755,-2.1099,-1.9192,-1.7791,-1.6978,-1.7454,-1.8365,-1.9648,-2.0259,-2.099,-2.1813,-2.0673,-1.9788,-1.9194,-1.7614,-1.6402,-1.5526,-1.5549,-1.4475,-1.2197,-1.1608,-0.9892,-0.6716,0.0,0.0,0.0,0.0,0.0,0.0,0.0,0.0,0.0,0.0,0.0,0.0,0.0,0.0,0.0,-0.1554,0.0,-0.6897,-0.7784,0.0,0.0,0.0,-1.5593,-1.7464,-1.9362,-2.1352,-2.3379,0.0,0.0,-1.9238,0.0,-1.5334,-0.9846,-0.9755,-0.9869,-0.8811,-1.3459,-1.5145,-1.059,-1.7178,-2.4347,-2.8427,-2.6563,-2.734,-3.5283,-3.7147,-3.6581,-3.6894,-3.7706,-3.8732,-3.9328,-4.1932,-4.3878,-4.4005,-4.4637,-4.4608,-4.3192,-3.9477,-3.5669,-3.3151,-3.1288,-2.9592,-2.2358,-2.3591,-2.2953,-2.2661,-2.2675,-2.3289,-2.3456,-2.3297,-2.3091,-2.242,-2.1444,-2.1317,-2.0931,-2.0233,-1.8564,-1.8479,-1.9658,-2.0051,-2.0581,-2.1282,-2.1574,-2.1899,-2.2144,-2.2455,-2.274,-2.3038,-2.3436,-2.3867,-2.4245,-2.4296,-2.4104,-2.3714,-2.3304,-2.1341,-1.8054,-1.8999,-1.9854,-2.0412,-2.0983,-2.1276,-2.1348,-2.0372,-1.9863,-1.9788,-1.8325,-1.7666,-1.7836,-1.6853,-1.6135,-1.5815,-1.3882,-1.2213,-1.114,-0.7151,0.0,0.0,0.0,0.0,0.0,0.0,0.0,0.0,0.0,-0.0269,-0.1157,0.0,0.1942,0.0,-0.1662,-0.4879,-0.6903,-0.8543,0.0,0.0,-1.4926,-1.6801,-1.7906,-2.0169,-2.2665,-2.5435,-2.4178,-2.2747,-2.1897,-2.1977,-2.0231,-1.5289,-1.4231,-1.3558,-1.2505,-1.6905,-1.8986,-1.5903,-2.1258,-2.7866,-3.1408,-3.2349,-3.3373,-3.7429,-3.7865,-3.7883,-3.8379,-3.9447,-4.016,-4.0119,-4.2479,-4.4304,-4.4393,-4.4463,-4.4221,-4.3208,-3.9085,-3.4591,-3.2083,-3.066,-2.944,-2.2784,-2.4296,-2.4268,-2.43,-2.4441,-2.5023,-2.4941,-2.4414,-2.4596,-2.3895,-2.2659,-2.3032,-2.2332,-2.0967,-2.0552,-2.0344,-2.0225,-2.0509,-2.0697,-2.0825,-2.1143,-2.1458,-2.1855,-2.2203,-2.2495,-2.2768,-2.3304,-2.3797,-2.4302,-2.4614,-2.4751,-2.4798,-2.4815,-2.3436,-2.0754,-2.119,-2.1481,-2.1527,-2.1657,-2.1719,-2.1605,-2.0849,-2.022,-1.9648,-1.8296,-1.7426,-1.7207,-1.5857,-1.5784,-1.704,-1.4211,-1.2177,-1.1339,-0.8358,-0.569,0.0,0.0,0.0,0.0,0.0,0.0,0.0,0.0,0.0,0.0,0.0,0.0184,0.1068,-0.2718,-0.6059,-0.8074,-0.9223,-1.0791,-1.311,-1.538,-1.7272,-1.8723,-2.0937,-2.3538,-2.6566,-2.5818,-2.4606,-2.3555,-2.4129,-2.3622,-2.0579,-1.9963,-1.7985,-1.4237,-1.8995,-2.3407,-2.2221,-2.6391,-3.0647,-3.3178,-3.4342,-3.5733,-3.7715,-3.8233,-3.8291,-3.8606,-3.9204,-3.9753,-4.0183,-4.1644,-4.3297,-4.4379,-4.4524,-4.4237,-4.3121,-3.9043,-3.4287,-3.1085,-3.0204,-2.952,-2.3025,-2.4628,-2.4628,-2.5078,-2.587,-2.6378,-2.597,-2.4993,-2.5731,-2.5458,-2.4487,-2.4499,-2.3395,-2.16,-2.2515,-2.1672,-1.9539,-2.0075,-2.0028,-1.9551,-2.0195,-2.0766,-2.1266,-2.186,-2.2324,-2.2646,-2.3201,-2.3709,-2.422,-2.4648,-2.4808,-2.4816,-2.4792,-2.4426,-2.3687,-2.3216,-2.2826,-2.2508,-2.221,-2.2001,-2.2001,-2.1355,-2.0463,-1.9175,-1.7739,-1.643,-1.5266,-1.3907,-1.4236,-1.6371,-1.3361,-1.0979,-0.9767,-0.8984,-0.7636,0.0,-0.3807,0.0,0.0,0.0,0.0,0.0,0.0,0.0,0.0,-0.1922,-0.1846,-0.0168,-0.3825,-0.7172,-0.9364,-0.9625,-1.0732,-1.3341,-1.5437,-1.7458,-1.9287,-2.1452,-2.3982,-2.6857,-2.739,-2.6661,-2.4458,-2.5058,-2.5534,-2.4861,-2.5166,-2.2957,-1.6868,-2.1837,-2.7509,-2.9375,-3.1624,-3.3352,-3.3586,-3.4459,-3.5795,-3.752,-3.7848,-3.7927,-3.7792,-3.7891,-3.8384,-3.9653,-4.0269,-4.136,-4.3995,-4.4429,-4.4224,-4.3157,-3.8707,-3.4023,-3.075,-2.9936,-2.9624,-2.4247,-2.6387,-2.6412,-2.6832,-2.7522,-2.7651,-2.6757,-2.5283,-2.5958,-2.5947,-2.5408,-2.4838,-2.3884,-2.2798,-2.2652,-2.1786,-2.0401,-2.0075,-1.9605,-1.9047,-1.9682,-2.0101,-2.0462,-2.1336,-2.2109,-2.2859,-2.3187,-2.3441,-2.3652,-2.4228,-2.4284,-2.3864,-2.4172,-2.4271,-2.4104,0.0,0.0,0.0,-2.1955,-2.1576,-2.1342,-2.0333,-1.9436,-1.8789,-1.6867,0.0,-1.4926,-1.2723,-1.2141,-1.3481,-1.1676,0.0,0.0,0.0,0.0,0.0,0.0,0.0,0.0,0.0,0.0,0.0,-0.3341,-0.2078,-0.1306,-0.1583,-0.1339,-0.0371,-0.2849,-0.5806,-0.8805,-0.9654,-1.0684,-1.2521,-1.564,-1.7834,-1.84,-2.1341,-2.4042,-2.5545,-2.6756,-2.6609,-2.452,-2.4861,-2.5421,-2.5714,-2.7093,-2.7827,-2.6904,-2.7683,-2.9682,-3.2136,-3.4669,-3.5599,-3.353,-3.4383,-3.5457,-3.619,-3.6251,-3.619,-3.6211,-3.6222,-3.6696,-3.8051,-3.9454,-4.0746,-4.1901,-4.351,-4.3563,-4.0381,-3.7402,-3.436,-3.0932,-3.0044,-2.945,-2.4666,0.0,-2.6669,-2.705,0.0,-2.7813,-2.7486,-2.6659,-2.6935,-2.6873,-2.6537,-2.637,-2.5605,-2.4366,-2.4215,-2.3024,-2.1113,-2.0611,-1.9908,-1.9171,-1.9362,-1.9747,-2.0229,-2.1061,-2.1611,-2.2004,-2.2951,-2.3366,-2.3268,-2.3721,-2.3906,-2.379,-2.3713,-2.3576,-2.3371,-2.2422,-2.1914,-2.185,-2.1366,-2.1118,-2.1027,-2.0309,-1.951,-1.8554,0.0,0.0,0.0,0.0,0.0,0.0,0.0,0.0,0.0,0.0,0.0,-0.8995,-0.7075,-0.5561,-0.4705,-0.5068,-0.5854,-0.6902,-0.6404,-0.5443,-0.398,-0.3317,-0.2428,-0.1348,-0.2816,-0.4934,-0.7462,-0.9139,-1.0853,-1.2806,-1.5646,-1.7693,-1.8948,-2.0813,-2.2285,-2.3021,-2.4684,-2.5107,-2.3206,-2.3748,-2.4916,-2.6193,-2.7691,-2.9107,-3.0147,-3.0639,-3.184,-3.4409,-3.6271,-3.6861,-3.5109,-3.4817,-3.5387,-3.5767,-3.5367,-3.5193,-3.5622,-3.5627,-3.5821,-3.6699,-3.8668,-4.0462,-4.0599,-4.1442,-4.1341,-3.9183,-3.7111,-3.4733,-3.1606,-3.0277,-2.9276,-2.4871,-2.5777,-2.6655,-2.7055,-2.7189,-2.8066,-2.8451,-2.8431,0.0,0.0,0.0,-2.8062,-2.738,-2.5962,-2.5903,-2.4465,-2.2048,-2.1332,-2.0478,-1.9545,-1.9403,-1.9732,-2.0387,-2.0994,-2.1369,-2.1633,-2.3016,-2.3519,-2.3237,-2.3544,-2.3681,-2.3682,-2.3244,-2.2748,-2.2252,-2.1942,-2.1508,-2.0979,-2.0803,-2.0706,-2.0661,-2.0361,-1.9477,-1.8101,-1.6486,-1.4557,-1.2281,-1.1229,-0.9932,-0.8379,-0.8842,-0.9521,-1.0302,-0.987,-0.9244,-0.8513,-0.815,-0.6813,-0.4175,-0.6439,-0.8264,-0.8972,-0.9475,-0.8971,-0.7189,-0.5526,-0.3962,-0.2575,-0.3147,-0.4285,-0.5993,-0.8441,-1.0858,-1.3174,-1.5343,-1.7414,-1.9413,-2.0186,-2.0634,-2.0944,-2.2531,-2.3065,-2.1931,-2.3115,-2.4872,-2.7095,-2.8606,-2.9596,-3.0864,-3.2281,-3.3811,-3.598,-3.7307,-3.7576,-3.6859,-3.6608,-3.6095,-3.5476,-3.4586,-3.4332,-3.5017,-3.5137,-3.511,-3.5551,-3.7756,-3.9052,-3.944,-3.9483,-3.9027,-3.8822,-3.6901,-3.4605,-3.2225,-3.0387,-2.8915,-2.5168,-2.6602,-2.747,-2.821,-2.8907,-2.9777,-3.0173,-3.0114,-2.8589,-2.8225,-2.876,-2.8717,-2.8025,-2.6879,-2.6445,-2.5272,-2.3587,-2.2158,-2.102,0.0,-2.0288,-2.0556,-2.0956,-2.1084,-2.2076,-2.3747,-2.3945,-2.4039,-2.404,-2.4296,-2.3935,-2.2917,-2.2707,-2.2186,-2.135,-2.2044,-2.1588,-1.9804,-2.0473,-2.0536,-1.9793,-1.9233,-1.8239,-1.6785,-1.5455,-1.3792,-1.1859,-1.1106,-1.0039,-0.866,-0.9294,-0.9996,-1.0636,-1.0376,-0.9954,-0.9608,-1.0464,-1.0217,-0.8345,-0.8533,-0.9456,-1.1228,-1.1905,-1.1307,-0.923,-0.6925,-0.5011,-0.3696,-0.3605,-0.3943,-0.5196,-0.7751,-1.0239,-1.262,-1.4539,-1.6649,-1.9003,-1.972,-2.0479,-2.1558,-2.1252,-2.1165,-2.1288,-2.4116,-2.7403,-2.947,-3.0968,-3.1961,-3.3779,-3.484,-3.564,-3.6911,-3.8127,-3.8709,-3.8614,-3.9538,-3.8147,-3.4331,-3.359,-3.3375,-3.3725,-3.351,-3.3827,-3.5172,-3.5956,-3.6706,-3.8057,-3.8877,-3.883,-3.8591,-3.5857,-3.2814,-3.1959,-3.0152,-2.8184,-2.5994,-2.6792,-2.8097,-2.885,-2.9263,-3.0142,-3.051,-3.0472,-2.9689,-2.9484,-2.9733,-2.9666,-2.9071,-2.8131,-2.7711,-2.6525,-2.4697,-2.3555,-2.2388,-2.1212,-2.072,-2.0813,-2.1424,-2.1754,-2.2419,-2.3406,-2.416,-2.4398,-2.4175,-2.4284,-2.4084,-2.3498,-2.2791,-2.2085,-2.1485,-2.1623,-2.0921,-1.9346,-1.9652,-1.9434,-1.8535,-1.8116,-1.738,-1.6266,-1.5071,-1.3604,-1.1863,-1.1301,-1.0381,-0.9038,-0.9769,-1.0289,-1.0383,-1.049,-1.0289,-0.9783,-1.0913,-1.1075,-0.9729,-1.0013,-1.1046,-1.2933,-1.2552,-1.2294,-1.2333,-0.9819,-0.7319,-0.524,-0.5455,-0.6345,-0.7528,-0.8556,-1.0311,-1.3278,-1.5134,-1.6525,-1.7465,-1.8807,-2.045,-2.2489,-2.1993,-2.1262,-2.1262,-2.6439,-3.084,-3.2946,-3.4466,-3.578,-3.6256,-3.8903,-4.0524,-3.9958,-3.9832,-3.9735,-3.9707,-4.0366,-3.8764,-3.4228,-3.259,-3.2415,-3.2863,-3.252,-3.2825,-3.4853,-3.53,-3.5575,-3.6595,-3.6703,-3.7099,-3.7555,-3.5103,-3.2568,-3.1303,-2.9505,-2.7595,-2.6455,-2.6718,-2.8249,-2.9115,-2.9531,-3.0188,-3.049,-3.0491,-3.0491,-3.046,-3.0417,-3.0379,-2.9971,-2.9356,-2.8899,-2.7774,-2.6235,-2.523,-2.4124,-2.2838,-2.1502,-2.1439,-2.2366,-2.3077,-2.3358,-2.3417,-2.4528,-2.4904,-2.4606,-2.4542,-2.4417,-2.4085,-2.2975,-2.2066,-2.1484,-2.1276,-2.0401,-1.898,-1.8183,-1.7634,-1.7339,-1.669,-1.6067,-1.5543,-1.4451,-1.3216,-1.1886,-1.1443,-1.0751,-0.9718,-1.0092,-1.0223,-0.9873,-1.0262,-1.0344,-1.0061,-1.0797,-1.0994,-1.0356,-1.0996,-1.2012,-1.3162,-1.2475,-1.2709,-1.4261,-1.2654,-1.0107,-0.7675,-0.8295,-0.9698,-1.095,-1.0279,-1.112,-1.4577,-1.675,-1.7564,-1.7009,-1.8407,-2.1522,-2.5062,-2.4522,-2.315,-2.4469,-3.0145,-3.5373,-3.697,-3.888,-3.9652,-3.9361,-4.2844,-4.4675,-4.422,-4.2776,-4.1632,-4.0969,-4.0869,-3.8908,-3.4276,-3.1992,-3.1638,-3.209,-3.143,-3.1495,-3.374,-3.4974,-3.5266,-3.5245,-3.5186,-3.5552,-3.6184,-3.4051,-3.1636,-3.0144,-2.8917,-2.7255,-2.588,-2.6614,-2.7596,-2.8852,-3.0213,-3.0348,-3.0428,-3.0479,-3.049,-3.049,-3.0469,-3.0559,-3.0511,-3.0327,-2.9421,-2.883,-2.8444,-2.7083,-2.598,-2.5207,-2.338,-2.3147,-2.4332,-2.534,-2.5664,-2.5373,-2.5572,-2.5807,-2.5944,-2.566,-2.4997,-2.391,-2.297,-2.1867,-2.0696,-2.1218,-2.057,-1.84,-1.5564,-1.4898,-1.629,-1.4664,-1.3739,-1.3941,-1.3078,-1.2239,-1.1465,-1.131,-1.0965,-1.0479,-0.9985,-0.9606,-0.9429,-0.9619,-1.0022,-1.0591,-1.0529,-1.0447,-1.0585,-1.1294,-1.1427,-1.0744,-1.1786,-1.3083,-1.4654,-1.4482,-1.3084,-1.1079,-1.1777,-1.3517,-1.5306,-1.301,-1.2981,-1.7254,-1.9931,-2.0386,-1.9169,-1.9552,-2.3713,-3.262,-2.9736,-2.7118,-2.8486,-3.5499,-4.1,-4.1036,-4.2583,-4.3686,-4.3699,-4.5363,-4.7592,-4.8701,-4.7505,-4.473,-4.3285,-4.1844,-3.8963,-3.4488,-3.1949,-3.1208,-3.1123,-3.1026,-3.0892,-3.1861,-3.3973,-3.54,-3.5113,-3.5138,-3.5007,-3.5053,-3.3173,-3.0324,-2.8838,-2.8216,-2.7335,-2.6408,-2.7113,-2.797,-2.8994,-2.999,-3.008,-3.0122,-3.015,-3.0196,-3.019,-3.0216,-3.0273,-3.0386,-3.0501,-3.004,-2.9543,-2.8945,-2.7971,-2.6974,-2.5971,-2.4786,-2.4829,-2.5711,-2.5753,-2.6327,-2.7346,-2.7147,-2.7022,-2.6947,-2.6241,-2.5248,-2.4233,-2.3585,-2.2321,-2.0531,-2.1196,-2.0811,-1.9168,-1.6399,-1.5174,-1.5353,-1.4029,-1.3113,-1.2908,-1.2452,-1.1876,-1.1193,-1.0869,-1.0612,-1.0228,-0.9859,-0.9279,-0.8658,-0.9196,-0.9615,-0.9799,-0.9967,-1.0527,-1.1527,-1.1157,-1.1103,-1.1605,-1.2247,-1.376,-1.6314,-1.5527,-1.4581,-1.4721,-1.5161,-1.6647,-1.8788,-1.4699,-1.3965,-2.025,-2.5121,-2.6549,-2.3424,-2.3512,-2.7298,-3.5307,-3.5601,-3.3607,-3.3517,-4.0237,-4.5219,-4.4953,-4.5718,-4.649,-4.6445,-4.7877,-4.9067,-4.8935,-4.5938,-4.4035,-4.4171,-4.2613,-3.8949,-3.4676,-3.1919,-3.0839,-3.0795,-3.0771,-3.0724,-3.0756,-3.3344,-3.4723,-3.3785,-3.3138,-3.2782,-3.3384,-3.2807,-3.024,-2.9095,-2.8488,-2.7472,-2.6944,-2.7786,-2.8612,-2.9257,-2.9765,-2.9834,-2.9867,-2.988,-2.9946,-2.9943,-2.9889,-2.9935,-3.0037,-3.0171,-3.0253,-2.9883,-2.9213,-2.8722,-2.7851,-2.676,-2.6286,-2.6372,-2.6876,-2.7147,-2.7618,-2.8436,-2.8464,-2.8095,-2.7484,-2.664,-2.5615,-2.4649,-2.4084,-2.3005,-2.1578,-2.1654,-2.0538,-1.856,-1.6859,-1.581,-1.5034,-1.3781,-1.275,-1.2135,-1.1695,-1.1211,-1.0684,-1.0296,-0.9987,-0.9728,-0.9332,-0.8802,-0.8094,-0.8603,-0.9013,-0.9188,-0.9671,-1.0462,-1.1624,-1.0772,-1.0723,-1.1907,-1.246,-1.4287,-1.6995,-1.6985,-1.6933,-1.7857,-1.8893,-2.0714,-2.2176,-1.6854,-1.6511,-2.4279,-3.0203,-3.1678,-2.8304,-2.8353,-3.2175,-3.9355,-4.0391,-4.0161,-3.9764,-4.466,-4.8552,-4.7527,-4.7988,-4.8609,-4.8389,-4.9499,-5.027,-4.9193,-4.4616,-4.248,-4.4393,-4.1694,-3.7778,-3.4288,-3.1348,-3.0797,-3.0779,-3.0785,-3.1728,-3.2492,-3.3886,-3.4041,-3.3248,-3.2107,-3.1114,-3.2645,-3.2205,-3.0368,-2.9457,-2.9008,-2.7928,-2.7062,-2.8537,-2.9264,-2.9549,-2.9696,-2.9748,-2.9784,-2.9731,-2.9834,-2.9782,-2.9604,-2.9602,-2.951,-2.9401,-2.9761,-2.9918,-2.9708,-2.9266,-2.8801,-2.824,-2.7895,-2.777,-2.7909,-2.9867,-3.0029,-2.8793,-2.9311,-2.8728,-2.7207,-2.6842,-2.6176,-2.5067,-2.4302,-2.3957,-2.3661,-2.2216,-1.9537,-1.6326,-1.6348,-1.6129,-1.4977,-1.3714,-1.2493,-1.1421,-1.0391,-1.0056,-0.9994,-0.9661,-0.937,-0.9087,-0.8415,-0.7958,-0.7838,-0.7678,-0.8117,-0.9184,-0.9855,-1.0178,-1.0282,-1.0235,-1.0306,-1.066,-1.203,-1.4374,-1.7831,-1.9122,-1.9778,-2.0084,-2.2821,-2.5201,-2.6284,-2.1941,-2.076,-2.8217,-3.3364,-3.444,-3.2255,-3.4202,-3.9057,-4.387,-4.414,-4.4382,-4.7657,-4.9381,-4.9784,-4.9484,-4.9822,-5.0061,-5.0026,-5.047,-5.0665,-4.9375,-4.5541,-4.1443,-4.2791,-4.0441,-3.5834,-3.2367,-3.115,-3.0732,-3.0768,-3.1094,-3.2579,-3.3205,-3.2278,-3.1941,-3.2263,-3.197,-3.1123,-3.135,-3.1363,-3.0238,-2.9771,-3.0171,-2.911,-2.755,-2.8223,-2.8973,-2.9212,-2.9129,-2.9191,-2.9151,-2.8968,-2.9077,-2.9095,-2.9052,-2.9119,-2.9037,-2.8842,-2.9012,-2.9241,-2.9439,-2.9027,-2.8968,-2.9124,-2.88,-2.8878,-2.9515,-3.056,-3.0717,-3.0112,-3.0314,-2.9654,-2.798,-2.6754,-2.5772,-2.5224,-2.4696,-2.4413,-2.383,-2.1513,-1.912,-1.7438,-1.6366,-1.5358,-1.4788,-1.3629,-1.2466,-1.1442,-1.0949,-1.0538,-1.0171,-0.9865,-0.9554,-0.9326,-0.8483,-0.802,-0.8106,-0.8201,-0.8678,-0.9636,-1.0023,-1.0188,-1.017,-1.0193,-1.0235,-1.041,-1.1866,-1.4778,-1.8516,-2.0111,-2.0898,-2.2232,-2.4146,-2.696,-3.063,-3.1378,-3.2027,-3.2852,-3.6042,-3.7553,-3.6126,-3.779,-4.1721,-4.5763,-4.628,-4.6945,-4.9102,-5.0207,-5.0333,-5.0363,-5.0406,-5.0486,-5.0625,-5.0776,-5.0568,-4.8618,-4.384,-4.0456,-4.4762,-4.081,-3.6351,-3.277,-3.0756,-3.0716,-3.0719,-3.075,-3.186,-3.1868,-3.0727,-3.0714,-3.1414,-3.1449,-3.0701,-3.0699,-3.0598,-3.0351,-3.0094,-3.0309,-2.9347,-2.7901,-2.8161,-2.8669,-2.881,-2.8669,-2.8676,-2.8615,-2.8496,-2.8603,-2.8705,-2.883,-2.8916,-2.8959,-2.89,-2.8721,-2.8889,-2.9314,-2.8905,-2.9089,-2.9751,-2.9589,-2.9868,-3.053,-3.0966,-3.1222,-3.124,-3.0898,-2.9947,-2.8363,-2.6961,-2.5951,-2.5257,-2.4954,-2.4626,-2.3853,-2.135,-1.9217,-1.7342,-1.5873,-1.5018,-1.4407,-1.3497,-1.2694,-1.1921,-1.1322,-1.0723,-1.0282,-0.9737,-0.9503,-0.933,-0.832,-0.7671,-0.7725,-0.8138,-0.8851,-0.9755,-1.0099,-1.0185,-1.0227,-1.0446,-1.0833,-1.1339,-1.2297,-1.5033,-2.0102,-2.1588,-2.2403,-2.3427,-2.5898,-2.9311,-3.3486,-3.7209,-3.8195,-3.6132,-3.8642,-3.9996,-3.8188,-4.0207,-4.3805,-4.7616,-4.8414,-4.8919,-5.0065,-5.0486,-5.0645,-5.0773,-5.0682,-5.0661,-5.0405,-5.0612,-4.995,-4.7583,-4.2251,-3.9791,-4.0556,-3.7743,-3.5129,-3.1914,-3.0565,-3.0545,-3.0614,-3.0658,-3.0622,-3.0389,-3.0375,-3.0414,-3.049,-3.0626,-3.0669,-3.0693,-3.0486,-3.0253,-3.0208,-3.0297,-2.924,-2.8069,-2.8406,-2.8521,-2.8388,-2.8264,-2.8237,-2.8334,-2.8378,-2.8376,-2.8569,-2.8905,-2.9047,-2.9158,-2.939,-2.89,-2.899,-2.9438,-2.9092,-2.9325,-2.9969,-3.0225,-3.0607,-3.1072,-3.1373,-3.1686,-3.2065,-3.0905,-2.9466,-2.8,-2.7324,-2.6463,-2.5407,-2.4852,-2.446,-2.4261,-2.1955,-1.8871,-1.5813,-1.53,-1.5014,-1.3988,-1.3235,-1.2763,-1.2568,-1.1092,-1.0158,-1.0194,-0.9297,-0.898,-0.9144,-0.7966,-0.6878,-0.6797,-0.752,-0.8458,-0.9583,-1.0025,-1.0147,-1.0271,-1.0974,-1.1973,-1.3136,-1.3168,-1.5622,-2.0978,-2.3702,-2.4424,-2.4147,-2.7862,-3.2226,-3.5015,-3.6244,-3.6631,-3.7191,-4.0382,-4.1819,-4.1277,-4.2124,-4.5112,-4.9415,-5.0354,-5.0529,-5.0683,-5.0757,-5.0827,-5.0827,-5.0709,-5.0397,-4.9724,-5.0085,-4.9189,-4.6081,-4.1359,-3.8147,-3.6209,-3.421,-3.258,-3.0958,-3.0513,-3.0278,-3.0402,-3.046,-3.0482,-3.0379,-3.1109,-3.1181,-3.1226,-3.1296,-3.0964,-3.0869,-3.0537,-3.0112,-2.9857,-2.9679,-2.9283,-2.7951,-2.8073,-2.7992,-2.7833,-2.7666,-2.7537,-2.7495,-2.7535,-2.7422,-2.7795,-2.8453,-2.8589,-2.883,-2.9128,-2.8972,-2.921,-2.9729,-2.9306,-2.9525,-3.0213,-3.0116,-3.0555,-3.1266,-3.1356,-3.1297,-3.1105,-3.0126,-2.9009,-2.7839,-2.6621,-2.5656,-2.5083,-2.4204,-2.3771,-2.3666,-2.1192,-1.8273,-1.5806,-1.505,-1.4459,-1.3558,-1.2539,-1.1817,-1.123,-0.9964,-0.9233,-0.9257,-0.9026,-0.8657,-0.8149,-0.7914,-0.7527,-0.7204,-0.8284,-0.9297,-0.97,-0.9952,-1.0412,-1.0939,-1.1404,-1.257,-1.425,-1.4622,-1.7189,-2.1866,-2.4347,-2.5114,-2.5244,-3.0321,-3.4954,-3.5714,-3.6011,-3.6551,-3.787,-4.0292,-4.2405,-4.3253,-4.5183,-4.796,-5.0338,-5.0921,-5.089,-5.0941,-5.0941,-5.0638,-5.0648,-5.0284,-4.9708,-4.9547,-4.9289,-4.8419,-4.5746,-4.0631,-3.5758,-3.3916,-3.2648,-3.1521,-3.038,-2.995,-3.0094,-3.0229,-3.0248,-3.0259,-3.0704,-3.1442,-3.2026,-3.2077,-3.1835,-3.1507,-3.1006,-3.0652,-3.0046,-2.9312,-2.8739,-2.8255,-2.7518,-2.7678,-2.7542,-2.7282,-2.7017,-2.6903,-2.6838,-2.6774,-2.6741,-2.7233,-2.8032,-2.8631,-2.897,-2.9154,-2.9034,-2.9337,-2.9902,-2.9358,-2.9599,-3.0356,-3.0301,-3.0879,-3.2015,-3.2073,-3.139,-3.0608,-2.9845,-2.8854,-2.7703,-2.6455,-2.5663,-2.5209,-2.4139,-2.3371,-2.2979,-2.0649,-1.8061,-1.5703,-1.4707,-1.3879,-1.2804,-1.1621,-1.0617,-0.9932,-0.8714,-0.7966,-0.7852,-0.7773,-0.7863,-0.7841,-0.7993,-0.7583,-0.6882,-0.8059,-0.9202,-0.9871,-1.0546,-1.1138,-1.1458,-1.2419,-1.3715,-1.5471,-1.6106,-1.805,-2.1963,-2.4367,-2.5459,-2.626,-3.0422,-3.4588,-3.5663,-3.6009,-3.6785,-3.8361,-4.0082,-4.2206,-4.4631,-4.6562,-4.8662,-5.0351,-5.1095,-5.1102,-5.1089,-5.0178,-4.9835,-4.9732,-4.9382,-4.89,-4.8852,-4.8593,-4.7268,-4.4249,-3.8157,-3.4361,-3.1993,-3.0986,-3.0426,-2.9771,-2.9212,-2.9735,-3.0164,-3.0056,-3.0026,-3.0877,-3.1633,-3.3063,-3.3306,-3.2555,-3.2039,-3.1472,-3.0715,-2.9193,-2.8146,-2.7518,-2.6936,-2.6842,-2.7317,-2.71,-2.6774,-2.6402,-2.6333,-2.623,-2.6265,-2.638,-2.69,-2.7794,-2.8703,-2.9381,-2.9423,-2.9108,-2.9375,-2.9968,-2.9502,-2.9796,-3.0477,-3.0764,-3.1468,-3.2789,-3.2905,-3.206,-3.0655,-2.9992,-2.8944,-2.7548,-2.674,-2.6307,-2.5539,-2.4376,-2.3414,-2.2197,-2.0281,-1.7752,-1.5013,-1.426,-1.332,-1.1799,-1.0387,-0.9411,-0.8846,-0.7428,-0.6529,-0.6313,-0.6087,-0.6699,-0.819,-0.7887,-0.7213,-0.6536,-0.7132,-0.8416,-0.9817,-1.158,-1.1894,-1.2107,-1.3605,-1.5524,-1.6555,-1.737,-1.9117,-2.1959,-2.4919,-2.6595,-2.6573,-2.9419,-3.2558,-3.5172,-3.6021,-3.6886,-3.8561,-4.0364,-4.2549,-4.5228,-4.5905,-4.7844,-5.0364,-5.1219,-5.092,-5.0428,-4.8735,-4.8087,-4.7838,-4.7779,-4.7526,-4.6964,-4.6615,-4.6804,-4.2367,-3.6055,-3.1816,-2.9096,-3.0091,-2.9511,-2.8838,-2.8535,-2.9219,-2.9896,-2.9875,-3.0075,-3.093,-3.2068,-3.3528,-3.4222,-3.3474,-3.2646,-3.1957,-3.0479,-2.8316,-2.6883,-2.6138,-2.5672,-2.6686,-2.6641,-2.6349,-2.6154,-2.5974,-2.561,-2.5427,-2.5368,-2.5502,-2.6174,-2.7243,-2.7762,-2.8556,-2.9279,-2.9371,-2.964,-2.9815,-2.9594,-3.03,-3.1489,-3.1176,-3.1487,-3.2313,-3.2651,-3.2168,-3.0991,-3.0107,-2.9131,-2.7724,-2.6466,-2.5621,-2.4976,-2.3895,-2.2617,-2.1215,-2.0032,-1.7645,-1.4742,-1.3417,-1.2209,-1.059,-0.8948,-0.7842,-0.722,-0.6235,-0.5634,-0.5521,-0.5203,-0.5649,-0.6972,-0.6975,-0.6964,-0.6993,-0.7335,-0.827,-0.9995,-1.1536,-1.256,-1.2739,-1.4233,-1.6008,-1.741,-1.7877,-1.925,-2.2584,-2.6892,-2.9004,-2.9552,-3.058,-3.2225,-3.5125,-3.5974,-3.7225,-3.9715,-4.0945,-4.1942,-4.2838,-4.4759,-4.7425,-5.0287,-5.0768,-4.9404,-4.698,-4.6062,-4.5536,-4.5456,-4.5411,-4.5061,-4.4149,-4.3311,-4.291,-3.9668,-3.4457,-2.9722,-2.7085,-2.8349,-2.8632,-2.7893,-2.7913,-2.8608,-2.9252,-2.9656,-3.0144,-3.0857,-3.2311,-3.3767,-3.4429,-3.4391,-3.3508,-3.2102,-2.952,-2.7059,-2.5428,-2.4396,-2.4314,-2.6556,-2.6208,-2.5901,-2.5659,-2.5416,-2.495,-2.4719,-2.4614,-2.4559,-2.5184,-2.626,-2.7332,-2.7981,-2.8511,-2.8856,-2.9281,-2.965,-2.9607,-3.0278,-3.1312,-3.1396,-3.1673,-3.2099,-3.2244,-3.1753,-3.1004,-2.9958,-2.8758,-2.7512,-2.6212,-2.5359,-2.4764,-2.3771,-2.2618,-2.1563,-1.9951,-1.7709,-1.4772,-1.3055,-1.148,-0.9873,-0.8082,-0.6949,-0.6222,-0.5494,-0.5079,-0.4969,-0.4709,-0.511,-0.6091,-0.639,-0.6705,-0.7393,-0.7455,-0.8479,-1.0625,-1.2009,-1.2873,-1.3883,-1.5388,-1.7004,-1.8264,-1.8705,-2.0329,-2.2929,-2.666,-2.8871,-3.0502,-3.0792,-3.1853,-3.3411,-3.493,-3.6872,-3.8876,-4.028,-4.0867,-4.0929,-4.3428,-4.5875,-4.7793,-4.8316,-4.6851,-4.2592,-4.2763,-4.2808,-4.2532,-4.2605,-4.1638,-4.044,-3.9604,-3.8192,-3.5289,-3.2162,-2.7535,-2.5921,-2.7056,-2.7518,-2.6871,-2.7026,-2.777,-2.8695,-2.9343,-3.0125,-3.098,-3.2497,-3.372,-3.43,-3.4245,-3.2721,-3.081,-2.8196,-2.605,-2.4393,-2.3126,-2.3004,-2.6332,-2.5905,-2.5626,-2.5208,-2.4735,-2.4385,-2.4162,-2.3925,-2.3775,-2.4208,-2.5332,-2.7039,-2.7674,-2.7487,-2.8146,-2.8679,-2.9577,-2.9546,-3.0063,-3.0754,-3.1234,-3.166,-3.1814,-3.1762,-3.1291,-3.0618,-2.9463,-2.8206,-2.7045,-2.6036,-2.5328,-2.4703,-2.3976,-2.3119,-2.1817,-2.0197,-1.7649,-1.4753,-1.2802,-1.1141,-0.9519,-0.7757,-0.6524,-0.5882,-0.5424,-0.5013,-0.481,-0.4567,-0.4899,-0.6009,-0.6234,-0.6821,-0.7487,-0.7469,-0.9075,-1.1544,-1.2704,-1.3721,-1.5059,-1.6651,-1.8202,-1.9021,-1.9955,-2.1165,-2.2784,-2.4882,-2.7231,-2.9435,-3.0496,-3.1201,-3.2186,-3.4041,-3.5982,-3.7696,-3.8492,-3.9223,-4.0655,-4.223,-4.3738,-4.4954,-4.5227,-4.293,-4.0554,-3.9557,-4.0419,-4.017,-3.9944,-3.8987,-3.7608,-3.6473,-3.4532,-3.1829,-2.8553,-2.5143,-2.5066,-2.5843,-2.5993,-2.587,-2.6158,-2.6825,-2.8083,-2.8923,-2.9899,-3.1052,-3.2613,-3.3601,-3.4164,-3.3421,-3.209,-2.9652,-2.7107,-2.511,-2.3367,-2.2369,-2.19,-2.5738,-2.5432,-2.4974,-2.4614,-2.423,-2.3994,-2.3595,-2.3216,-2.3313,-2.3927,-2.5085,-2.6385,-2.7235,-2.7728,-2.782,-2.8598,-2.9734,-2.9589,-2.9758,-3.0734,-3.0763,-3.0777,-3.0955,-3.1263,-3.1078,-3.0184,-2.8942,-2.7741,-2.658,-2.56,-2.4791,-2.4292,-2.3787,-2.2789,-2.1361,-2.0155,-1.7908,-1.4984,-1.2898,-1.1024,-0.9273,-0.7609,-0.6436,-0.5928,-0.5712,-0.564,-0.5511,-0.5114,-0.5288,-0.6114,-0.7052,-0.7552,-0.7273,-0.7586,-0.9267,-1.1755,-1.3767,-1.4775,-1.5453,-1.6965,-1.8371,-1.9238,-2.0077,-2.0739,-2.119,-2.4003,-2.5749,-2.73,-2.916,-3.115,-3.3287,-3.3926,-3.5319,-3.6816,-3.7367,-3.7904,-3.9532,-4.0886,-4.2337,-4.3726,-4.4194,-4.3101,-4.0058,-3.8186,-3.8203,-3.7902,-3.7214,-3.6414,-3.4961,-3.335,-3.163,-2.9364,-2.5711,-2.2993,-2.4005,-2.4681,-2.4971,-2.5169,-2.5471,-2.618,-2.7431,-2.8293,-2.9151,-3.077,-3.2727,-3.3508,-3.4086,-3.3504,-3.2369,-2.9214,-2.6107,-2.4313,-2.2693,-2.1676,-2.0909,-2.5323,-2.4926,-2.4451,-2.412,-2.3809,-2.3465,-2.3184,-2.3044,-2.3041,-2.3602,-2.4563,-2.5621,-2.6515,-2.7319,-2.7272,-2.8106,-2.9704,-2.9943,-3.0134,-3.054,-3.0433,-3.0237,-3.0372,-3.0658,-3.0543,-2.9827,-2.8583,-2.7407,-2.6394,-2.5293,-2.4434,-2.3878,-2.3556,-2.2627,-2.1235,-2.018,-1.8228,-1.5591,-1.3421,-1.1519,-0.9816,-0.8212,-0.687,-0.6361,-0.6272,-0.6276,-0.6087,-0.5899,-0.6036,-0.6827,-0.8203,-0.8493,-0.7546,-0.8189,-0.9982,-1.2082,-1.4067,-1.5599,-1.6472,-1.7352,-1.8483,-1.9641,-2.0268,-2.0958,-2.1877,-2.4096,-2.526,-2.5882,-2.7427,-2.9669,-3.331,-3.321,-3.4095,-3.5655,-3.6141,-3.6785,-3.8553,-3.9795,-4.1218,-4.2846,-4.3474,-4.1397,-3.9177,-3.6751,-3.5483,-3.5009,-3.404,-3.316,-3.1306,-2.9897,-2.9632,-2.7385,-2.3464,-2.1606,-2.2755,-2.354,-2.4086,-2.4457,-2.4912,-2.5857,-2.7056,-2.7719,-2.83,-3.0483,-3.2753,-3.3441,-3.385,-3.317,-3.1166,-2.7587,-2.4684,-2.3244,-2.1928,-2.0717,-2.0214,-2.4958,-2.4467,-2.4021,-2.3724,-2.3436,-2.3006,-2.2936,-2.3069,-2.2908,-2.3334,-2.4096,-2.4901,-2.5855,-2.6526,-2.642,-2.7674,-2.9246,-3.0045,-3.0098,-3.0086,-2.9563,-2.9383,-2.9445,-2.9417,-2.9228,-2.9186,-2.8019,-2.7001,-2.5953,-2.5037,-2.4099,-2.3603,-2.331,-2.2422,-2.1215,-2.0096,-1.8382,-1.5905,-1.4096,-1.239,-1.0862,-0.9327,-0.807,-0.7356,-0.7402,-0.7429,-0.719,-0.6896,-0.6816,-0.7316,-0.9577,-0.9596,-0.8938,-0.9261,-1.1047,-1.2659,-1.4349,-1.5484,-1.6585,-1.7552,-1.8539,-2.0098,-2.0386,-2.1258,-2.2724,-2.4111,-2.5043,-2.5707,-2.6779,-2.8671,-3.191,-3.2146,-3.2783,-3.425,-3.4843,-3.5701,-3.7444,-3.8542,-3.9171,-4.0578,-4.1142,-4.0068,-3.6804,-3.3998,-3.2966,-3.1975,-3.0982,-2.9892,-2.8163,-2.6484,-2.6135,-2.5299,-2.1607,-2.0615,-2.1701,-2.3554,-2.395,-2.4063,-2.4514,-2.5514,-2.6693,-2.7643,-2.8652,-3.0777,-3.2599,-3.3025,-3.2056,-3.0064,-2.7744,-2.4931,-2.3581,-2.25,-2.1176,-1.9727,-1.938,-2.4426,-2.4067,-2.3711,-2.3348,-2.3067,-2.3083,-2.2951,-2.2784,-2.2844,-2.3281,-2.4054,-2.4525,-2.539,-2.6131,-2.6119,-2.6932,-2.8368,-2.9021,-2.9247,-2.9177,-2.8595,-2.8146,-2.7881,-2.7818,-2.7207,-2.6552,-2.6337,-2.6015,-2.484,-2.3975,-2.3564,-2.3335,-2.2698,-2.1737,-2.0791,-1.9641,-1.8149,-1.6187,-1.4737,-1.3293,-1.1824,-1.0595,-0.9538,-0.8873,-0.9095,-0.918,-0.892,-0.8055,-0.7588,-0.8305,-1.0401,-1.1256,-1.1124,-1.1249,-1.2321,-1.3737,-1.4611,-1.5318,-1.5855,-1.7081,-1.8172,-1.9173,-1.9933,-2.1029,-2.2584,-2.4068,-2.4879,-2.5868,-2.7679,-3.0007,-3.0624,-3.1166,-3.2509,-3.377,-3.3841,-3.3946,-3.5632,-3.5725,-3.5116,-3.64,-3.7737,-3.8363,-3.4695,-3.154,-3.0061,-2.899,-2.8037,-2.7502,-2.6509,-2.4241,-2.2407,-2.1309,-1.9754,-1.9926,-2.0718,-2.2924,-2.4248,-2.4063,-2.4423,-2.5134,-2.6348,-2.7669,-2.9186,-3.0515,-3.1305,-3.1574,-2.9904,-2.7581,-2.5996,-2.445,-2.316,-2.1885,-2.0462,-1.9091,-1.8149,-2.3994,-2.3566,-2.3187,-2.2873,-2.2701,-2.2796,-2.2926,-2.2954,-2.2986,-2.3385,-2.391,-2.4168,-2.4811,-2.5741,-2.5931,-2.6671,-2.7837,-2.8524,-2.8753,-2.862,-2.7913,-2.735,-2.6852,-2.6737,-2.5882,-2.5277,-2.5166,-2.487,-2.3796,-2.3203,-2.2892,-2.239,-2.1869,-2.1192,-2.0342,-1.9554,-1.8068,-1.6525,-1.5593,-1.4746,-1.355,-1.2538,-1.1706,-1.096,-1.0609,-1.0559,-1.0341,-0.9896,-0.9079,-0.9274,-1.1064,-1.2097,-1.2372,-1.2618,-1.3116,-1.4323,-1.4776,-1.4946,-1.5278,-1.6608,-1.7945,-1.88,-1.97,-2.0898,-2.2308,-2.3639,-2.4639,-2.5716,-2.7888,-3.0317,-3.0855,-3.0819,-3.1602,-3.2552,-3.2198,-3.2269,-3.2925,-3.2787,-3.2689,-3.2846,-3.502,-3.5077,-3.2169,-2.9416,-2.7387,-2.6047,-2.5081,-2.4656,-2.44,-2.2452,-1.9989,-1.9403,-1.8777,-1.9663,-2.0301,-2.177,-2.375,-2.3858,-2.4229,-2.4939,-2.5689,-2.6859,-2.7932,-2.9098,-2.9643,-2.906,-2.8753,-2.6775,-2.5397,-2.3933,-2.2648,-2.1273,-1.9801,-1.8537,-1.7563,-2.3595,-2.3009,-2.2723,-2.2509,-2.2405,-2.2523,-2.2793,-2.3097,-2.308,-2.3412,-2.3884,-2.376,-2.4203,-2.5261,-2.5918,-2.6671,-2.7734,-2.8024,-2.8147,-2.7917,-2.7216,-2.6711,-2.6425,-2.5987,-2.5192,-2.3891,-2.3393,-2.3368,-2.3294,-2.285,-2.2128,-2.168,-2.1367,-2.058,-1.958,-1.925,-1.8193,-1.7402,-1.6729,-1.6272,-1.5427,-1.4647,-1.3807,-1.267,-1.2014,-1.1693,-1.1546,-1.1365,-1.083,-1.0763,-1.1703,-1.2849,-1.2697,-1.3018,-1.3567,-1.4196,-1.4541,-1.4859,-1.5611,-1.6376,-1.7622,-1.8461,-1.9532,-2.0773,-2.2063,-2.3336,-2.4406,-2.5629,-2.7183,-2.9397,-3.0207,-3.0207,-3.0476,-3.0948,-3.077,-3.0268,-3.0806,-3.0879,-3.0526,-3.1325,-3.3048,-3.1962,-2.9236,-2.7114,-2.4998,-2.362,-2.2643,-2.1706,-2.1359,-2.0475,-1.8774,-1.8434,-1.8423,-1.9449,-2.0087,-2.0448,-2.2141,-2.3111,-2.3776,-2.4619,-2.5191,-2.5895,-2.671,-2.7031,-2.5333,-2.4831,-2.533,-2.5499,-2.3325,-2.1841,-2.1515,-2.0425,-1.8592,-1.7588,-1.6842,-2.2934,-2.2495,-2.2569,-2.2477,-2.2334,-2.2733,-2.2936,-2.2991,-2.3071,-2.3289,-2.3623,-2.3378,-2.3713,-2.4734,-2.6153,-2.6375,-2.6443,-2.6714,-2.7018,-2.6799,-2.5972,-2.5363,-2.4898,-2.4431,-2.3791,-2.269,-2.1849,-2.1934,-2.2286,-2.2384,-2.2068,-2.1296,-2.0499,-1.991,-1.9116,-1.8944,-1.8135,-1.7606,-1.7431,-1.6761,-1.5653,-1.5,-1.4569,-1.4132,-1.3648,-1.3213,-1.2876,-1.2698,-1.2338,-1.2403,-1.2785,-1.306,-1.2877,-1.3019,-1.3328,-1.3706,-1.4163,-1.4859,-1.5823,-1.6531,-1.7108,-1.7979,-1.9088,-2.0534,-2.1826,-2.288,-2.4212,-2.6852,-2.6928,-2.7325,-2.8712,-2.9069,-2.9502,-2.9441,-2.9108,-2.9332,-2.9828,-2.9119,-2.8762,-2.7923,-2.9071,-2.8338,-2.6486,-2.4595,-2.2742,-2.1415,-2.0234,-1.929,-1.8458,-1.7737,-1.7609,-1.7337,-1.7135,-1.8045,-1.9693,-2.0084,-2.107,-2.234,-2.3325,-2.4178,-2.4403,-2.4674,-2.4329,-2.4086,-2.2329,-2.16,-2.2652,-2.2314,-2.0567,-1.9908,-1.9757,-1.8608,-1.704,-1.6371,-1.5948,-2.1509,-2.1732,-2.1779,-2.1952,-2.2183,-2.2563,-2.2684,-2.276,-2.2941,-2.3022,-2.3153,-2.3132,-2.371,-2.4715,-2.5748,-2.6022,-2.5868,-2.5989,-2.5876,-2.5753,-2.5107,-2.4589,-2.4065,-2.3626,-2.2908,-2.1885,-2.1114,-2.0853,-2.1068,-2.0841,-2.0391,-2.0088,-1.9645,-1.9107,-1.8658,-1.8774,-1.8303,-1.7771,-1.7434,-1.726,-1.6777,-1.629,-1.5878,-1.5649,-1.4849,-1.4322,-1.395,-1.3444,-1.3232,-1.3203,-1.3319,-1.3191,-1.2986,-1.2946,-1.3001,-1.314,-1.3378,-1.3814,-1.4433,-1.5664,-1.6494,-1.723,-1.8424,-2.0028,-2.141,-2.2399,-2.3745,-2.6387,-2.5783,-2.5775,-2.6408,-2.7186,-2.7705,-2.7764,-2.7357,-2.8008,-2.8322,-2.7627,-2.6931,-2.5937,-2.4819,-2.4067,-2.2981,-2.0675,-1.9748,-2.0195,-1.8669,-1.7238,-1.6404,-1.5654,-1.5823,-1.6274,-1.6133,-1.6247,-1.827,-1.9629,-2.0646,-2.186,-2.2988,-2.3568,-2.3414,-2.3374,-2.3199,-2.2176,-2.0662,-2.0337,-2.0591,-2.0436,-1.9903,-1.9038,-1.8109,-1.7062,-1.6024,-1.5172,-1.4531,-2.0169,-2.0782,-2.1077,-2.1421,-2.1714,-2.2128,-2.2299,-2.2269,-2.249,-2.2619,-2.2781,-2.3052,-2.3739,-2.452,-2.5097,-2.5428,-2.5288,-2.5321,-2.5223,-2.4968,-2.4713,-2.431,-2.3854,-2.338,-2.2652,-2.1536,-2.0806,-2.0404,-1.983,-1.9319,-1.8986,-1.8861,-1.9183,-1.8611,-1.8272,-1.8638,-1.8812,-1.8301,-1.7999,-1.7901,-1.7761,-1.7353,-1.7005,-1.6466,-1.5743,-1.489,-1.4586,-1.3915,-1.356,-1.348,-1.3444,-1.3219,-1.2875,-1.2741,-1.2684,-1.2838,-1.3062,-1.3475,-1.4079,-1.4954,-1.5763,-1.6745,-1.8119,-2.0145,-2.1093,-2.188,-2.2845,-2.5172,-2.4689,-2.3914,-2.3821,-2.5121,-2.5747,-2.5893,-2.5668,-2.6313,-2.6757,-2.6167,-2.4855,-2.3165,-2.1848,-2.027,-1.8816,-1.6478,-1.6326,-1.8105,-1.7281,-1.5336,-1.4491,-1.3821,-1.4139,-1.4788,-1.5716,-1.5646,-1.6809,-1.8614,-1.9887,-2.1238,-2.2353,-2.2772,-2.2496,-2.2502,-2.2545,-2.1121,-1.9371,-1.9078,-1.9352,-1.9459,-1.9393,-1.7631,-1.6201,-1.5976,-1.5226,-1.4279,-1.3369,-1.9463,-1.9798,-2.0795,-2.0947,-2.0641,-2.1419,-2.1681,-2.1642,-2.178,-2.2046,-2.24,-2.3145,-2.3437,-2.3697,-2.4557,-2.4741,-2.3893,-2.4799,-2.4849,-2.4658,-2.4419,-2.412,-2.3723,-2.3255,-2.2786,-2.2079,-2.0855,-2.003,-1.9587,-1.8702,-1.86,-1.8816,-1.8969,-1.8457,-1.8265,-1.8615,-1.9309,-1.9083,-1.889,-1.8537,-1.8266,-1.7792,-1.7338,-1.6911,-1.6075,-1.5285,-1.4955,-1.4254,-1.3822,-1.3683,-1.3529,-1.2981,-1.2478,-1.2499,-1.2463,-1.2355,-1.3075,-1.3624,-1.4386,-1.5016,-1.5741,-1.6978,-1.8563,-2.0357,-2.1199,-2.1279,-2.2183,-2.3311,-2.3167,-2.2788,-2.2712,-2.3108,-2.386,-2.3808,-2.3694,-2.3961,-2.4524,-2.4832,-2.3353,-2.0847,-1.9125,-1.782,-1.5946,-1.39,-1.5296,-1.7237,-1.4663,-1.2651,-1.2933,-1.2503,-1.2705,-1.3431,-1.5026,-1.5543,-1.5683,-1.7127,-1.8907,-2.0162,-2.1254,-2.1468,-2.1357,-2.149,-2.1651,-2.0373,-1.8812,-1.8454,-1.809,-1.8303,-1.7733,-1.5539,-1.438,-1.452,-1.3969,-1.2904,-1.2248,-1.8855,-1.9146,-1.9734,-2.0258,-2.0758,-2.1159,-2.1315,-2.1313,-2.1462,-2.1693,-2.2027,-2.3,-2.3398,-2.3463,-2.3995,-2.4367,-2.3857,-2.4118,-2.4188,-2.403,-2.3875,-2.3623,-2.3179,-2.2749,-2.2213,-2.155,-2.0385,-1.9731,-1.9444,-1.8779,-1.8736,-1.888,-1.8815,-1.825,-1.8141,-1.8462,-1.9172,-1.9682,-1.9443,-1.8995,-1.8665,-1.8015,-1.7397,-1.6837,-1.6138,-1.5179,-1.4521,-1.4317,-1.4086,-1.3834,-1.3515,-1.2737,-1.2008,-1.2127,-1.2039,-1.1844,-1.279,-1.3945,-1.4934,-1.5446,-1.5892,-1.6856,-1.855,-2.0188,-2.0996,-2.0813,-2.1202,-2.1743,-2.1787,-2.1308,-2.1582,-2.167,-2.186,-2.17,-2.1763,-2.2022,-2.2068,-2.247,-2.0328,-1.7128,-1.6523,-1.5983,-1.3901,-1.1694,-1.4079,-1.6131,-1.2913,-1.0483,-1.0979,-1.1502,-1.1819,-1.2586,-1.4172,-1.5037,-1.52,-1.6556,-1.8103,-1.9094,-2.0085,-2.0246,-2.0306,-2.0425,-2.032,-1.9152,-1.8276,-1.7685,-1.733,-1.7324,-1.6289,-1.4502,-1.3712,-1.3509,-1.2673,-1.1591,-1.1101,-1.8215,-1.8466,-1.8809,-1.9446,-2.0323,-2.0572,-2.0678,-2.0754,-2.0885,-2.1327,-2.1754,-2.2828,-2.3373,-2.3417,-2.3712,-2.4008,-2.382,-2.3807,-2.3657,-2.3708,-2.3721,-2.3328,-2.2802,-2.2305,-2.2026,-2.1151,-2.049,-2.0001,-1.9793,-1.9293,-1.9218,-1.9064,-1.8651,-1.8314,-1.7881,-1.8113,-1.883,-1.9568,-1.9231,-1.8844,-1.8555,-1.7961,-1.7263,-1.6638,-1.6015,-1.5286,-1.4569,-1.4271,-1.4262,-1.3924,-1.3427,-1.2418,-1.1804,-1.1519,-1.1608,-1.1835,-1.2495,-1.3948,-1.5216,-1.5856,-1.6076,-1.6882,-1.7809,-1.9428,-2.0321,-2.0567,-2.141,-2.1401,-2.0671,-1.9819,-2.0028,-1.9953,-2.0154,-2.014,-2.0636,-2.0796,-1.9962,-1.9686,-1.6367,-1.325,-1.3432,-1.3867,-1.1797,-0.9789,-1.0376,-1.2404,-1.1369,-0.9627,-1.0057,-1.0611,-1.119,-1.2156,-1.3522,-1.4155,-1.469,-1.6091,-1.7316,-1.7799,-1.868,-1.9186,-1.9326,-1.9448,-1.9201,-1.8269,-1.7485,-1.6837,-1.642,-1.6204,-1.5117,-1.3766,-1.3172,-1.2651,-1.16,-1.0641,-1.0182,-1.7497,-1.7682,-1.8135,-1.8614,-1.9165,-1.9485,-1.9718,-1.9988,-2.0024,-2.0671,-2.1682,-2.2501,-2.3173,-2.3514,-2.3662,-2.3698,-2.3681,-2.3433,-2.3389,-2.3657,-2.3793,-2.3686,-2.307,-2.2481,-2.2044,-2.1962,-2.1176,-2.0435,-2.0358,-1.9636,-1.9542,-1.9546,-1.9171,-1.8668,-1.7881,-1.756,-1.8201,-1.9152,-1.8338,-1.8205,-1.7889,-1.7457,-1.6929,-1.6204,-1.5817,-1.5125,-1.4371,-1.4246,-1.4254,-1.4151,-1.3363,-1.2239,-1.1015,-1.1333,-1.1497,-1.1584,-1.2444,-1.3855,-1.549,-1.5866,-1.623,-1.6811,-1.7715,-1.8259,-1.9712,-2.0743,-2.1417,-2.1126,-1.9588,-1.8157,-1.7932,-1.7946,-1.8254,-1.8478,-1.8933,-1.8672,-1.7738,-1.7364,-1.4338,-1.1684,-1.1603,-1.1524,-0.9588,-0.7968,-0.7391,-0.7931,-0.8459,-0.8755,-0.9161,-0.9823,-1.0502,-1.1239,-1.2507,-1.3543,-1.423,-1.5485,-1.6472,-1.6869,-1.7367,-1.7987,-1.8457,-1.8693,-1.8191,-1.7297,-1.6105,-1.4957,-1.4913,-1.496,-1.3724,-1.2573,-1.2205,-1.1593,-1.0549,-0.9748,-0.9292,-1.7329,-1.7479,-1.7693,-1.8018,-1.8464,-1.8893,-1.9368,-1.9809,-2.0188,-2.0737,-2.1345,-2.195,-2.2535,-2.2971,-2.3203,-2.3298,-2.3337,-2.3175,-2.3133,-2.321,-2.3543,-2.3014,-2.2485,-2.2312,-2.2074,-2.1773,-2.1095,-2.0784,-2.0813,-1.9902,-1.9851,-1.9925,-1.942,-1.9115,-1.8882,-1.8481,-1.8319,-1.8565,-1.8376,-1.81,-1.7275,-1.689,-1.6336,-1.5354,-1.5201,-1.4725,-1.389,-1.3947,-1.4111,-1.4023,-1.3189,-1.2118,-1.1056,-1.1264,-1.1017,-1.1383,-1.222,-1.3513,-1.452,-1.5026,-1.5769,-1.6648,-1.7328,-1.7322,-1.7669,-1.9495,-2.025,-1.986,-1.766,-1.615,-1.533,-1.58,-1.6067,-1.59,-1.5992,-1.5452,-1.488,-1.496,-1.3575,-1.1226,-1.0237,-0.8812,-0.7043,-0.6392,-0.5866,-0.5996,-0.6755,-0.7715,-0.8259,-0.9139,-0.988,-1.03,-1.1239,-1.2582,-1.3748,-1.4569,-1.5263,-1.5687,-1.6342,-1.7081,-1.749,-1.7717,-1.6734,-1.5597,-1.4272,-1.3048,-1.3343,-1.3347,-1.2313,-1.1431,-1.0911,-1.0479,-0.9684,-0.8953,-0.8446,-1.6859,-1.6967,-1.7068,-1.7334,-1.7736,-1.8317,-1.8934,-1.9562,-2.0082,-2.0532,-2.1011,-2.1409,-2.2029,-2.2525,-2.2697,-2.2857,-2.3002,-2.2748,-2.2923,-2.2897,-2.3003,-2.2684,-2.227,-2.1971,-2.181,-2.1509,-2.105,-2.0693,-2.0602,-1.9798,-1.9612,-1.9608,-1.9396,-1.9272,-1.9061,-1.844,-1.7547,-1.7522,-1.7299,-1.7109,-1.6586,-1.6191,-1.5742,-1.5023,-1.4585,-1.4271,-1.3625,-1.3535,-1.3822,-1.3526,-1.2852,-1.1933,-1.1208,-1.1057,-1.087,-1.1451,-1.2943,-1.3876,-1.4248,-1.4819,-1.5543,-1.6107,-1.6687,-1.6782,-1.6607,-1.804,-1.9326,-1.8672,-1.5718,-1.3721,-1.2693,-1.3279,-1.4155,-1.3994,-1.2781,-1.2296,-1.3134,-1.3273,-1.1724,-0.951,-0.807,-0.647,-0.5121,-0.4749,-0.4388,-0.4815,-0.5307,-0.631,-0.7253,-0.8053,-0.8933,-0.9441,-1.012,-1.1435,-1.2452,-1.3183,-1.3855,-1.4474,-1.5114,-1.5753,-1.6255,-1.637,-1.5112,-1.4079,-1.3336,-1.2706,-1.2215,-1.1763,-1.1302,-1.0397,-0.9377,-0.897,-0.8636,-0.8259,-0.7798,-1.6058,-1.6176,-1.6211,-1.6525,-1.6994,-1.7817,-1.8478,-1.9016,-1.9565,-2.019,-2.0734,-2.0949,-2.1419,-2.2168,-2.2123,-2.2237,-2.2427,-2.2143,-2.2447,-2.2834,-2.2694,-2.2461,-2.2146,-2.1825,-2.1586,-2.126,-2.084,-2.0348,-2.0093,-1.9509,-1.9245,-1.9211,-1.9208,-1.9266,-1.8924,-1.8035,-1.7046,-1.6751,-1.638,-1.6194,-1.5852,-1.5698,-1.5175,-1.4605,-1.4284,-1.3925,-1.3424,-1.3251,-1.3331,-1.296,-1.2175,-1.1232,-1.0888,-1.1336,-1.1479,-1.2262,-1.4074,-1.4177,-1.4144,-1.4657,-1.4957,-1.5271,-1.5982,-1.6409,-1.6492,-1.6618,-1.7593,-1.6773,-1.4144,-1.1604,-0.9807,-1.1324,-1.2758,-1.1479,-0.9846,-1.0283,-1.1502,-1.0894,-0.902,-0.74,-0.6331,-0.5045,-0.3872,-0.3335,-0.3436,-0.3934,-0.4415,-0.4896,-0.58,-0.6501,-0.7404,-0.8449,-0.9243,-1.0345,-1.1242,-1.1978,-1.2313,-1.2873,-1.3366,-1.3964,-1.4506,-1.5176,-1.4651,-1.3914,-1.3069,-1.2405,-1.1931,-1.1408,-1.0881,-0.9783,-0.8349,-0.8211,-0.8112,-0.7799,-0.7392,-1.5406,-1.5713,-1.5678,-1.5944,-1.6553,-1.7851,-1.8346,-1.8303,-1.9315,-2.0217,-2.0962,-2.0144,-2.0623,-2.1745,-2.1266,-2.1199,-2.1206,-2.1267,-2.1561,-2.1896,-2.2393,-2.2187,-2.187,-2.1575,-2.1233,-2.084,-2.0435,-2.0019,-1.9443,-1.9021,-1.8968,-1.896,-1.896,-1.9179,-1.8819,-1.7889,-1.7016,-1.6346,-1.5869,-1.5602,-1.5372,-1.5223,-1.4631,-1.4069,-1.3778,-1.338,-1.305,-1.2754,-1.2766,-1.262,-1.1943,-1.0996,-0.9895,-1.0454,-1.09,-1.1713,-1.2893,-1.3545,-1.3586,-1.3914,-1.4314,-1.4538,-1.5012,-1.4449,-1.4593,-1.4937,-1.5588,-1.4013,-1.2232,-0.973,-0.8676,-0.9665,-1.071,-0.9969,-0.8691,-0.9003,-1.0048,-0.9714,-0.7804,-0.5655,-0.4564,-0.4112,-0.2946,-0.2471,-0.2649,-0.3159,-0.3611,-0.3994,-0.4615,-0.5386,-0.6288,-0.7396,-0.8438,-0.9587,-1.0185,-1.0863,-1.1014,-1.1282,-1.1866,-1.2609,-1.3543,-1.4116,-1.4176,-1.3517,-1.2254,-1.1792,-1.1645,-1.1053,-1.0363,-0.8826,-0.7483,-0.7558,-0.7567,-0.7407,-0.7036,-1.5186,-1.5452,-1.534,-1.5401,-1.586,-1.7231,-1.7605,-1.7639,-1.8996,-2.0003,-2.0271,-1.9646,-1.9745,-2.0375,-2.0319,-2.0288,-2.0288,-2.0375,-2.063,-2.1139,-2.1953,-2.1611,-2.1342,-2.0871,-2.0473,-2.0124,-1.9768,-1.9302,-1.8892,-1.8919,-1.8909,-1.8493,-1.8629,-1.8862,-1.8545,-1.7472,-1.6455,-1.6055,-1.5768,-1.5452,-1.509,-1.474,-1.3997,-1.3363,-1.3163,-1.2779,-1.2425,-1.2187,-1.209,-1.201,-1.1337,-1.0573,-0.9631,-0.9899,-1.074,-1.1561,-1.2428,-1.2914,-1.3044,-1.3263,-1.39,-1.4334,-1.4079,-1.2822,-1.233,-1.2358,-1.2227,-1.1331,-0.9658,-0.8144,-0.8021,-0.7999,-0.8417,-0.876,-0.8391,-0.7987,-0.8316,-0.857,-0.6705,-0.4264,-0.3327,-0.3029,-0.2504,-0.2013,-0.1897,-0.2459,-0.2909,-0.3257,-0.3991,-0.489,-0.581,-0.6828,-0.7804,-0.8828,-0.9357,-0.9805,-0.9955,-1.0275,-1.0863,-1.166,-1.2585,-1.2909,-1.2894,-1.2162,-1.1141,-1.0794,-1.0467,-1.0309,-0.9633,-0.8162,-0.7285,-0.744,-0.76,-0.7571,-0.7047,-1.5259,-1.5452,-1.5185,-1.5034,-1.5027,-1.6231,-1.6737,-1.6819,-1.8513,-1.9346,-1.9281,-1.9186,-1.9131,-1.945,-1.9578,-1.9653,-1.9666,-1.971,-1.9979,-2.0158,-2.0862,-2.0857,-2.0282,-1.957,-1.9535,-1.9208,-1.894,-1.8739,-1.8623,-1.8544,-1.8369,-1.7882,-1.8249,-1.8426,-1.8126,-1.6957,-1.584,-1.4787,-1.5099,-1.5162,-1.4661,-1.4163,-1.3592,-1.2983,-1.2496,-1.2054,-1.1726,-1.1431,-1.1207,-1.0941,-1.0536,-0.9992,-0.973,-0.956,-1.051,-1.1326,-1.2099,-1.23,-1.241,-1.2549,-1.3034,-1.346,-1.3611,-1.1431,-1.0389,-1.0233,-1.0049,-0.9686,-0.8265,-0.7328,-0.6979,-0.6937,-0.7251,-0.7335,-0.7111,-0.7256,-0.773,-0.726,-0.5386,-0.351,-0.3194,-0.2757,-0.1526,-0.1039,-0.1173,-0.1784,-0.2125,-0.2443,-0.3123,-0.4095,-0.4887,-0.585,-0.6576,-0.7483,-0.8617,-0.8981,-0.9034,-0.9392,-0.9862,-1.0575,-1.1409,-1.1566,-1.1539,-1.1001,-1.0421,-0.9532,-0.9068,-0.9194,-0.9149,-0.8198,-0.7531,-0.7543,-0.7577,-0.755,-0.7395,-1.4855,-1.5188,-1.5107,-1.5074,-1.5188,-1.6206,-1.6686,-1.6769,-1.768,-1.8441,-1.8845,-1.8711,-1.8739,-1.9053,-1.9111,-1.9153,-1.9096,-1.9123,-1.9525,-1.9374,-1.9653,-1.9861,-1.9661,-1.9125,-1.8886,-1.8695,-1.8468,-1.8189,-1.8016,-1.7923,-1.7733,-1.718,-1.7408,-1.7501,-1.7717,-1.648,-1.5183,-1.3717,-1.396,-1.4319,-1.3951,-1.3729,-1.335,-1.2518,-1.1872,-1.1468,-1.1105,-1.0631,-1.0697,-1.073,-1.0261,-0.9905,-0.9707,-0.9627,-1.0302,-1.1322,-1.1538,-1.1567,-1.1661,-1.1572,-1.1648,-1.1929,-1.1603,-0.9576,-0.844,-0.849,-0.8327,-0.7928,-0.735,-0.6526,-0.5998,-0.5998,-0.6004,-0.5902,-0.5848,-0.6502,-0.7098,-0.55,-0.3814,-0.3327,-0.3029,-0.2055,-0.0801,-0.037,-0.0571,-0.0787,-0.1041,-0.1419,-0.2042,-0.2814,-0.3325,-0.4153,-0.481,-0.5792,-0.7164,-0.8047,-0.8013,-0.8175,-0.8572,-0.9366,-1.0268,-1.0845,-1.1215,-1.0496,-0.9816,-0.9019,-0.8628,-0.8838,-0.8566,-0.7943,-0.7614,-0.7559,-0.7444,-0.7388,-0.7485,-1.4789,-1.5073,-1.4944,-1.494,-1.5131,-1.5712,-1.6054,-1.6267,-1.6873,-1.7362,-1.78,-1.7993,-1.8357,-1.8727,-1.8739,-1.8644,-1.8604,-1.8604,-1.8728,-1.8604,-1.8398,-1.8493,-1.8505,-1.8526,-1.8225,-1.7967,-1.7689,-1.7424,-1.729,-1.6928,-1.6619,-1.6405,-1.648,-1.6588,-1.6819,-1.5742,-1.4407,-1.2806,-1.303,-1.3065,-1.3044,-1.2981,-1.2637,-1.1845,-1.1437,-1.0985,-1.0332,-0.9897,-0.9996,-1.0059,-0.9653,-0.9673,-0.9634,-0.9683,-1.0045,-1.0401,-1.0531,-1.0431,-1.0618,-1.0458,-1.0005,-1.0108,-0.9802,-0.7876,-0.6701,-0.6643,-0.6299,-0.5892,-0.5538,-0.4757,-0.4694,-0.4646,-0.4901,-0.4973,-0.4906,-0.5173,-0.4701,-0.3421,-0.2236,-0.1521,-0.1264,-0.0903,0.0175,0.077,0.0502,0.0101,-0.0129,-0.0732,-0.1303,-0.1815,-0.2221,-0.2825,-0.3717,-0.4387,-0.5529,-0.6377,-0.684,-0.7077,-0.7375,-0.856,-0.965,-1.0518,-1.091,-1.0072,-0.9354,-0.8712,-0.8442,-0.8609,-0.854,-0.8101,-0.778,-0.7547,-0.7363,-0.7072,-0.6946,-1.4812,-1.4933,-1.4666,-1.4701,-1.4905,-1.4959,-1.5137,-1.5459,-1.6065,-1.6265,-1.6282,-1.7037,-1.7702,-1.8032,-1.8207,-1.8154,-1.8076,-1.7946,-1.7947,-1.7963,-1.7733,-1.7678,-1.7595,-1.7499,-1.7363,-1.714,-1.6798,-1.6717,-1.666,-1.6286,-1.6046,-1.5768,-1.5651,-1.5601,-1.5243,-1.4469,-1.33,-1.2495,-1.2252,-1.2157,-1.2161,-1.2177,-1.1834,-1.1458,-1.0981,-1.04,-0.965,-0.9247,-0.9257,-0.9331,-0.9249,-0.9447,-0.9616,-0.9747,-0.9599,-0.9751,-0.9452,-0.9467,-0.9467,-0.9127,-0.856,-0.8075,-0.748,-0.671,-0.5552,-0.476,-0.4459,-0.4164,-0.3773,-0.3571,-0.3506,-0.372,-0.3983,-0.3932,-0.386,-0.3706,-0.2676,-0.1651,-0.0784,0.0034,0.0349,0.0576,0.0915,0.1518,0.1507,0.1074,0.0504,-0.0168,-0.0765,-0.1234,-0.1669,-0.241,-0.3293,-0.3902,-0.4657,-0.5184,-0.601,-0.6077,-0.6542,-0.784,-0.8961,-0.9653,-0.9919,-0.9516,-0.8822,-0.8319,-0.8244,-0.8373,-0.8239,-0.8073,-0.7693,-0.7249,-0.661,-0.6325,-0.6175,-1.4155,-1.4275,-1.428,-1.4393,-1.4594,-1.4581,-1.4621,-1.4789,-1.5358,-1.5556,-1.5492,-1.5337,-1.5731,-1.6592,-1.7098,-1.7265,-1.7336,-1.7192,-1.725,-1.7286,-1.7035,-1.7006,-1.6963,-1.6857,-1.6695,-1.6427,-1.6138,-1.596,-1.5915,-1.5831,-1.5564,-1.5056,-1.4732,-1.4466,-1.4037,-1.3266,-1.247,-1.1763,-1.1579,-1.1553,-1.1228,-1.1284,-1.1383,-1.0843,-1.0113,-0.9494,-0.8911,-0.8522,-0.8513,-0.8736,-0.9137,-0.9416,-0.9613,-0.9693,-0.9446,-0.8892,-0.858,-0.858,-0.8488,-0.8072,-0.7547,-0.702,-0.654,-0.5971,-0.4785,-0.3512,-0.3259,-0.3169,-0.2882,-0.2739,-0.2748,-0.3201,-0.3473,-0.2887,-0.2595,-0.2287,-0.1691,-0.0583,0.0443,0.1078,0.1565,0.1617,0.1673,0.2137,0.2471,0.1971,0.1436,0.0767,-0.0,-0.0536,-0.1041,-0.193,-0.2806,-0.4218,-0.5282,-0.498,-0.542,-0.5389,-0.5566,-0.6613,-0.7616,-0.8601,-0.8725,-0.8574,-0.8429,-0.8057,-0.8076,-0.8224,-0.7901,-0.7695,-0.7334,-0.688,-0.616,-0.5698,-0.5635]}]]